GFSCGP_925_thetae_000.txt.gz
Theta_e
320 322 324 328 326 327 330 336 339 338 334 349 350 351 351 349 349 350 349 349 349 347 346 346 347 347 348 347 350 350 351 354 357 356 355 357 357 355 353 350 350 351 351 349
320 323 326 329 330 328 328 333 339 339 335 337 350 353 350 350 351 351 351 351 351 351 347 347 349 349 349 349 349 351 352 354 355 354 355 353 354 353 352 353 352 352 349 348
320 323 329 331 331 331 327 336 336 339 339 339 349 351 349 350 349 348 349 351 349 352 350 348 349 350 351 350 351 352 354 354 355 355 355 354 356 354 353 351 354 351 350 347
321 323 328 332 332 329 325 327 337 340 341 344 342 353 346 348 346 344 347 348 349 350 351 350 350 349 351 352 352 355 355 356 356 358 354 354 349 349 345 348 352 346 335 334
321 324 325 328 330 326 326 325 326 341 340 338 344 346 348 341 340 340 345 348 348 347 352 352 351 350 352 353 354 355 356 356 355 356 354 356 347 339 341 345 339 335 337 336
321 325 325 327 328 326 327 327 323 326 327 336 340 338 342 345 343 340 340 348 347 347 351 352 353 350 353 355 356 356 357 356 354 357 355 353 333 336 341 339 338 336 336 333
323 324 325 326 325 324 326 321 323 325 325 326 323 341 339 343 342 338 339 347 346 346 347 350 348 349 355 357 357 358 358 355 355 352 340 331 330 332 334 336 334 338 334 338
321 323 325 324 323 323 322 321 324 329 333 329 326 329 329 341 341 338 339 345 346 345 345 346 345 348 354 356 356 356 357 355 355 342 332 333 334 335 334 335 336 334 333 334
320 322 324 324 325 323 324 325 324 327 328 330 329 331 337 338 340 339 338 340 343 344 345 345 345 348 351 354 355 355 355 356 351 346 336 336 335 336 336 338 339 333 330 335
319 321 322 325 324 324 324 324 327 323 329 331 330 334 335 344 342 341 339 337 338 342 345 345 345 347 351 352 355 355 354 353 351 344 339 336 336 332 338 338 336 330 335 333
319 320 323 325 324 324 328 327 324 323 325 328 329 330 331 342 343 343 341 340 335 340 342 345 344 346 351 352 354 355 353 352 349 342 340 337 340 340 336 334 333 330 332 333
318 318 322 322 324 323 326 325 324 325 327 325 326 331 334 335 336 341 341 341 337 336 340 342 343 344 349 351 353 355 353 352 350 343 341 339 342 343 340 337 336 335 335 334
321 318 323 323 323 324 326 326 326 322 322 327 330 332 332 333 333 332 331 331 333 336 336 341 340 342 346 349 353 353 353 352 350 345 344 342 343 343 338 335 335 335 335 335
326 318 321 324 324 325 326 327 327 324 326 326 328 331 334 335 334 333 333 333 335 338 336 340 341 341 345 349 351 353 353 352 350 346 345 343 342 335 334 335 335 335 334 335
321 320 324 323 326 328 327 327 327 326 325 328 326 330 331 334 335 334 334 335 336 336 341 339 342 343 346 348 350 352 352 351 350 346 346 344 338 338 336 334 334 334 334 335
319 323 324 325 326 326 327 329 329 330 328 330 328 332 331 332 335 334 334 334 335 338 346 340 342 345 347 348 349 350 350 350 348 344 345 343 340 339 337 336 335 335 334 336
322 323 324 325 327 329 330 331 329 330 333 328 327 326 329 334 334 332 331 330 330 332 336 345 345 345 349 350 349 348 347 347 346 344 342 342 341 338 337 337 337 335 334 334
326 323 322 325 325 329 327 330 333 336 336 334 331 331 331 334 332 330 328 329 330 329 329 331 340 346 350 352 350 347 344 344 343 342 342 341 341 339 338 337 337 335 335 336
332 334 336 326 324 326 332 333 335 335 336 336 336 334 332 331 333 335 327 328 328 328 329 332 336 341 347 351 350 345 341 342 341 340 340 340 340 340 338 337 336 336 336 336
330 332 337 338 332 330 331 336 334 332 337 334 334 334 332 333 335 334 333 329 331 333 335 337 340 346 350 349 345 342 341 340 340 340 340 339 338 338 337 337 336 336 336 338
334 336 336 337 337 333 333 337 334 335 335 335 332 331 331 334 333 331 329 333 332 335 338 341 345 349 350 346 343 340 339 340 340 340 338 337 339 339 337 337 337 337 339 338
343 342 340 337 335 336 335 336 342 335 333 332 332 333 334 332 332 332 330 328 329 332 336 340 348 351 347 343 343 340 339 339 340 339 339 338 332 334 340 338 339 339 338 334
343 341 346 344 342 335 333 332 331 330 330 331 331 331 331 333 333 333 332 331 328 328 332 337 343 347 347 344 342 337 338 341 338 337 336 327 328 330 330 341 340 337 332 329
337 338 341 338 336 338 335 331 330 330 331 329 330 332 332 332 334 334 334 339 341 339 337 346 341 337 334 339 341 340 337 335 332 329 330 329 328 327 329 338 336 332 331 332
337 336 341 340 338 333 331 329 328 329 329 329 328 329 330 335 344 346 343 341 337 335 336 337 338 335 333 335 334 334 334 333 330 330 329 330 328 331 336 334 333 332 328 325
331 336 339 339 335 332 330 328 326 324 325 323 323 322 324 329 342 345 342 338 335 334 336 335 336 334 330 330 330 329 326 326 327 327 326 327 329 332 335 333 325 322 321 321

GFSCGP_925_thetae_003.txt.gz
Theta_e
318 319 321 321 326 325 329 332 342 343 338 346 347 349 352 351 349 350 350 349 348 348 346 345 348 349 348 348 351 355 356 356 355 355 356 355 355 354 353 352 352 351 350 350
318 319 319 323 327 326 326 325 332 336 340 345 347 350 347 347 348 347 347 347 347 346 345 344 346 347 348 348 350 353 354 354 355 355 355 354 355 355 353 351 350 351 350 348
316 318 322 328 329 330 326 328 329 336 340 345 349 351 350 348 347 346 346 345 346 346 346 344 345 345 347 348 348 350 352 351 352 356 356 355 353 354 353 353 354 349 350 348
318 319 325 329 330 328 330 325 329 335 340 346 347 355 347 349 350 349 349 348 348 348 346 344 345 347 348 347 347 349 350 351 352 354 355 354 353 354 349 349 349 352 351 343
318 321 322 327 330 327 329 325 325 332 336 341 345 346 347 347 350 350 349 348 349 349 347 346 346 347 348 347 348 349 351 352 354 355 355 354 353 349 344 344 351 352 338 335
318 321 322 323 325 326 327 325 321 324 330 341 346 341 341 350 350 349 345 347 350 348 349 346 347 347 348 350 350 350 352 354 355 356 357 355 355 348 339 346 347 338 336 334
321 321 322 325 325 324 323 320 322 330 337 341 332 340 338 342 346 346 345 344 348 348 350 349 349 348 349 351 352 352 353 356 355 357 358 355 358 342 337 342 339 335 335 334
319 321 322 322 324 324 321 320 322 324 329 333 328 343 342 337 341 343 342 341 345 347 347 350 350 349 349 352 354 354 355 355 356 357 356 358 352 332 334 339 338 335 334 331
317 319 321 323 323 323 324 321 320 321 325 326 325 327 328 336 337 341 339 338 343 346 345 350 350 349 350 352 354 355 356 356 356 355 356 349 331 332 329 332 334 334 331 331
317 321 320 323 322 322 323 321 324 320 326 330 327 330 329 336 339 340 339 336 341 345 344 347 349 347 351 352 354 355 355 355 355 354 352 341 332 333 333 335 336 336 331 330
315 317 319 322 321 322 326 323 321 321 322 326 327 327 326 332 338 339 338 338 339 343 344 345 346 346 348 352 354 354 354 354 353 352 350 337 335 334 335 335 336 336 330 332
315 316 320 319 321 322 321 323 323 325 325 322 324 326 327 331 337 338 337 336 335 338 342 343 344 345 345 348 351 353 353 352 351 351 349 340 336 336 334 334 333 330 326 328
316 315 318 319 321 322 324 323 321 319 321 327 329 328 329 333 335 338 338 336 334 335 338 343 343 343 344 347 349 351 353 351 349 349 347 341 337 338 339 337 335 333 332 332
323 313 321 322 322 322 325 326 323 323 324 324 325 328 334 333 336 334 335 336 336 335 336 339 342 342 343 344 348 350 353 352 350 348 346 342 338 339 342 342 339 336 335 334
319 319 317 321 321 323 325 326 325 325 324 328 326 327 331 332 333 334 333 332 333 335 334 335 339 339 341 342 347 349 352 352 351 348 346 343 338 337 343 343 339 335 335 333
316 319 321 321 321 322 323 324 327 327 323 326 324 326 326 332 332 332 332 332 333 335 335 334 336 338 338 341 345 348 351 352 351 349 348 343 338 337 343 341 335 334 334 333
318 321 319 323 323 325 326 326 327 329 329 327 327 326 327 332 333 333 332 333 334 335 339 333 334 335 338 340 344 347 350 351 351 350 346 345 345 341 340 336 336 333 333 332
325 319 319 323 325 329 326 330 330 335 336 335 334 326 328 330 333 333 330 331 330 332 335 340 336 336 341 343 345 347 349 351 350 347 345 343 341 341 340 336 337 335 334 334
327 321 329 325 324 327 334 336 334 333 335 334 335 333 333 330 331 331 328 328 329 328 327 331 343 344 342 346 348 348 347 348 347 345 343 344 342 341 339 338 337 336 335 335
328 327 330 329 327 331 333 333 335 331 336 333 333 333 332 331 335 331 330 328 328 326 329 331 335 339 342 343 349 347 343 344 344 344 344 344 341 340 339 339 336 337 336 336
337 334 336 334 336 334 334 334 333 336 333 334 331 330 330 331 329 327 328 329 330 331 335 337 340 343 343 346 348 344 341 342 343 343 342 343 340 339 337 336 334 331 331 335
337 340 344 339 338 339 332 334 337 332 328 330 331 331 331 331 332 330 330 328 327 327 329 334 339 347 346 346 346 340 340 341 341 341 341 339 338 337 335 335 331 329 329 330
340 340 342 338 335 330 331 330 329 328 329 329 330 329 330 333 330 330 329 331 334 335 337 338 339 344 346 344 344 339 339 340 340 340 338 333 332 329 328 328 330 329 327 330
337 335 336 335 331 333 330 326 326 326 326 326 326 326 326 330 337 338 339 339 337 336 336 340 341 339 339 340 340 339 339 340 340 335 333 332 333 333 331 329 328 329 332 333
335 337 336 334 333 329 324 325 326 323 323 323 323 325 327 330 334 340 338 338 337 335 336 338 336 336 336 338 337 338 337 338 335 333 332 331 329 328 329 331 334 334 332 330
325 337 336 335 332 327 325 322 321 321 320 320 320 320 318 320 324 334 337 336 333 332 335 335 333 334 334 333 333 334 335 336 332 330 327 326 326 326 328 330 327 329 327 324

GFSCGP_925_thetae_006.txt.gz
Theta_e
314 317 318 322 324 333 332 339 343 342 340 343 346 348 355 350 349 350 349 349 350 349 347 348 348 349 350 352 352 353 354 355 355 355 355 356 354 352 352 352 350 350 349 349
317 317 318 321 324 327 334 333 338 335 339 343 347 349 353 352 350 349 348 348 347 347 344 344 346 348 348 349 351 352 354 356 355 355 354 354 354 354 354 353 352 351 349 349
315 318 319 325 326 325 326 325 326 337 342 345 348 351 350 351 349 348 347 346 346 346 345 344 344 347 348 348 349 350 352 354 355 354 355 355 354 354 352 352 350 349 349 349
315 317 321 324 327 326 327 324 326 336 343 344 343 346 348 348 350 347 346 346 346 345 345 344 343 344 346 347 348 348 349 352 354 353 355 355 354 353 350 349 350 350 348 348
318 318 321 326 326 325 327 325 327 335 338 342 349 342 340 347 349 348 346 344 344 344 344 344 343 344 345 347 347 347 348 349 351 352 352 356 354 352 349 346 347 350 349 348
318 318 319 320 325 327 323 320 321 323 330 339 340 344 338 349 350 347 346 346 346 345 344 344 343 344 345 346 346 346 347 347 350 350 352 354 354 352 349 343 343 350 350 337
318 318 321 322 323 324 320 321 324 327 335 337 333 344 341 338 345 345 345 346 347 346 346 345 344 344 345 347 347 346 347 348 349 350 353 354 354 352 350 340 342 349 340 335
316 317 319 320 322 322 321 321 323 326 328 336 335 346 343 338 337 341 341 344 344 346 347 346 344 345 346 347 347 348 348 349 349 352 353 354 355 354 354 339 341 343 336 335
316 317 318 320 321 321 321 321 320 319 321 324 328 327 328 330 332 338 341 342 343 346 347 348 346 345 346 347 348 348 350 350 350 352 354 354 356 354 353 334 339 338 336 334
316 319 317 320 322 321 321 318 323 318 325 329 326 327 330 330 333 333 339 341 341 343 347 347 348 347 347 347 348 349 350 351 351 351 353 353 354 356 342 328 334 335 334 331
314 315 317 319 320 320 321 321 318 318 319 323 324 325 323 327 330 333 336 339 339 340 344 345 348 349 348 348 348 350 351 353 353 352 353 353 354 351 330 329 327 331 333 332
314 316 318 317 318 319 320 319 319 323 321 319 321 324 324 326 327 334 335 337 333 338 342 343 347 348 349 348 348 350 351 353 353 352 351 351 352 345 332 332 331 335 335 334
315 313 318 317 316 320 320 320 317 316 317 322 325 325 325 326 331 335 335 334 334 338 340 342 344 347 347 347 349 350 352 352 353 352 350 346 347 339 333 333 332 333 334 329
328 313 318 321 319 319 322 323 320 319 321 322 324 325 327 331 334 335 337 334 333 336 340 341 342 344 344 344 347 350 351 352 352 350 347 344 345 342 335 333 332 331 331 327
314 318 316 321 318 320 321 323 322 322 321 325 325 324 326 330 332 333 337 336 335 333 335 340 342 341 342 342 343 346 349 351 351 349 345 346 347 342 335 334 335 335 334 333
316 317 315 321 319 320 321 322 324 324 323 323 324 324 323 328 330 332 334 336 336 336 334 334 338 339 340 341 341 345 347 349 350 348 345 344 342 340 337 336 337 338 338 337
323 316 316 321 318 318 319 321 321 323 323 324 325 326 324 330 331 332 331 334 336 335 335 333 332 335 336 338 340 344 346 349 351 349 346 344 341 338 337 335 336 341 341 338
335 319 315 322 321 322 321 324 322 325 331 329 329 325 326 328 330 330 328 331 332 332 334 332 330 332 334 336 338 341 344 348 350 350 348 344 341 338 338 331 335 340 340 335
329 319 321 321 319 323 334 334 333 333 334 333 334 333 331 329 330 331 327 328 329 331 333 335 334 334 335 337 339 341 344 347 350 349 348 345 342 339 338 337 335 335 335 334
329 328 327 323 324 332 331 333 333 332 335 331 332 331 330 329 330 331 326 326 326 328 330 333 338 340 341 340 342 344 344 347 348 348 347 346 344 340 337 335 335 334 334 334
336 337 337 333 333 333 333 332 332 334 331 330 329 330 331 331 330 328 329 329 329 332 335 337 339 342 342 342 343 345 345 345 346 346 345 343 344 342 338 336 335 334 333 333
336 342 343 337 337 338 330 333 333 332 328 330 331 330 331 329 329 331 332 332 333 333 334 335 336 339 341 343 344 344 343 342 344 344 342 341 341 339 338 336 334 332 331 330
339 339 339 335 334 330 329 327 327 328 329 329 328 328 332 332 333 334 334 334 334 335 336 339 340 341 341 343 342 342 339 341 340 340 338 337 337 337 336 334 330 329 328 328
337 331 335 335 331 329 325 325 323 325 325 324 325 328 331 333 337 337 338 337 335 335 336 338 338 337 336 338 339 338 338 339 339 334 332 330 329 327 328 327 328 329 328 327
332 333 333 331 329 329 324 325 325 323 322 322 321 323 325 324 324 324 329 336 334 333 335 335 335 335 335 337 337 338 338 339 336 333 333 331 330 331 329 328 328 327 327 330
324 332 332 331 327 327 323 323 325 322 321 321 320 319 319 319 321 321 321 328 332 333 334 333 334 336 336 337 337 337 339 339 338 335 332 330 328 327 328 326 325 328 331 330

GFSCGP_925_thetae_009.txt.gz
Theta_e
321 321 321 325 332 336 340 345 346 346 345 347 349 349 355 354 354 355 357 357 356 355 352 353 354 354 354 355 355 355 356 356 353 356 355 354 354 355 355 350 349 349 348 348
320 321 322 325 328 334 342 344 346 344 345 346 348 349 351 355 354 353 354 356 355 355 354 353 353 353 353 354 354 355 356 357 355 357 357 356 356 356 355 355 352 350 350 349
320 320 321 325 327 330 339 343 345 345 344 346 349 348 352 354 353 352 351 351 351 352 353 352 351 352 352 352 354 354 356 355 356 358 358 356 355 355 355 355 354 353 350 349
321 320 320 324 329 330 333 338 342 344 345 348 346 348 350 352 356 354 352 351 350 350 350 350 350 350 351 351 352 353 354 354 357 357 357 357 355 355 355 354 353 353 349 349
323 319 321 323 326 329 333 333 336 341 344 345 349 347 343 351 355 356 354 351 350 349 348 349 349 348 349 351 351 351 351 352 356 356 356 357 357 356 355 352 350 354 351 349
324 320 321 324 327 329 328 331 332 338 340 340 340 346 339 353 352 351 351 350 350 348 348 348 347 347 348 349 350 351 351 350 350 353 356 357 357 356 354 350 347 348 350 348
325 323 321 322 326 329 329 331 334 338 340 337 337 349 342 343 347 348 348 349 348 348 348 348 349 348 348 348 349 350 350 351 352 353 355 355 356 357 355 351 347 346 347 346
328 326 323 323 323 328 329 331 334 337 337 335 337 344 341 342 341 344 346 347 347 347 347 348 349 349 348 349 349 350 350 351 352 353 353 353 353 355 354 350 347 344 345 344
326 326 320 322 324 327 328 330 331 333 328 333 336 341 335 338 339 340 344 346 348 348 349 349 349 348 349 349 350 350 350 350 352 353 353 355 355 355 353 350 350 343 342 340
324 325 321 322 323 324 326 327 329 330 339 336 333 335 333 340 341 342 343 346 347 349 350 350 351 349 349 349 350 351 350 351 351 353 354 354 355 353 353 352 350 338 341 337
326 323 321 321 322 323 324 326 327 330 331 335 335 333 336 341 346 343 343 344 346 348 351 352 352 349 349 349 350 351 351 352 352 353 353 354 354 353 352 352 352 328 337 336
323 325 326 324 323 322 324 326 328 330 334 330 332 332 332 335 338 339 341 341 343 348 351 350 351 350 349 350 350 351 351 352 353 352 353 354 352 350 349 349 347 328 327 333
321 324 326 325 325 323 323 324 326 328 330 338 331 331 334 333 334 336 339 342 344 346 347 350 350 353 351 351 351 351 352 352 353 353 353 352 349 349 350 350 343 327 325 331
328 330 330 330 328 325 324 323 325 326 329 329 330 330 333 335 339 340 341 343 343 344 348 349 350 355 353 353 353 352 352 352 353 353 354 351 348 348 349 346 340 330 329 333
332 332 330 331 332 327 325 322 324 327 328 331 329 332 333 340 341 343 343 345 343 344 346 349 351 355 356 354 353 352 352 353 353 354 355 351 348 347 347 341 336 333 330 333
324 335 325 326 328 327 325 325 324 325 326 328 328 332 333 337 338 341 342 345 344 344 345 347 349 350 352 351 351 350 352 352 354 355 354 352 350 346 344 339 336 332 329 330
340 333 336 334 325 325 326 326 326 326 327 328 330 331 335 334 337 340 343 345 347 346 344 346 349 350 348 347 348 348 349 351 353 354 353 352 350 346 343 339 336 333 334 330
342 341 330 335 328 327 325 326 326 327 327 329 329 332 337 338 341 339 339 343 346 346 346 344 342 344 344 344 345 346 348 350 352 353 353 351 349 346 343 340 337 335 334 331
337 334 335 333 331 331 329 332 326 325 327 328 330 333 334 333 337 338 335 335 339 340 341 343 339 340 341 341 343 346 348 350 351 353 353 352 349 346 344 341 338 337 335 335
336 338 338 338 336 332 339 337 335 337 332 338 338 339 338 336 336 341 335 335 337 339 341 343 341 341 342 343 344 346 347 349 351 352 353 352 349 347 344 342 338 338 337 335
343 341 340 344 342 334 336 334 335 337 337 337 337 337 337 340 340 337 338 341 342 342 343 345 345 346 346 346 348 349 350 350 351 352 352 351 348 346 345 340 337 337 334 333
339 342 345 344 345 341 331 335 340 339 336 337 338 338 338 338 338 339 339 340 341 342 340 341 344 345 347 347 349 351 350 348 349 350 350 348 345 341 339 337 335 336 335 334
341 339 344 341 341 332 328 331 332 336 336 337 339 338 340 341 342 342 342 343 343 345 345 344 345 346 345 346 348 348 347 346 347 348 346 344 343 339 338 337 335 333 332 334
338 334 337 338 336 330 329 327 327 328 330 332 335 334 335 337 342 345 344 344 344 344 344 343 344 345 344 344 344 344 343 344 344 344 343 343 342 339 337 336 335 334 330 331
332 333 336 334 330 329 327 327 327 327 325 326 326 328 328 330 331 339 342 343 343 343 341 342 344 344 342 342 343 342 342 342 342 341 340 338 337 337 335 333 330 332 331 330
326 331 336 334 331 332 330 325 322 322 322 324 324 324 324 327 329 328 332 335 336 339 341 342 342 342 340 341 341 341 341 340 340 339 337 335 333 332 331 327 324 327 326 326

GFSCGP_925_thetae_012.txt.gz
Theta_e
323 324 325 329 331 334 337 339 341 341 347 349 347 347 351 354 353 353 355 354 352 350 348 350 352 353 353 354 355 356 356 356 357 353 353 353 353 352 353 352 354 354 354 352
323 323 325 327 330 332 335 338 339 341 347 348 347 348 348 351 354 353 354 355 355 351 350 351 352 352 352 354 356 357 358 358 358 355 354 353 353 352 353 353 354 354 354 354
324 323 324 326 327 332 336 337 339 344 347 347 346 349 348 347 351 352 352 352 354 353 352 351 351 352 352 353 356 357 358 359 359 356 356 357 356 356 355 353 353 354 354 354
323 324 323 324 326 331 336 335 337 342 346 349 347 349 344 346 350 352 353 352 351 353 352 352 351 351 352 352 354 357 358 359 360 360 357 357 354 351 348 348 348 348 351 351
325 322 322 323 325 328 333 334 337 339 344 345 348 350 343 344 348 350 353 353 350 348 350 352 351 349 351 352 353 355 358 359 359 360 359 358 357 350 349 349 349 347 349 348
326 324 323 323 324 327 331 334 336 338 339 345 345 347 342 342 347 344 348 351 352 347 347 348 348 348 350 351 352 353 356 359 360 360 360 360 356 353 349 351 348 345 345 347
326 324 323 323 324 325 330 335 341 343 342 343 342 344 343 338 339 341 340 347 351 348 347 347 348 349 350 350 351 352 355 358 359 360 359 360 359 357 355 354 348 343 343 343
328 326 325 323 324 327 329 334 339 343 340 340 340 343 340 339 338 337 340 342 349 349 346 347 348 348 349 350 351 352 353 357 358 358 358 359 360 358 356 354 345 343 340 340
329 328 325 324 324 326 329 335 334 337 337 338 337 339 338 337 339 340 340 344 347 350 346 346 348 347 348 350 351 353 356 357 357 357 358 359 359 358 353 352 352 346 342 340
329 329 327 325 324 325 329 331 335 336 344 341 337 338 340 339 336 336 341 344 346 349 349 346 348 348 348 350 350 352 354 356 356 356 357 357 358 359 357 356 354 346 344 343
330 328 326 326 324 325 326 330 333 334 335 338 340 338 336 336 336 335 336 343 343 348 350 349 347 347 348 349 349 352 354 355 356 356 356 356 356 356 358 357 355 352 348 344
330 330 329 324 324 324 327 329 333 335 339 336 336 336 334 336 335 334 335 335 339 345 349 351 350 348 349 350 349 350 351 353 354 355 357 356 356 355 356 358 355 353 348 343
330 331 332 330 325 324 324 326 329 331 334 342 338 336 333 334 335 337 339 340 341 346 349 351 352 352 351 350 351 351 352 352 351 354 354 354 355 356 355 356 355 351 347 342
326 329 331 331 330 327 326 324 325 328 334 334 334 336 334 333 334 334 334 339 341 348 350 352 352 354 353 353 355 355 353 353 352 352 355 355 355 355 355 355 354 347 343 338
325 335 334 330 329 329 327 326 325 326 327 333 332 333 335 335 334 334 334 335 341 349 350 352 353 360 362 358 357 356 354 354 354 354 355 357 357 357 355 354 351 346 340 331
329 337 336 335 332 331 331 330 328 325 325 327 328 330 331 333 333 334 334 335 339 349 350 352 354 355 358 357 357 356 356 355 356 356 357 357 359 359 355 354 350 344 338 331
331 334 339 338 332 333 334 333 332 330 326 325 327 329 329 332 332 334 334 338 342 348 350 351 353 355 357 356 356 356 356 356 356 357 358 358 359 358 355 354 349 345 341 335
337 340 339 339 338 340 333 331 332 332 329 326 327 328 329 333 333 334 336 336 337 347 349 351 351 353 353 353 354 354 354 356 356 358 358 358 358 357 354 351 348 346 342 335
333 338 340 339 337 335 335 338 334 332 330 328 328 328 329 331 333 338 343 342 344 347 350 350 349 351 351 350 351 352 352 354 355 356 357 357 357 356 354 349 345 344 342 336
334 337 339 339 338 339 342 337 336 339 339 330 329 330 330 331 336 335 344 340 341 344 348 349 346 347 350 348 349 351 350 352 354 354 356 357 357 355 353 350 347 343 340 338
341 340 337 340 340 338 339 335 338 344 337 342 331 330 330 332 339 344 343 344 344 345 347 346 346 348 348 346 347 349 349 352 352 353 355 357 357 355 351 349 347 343 339 338
341 340 337 337 344 343 334 337 344 344 344 342 342 339 340 344 345 346 347 348 350 351 350 348 349 349 349 349 351 352 353 354 355 356 356 357 354 352 350 346 342 340 340 341
338 335 338 338 339 336 334 333 333 338 343 343 343 343 343 344 345 346 346 345 345 345 344 343 347 349 350 350 350 353 356 354 355 355 355 351 350 348 345 341 340 339 339 339
337 337 339 341 339 335 333 332 332 335 339 340 341 341 342 343 344 346 347 347 347 346 345 344 345 348 351 351 353 353 353 352 353 351 348 346 344 342 341 339 339 340 339 338
337 338 339 339 335 332 331 331 330 330 332 333 333 336 341 345 347 347 348 348 347 347 345 344 344 348 351 351 351 350 349 350 351 348 347 346 344 344 342 336 339 339 338 336
328 337 339 338 333 336 331 326 324 327 328 328 329 329 330 331 333 333 336 337 341 347 347 347 347 347 349 349 349 349 349 350 348 346 346 344 343 343 340 336 332 331 331 331

GFSCGP_925_thetae_015.txt.gz
Theta_e
325 325 325 328 332 334 337 339 338 341 341 344 346 346 347 350 349 348 348 347 347 347 348 347 349 349 349 350 353 354 354 354 354 355 356 355 354 353 351 350 353 357 355 355
325 325 326 329 331 333 335 338 339 340 340 343 345 346 347 351 350 350 349 349 348 347 347 348 349 349 351 351 353 355 356 357 357 357 355 354 351 350 350 349 351 354 354 356
325 325 326 328 331 333 335 337 338 340 346 345 345 347 346 346 350 350 349 350 349 347 346 348 349 350 351 351 353 357 359 359 359 357 355 356 357 355 354 350 353 353 353 353
326 326 325 326 329 332 335 335 337 338 344 349 342 348 348 345 346 350 352 350 351 348 347 346 350 351 350 351 354 356 359 360 360 359 356 356 354 350 347 347 346 349 351 350
327 326 326 325 327 330 332 335 337 337 342 349 342 344 343 344 345 346 349 351 351 349 348 347 348 349 350 351 353 356 360 361 361 361 356 356 355 348 348 347 350 350 350 348
327 327 326 326 326 329 330 333 336 337 338 344 346 345 347 346 345 344 345 349 351 351 348 349 347 348 349 350 352 355 361 363 362 362 360 359 358 351 349 349 350 346 346 348
328 327 327 326 325 327 329 332 337 340 340 341 342 344 350 344 342 342 341 344 348 351 349 347 351 349 350 351 352 355 360 365 364 362 361 360 359 358 354 354 349 345 345 345
330 329 328 326 325 326 328 331 335 342 341 340 339 343 342 343 340 340 339 339 342 349 350 347 347 350 351 350 354 355 359 364 364 362 362 361 361 357 354 353 350 345 344 344
331 331 329 327 326 325 327 330 332 336 338 340 340 339 340 341 341 340 339 338 339 347 350 348 346 346 348 350 354 355 358 362 363 360 364 363 362 360 353 351 351 350 343 342
330 332 330 327 327 326 325 328 332 338 345 345 339 340 341 341 341 339 339 338 339 344 349 348 347 346 347 348 351 354 357 361 361 360 362 362 362 363 360 357 356 350 346 342
328 331 331 330 328 327 325 327 331 333 337 340 342 341 338 342 341 339 339 337 338 341 348 349 347 345 346 347 348 352 354 357 359 359 359 359 360 360 362 360 357 355 349 347
329 330 333 330 330 328 327 326 328 336 341 337 340 339 338 337 338 337 337 337 338 339 345 348 348 347 346 347 346 348 351 352 356 356 359 360 359 359 359 361 359 358 353 349
329 331 334 334 329 328 328 327 327 329 334 344 341 338 337 337 337 338 337 337 338 339 341 347 348 349 349 348 348 347 349 349 351 355 357 360 359 361 359 361 360 359 357 352
330 332 333 335 333 329 328 326 326 328 332 335 336 337 337 337 336 336 336 337 337 337 347 346 349 353 353 351 351 350 348 347 349 351 352 356 359 359 360 359 359 360 358 353
327 332 333 332 332 331 328 326 325 327 329 333 333 335 337 337 337 336 336 336 336 336 343 350 351 359 361 357 356 354 351 351 350 352 353 354 358 359 359 358 360 360 358 353
327 331 332 332 331 330 330 330 328 327 326 327 329 331 333 335 339 337 335 336 336 336 337 350 352 355 364 361 360 359 356 356 354 356 356 356 360 359 359 359 360 360 358 353
329 331 332 335 334 334 333 331 331 331 330 328 329 329 330 333 336 337 337 337 337 336 339 342 351 353 359 357 361 360 361 358 358 359 363 360 364 364 364 362 361 360 358 352
328 333 332 335 336 339 335 333 331 331 331 332 331 330 330 335 336 337 334 335 337 340 341 341 349 353 356 356 356 357 358 361 362 364 362 364 364 367 366 363 361 360 354 349
329 331 333 336 336 337 337 337 339 341 340 333 332 333 331 329 329 333 334 337 338 336 339 340 348 350 356 357 358 360 359 362 363 364 364 364 365 365 365 363 360 357 351 349
330 334 337 338 338 340 338 340 339 339 339 333 336 337 332 330 328 333 334 333 335 340 340 342 349 350 356 358 356 359 359 360 361 361 362 362 362 363 362 360 357 355 352 347
329 333 334 337 338 336 341 338 337 341 340 346 345 345 343 338 332 333 340 336 337 341 343 349 350 356 358 356 355 360 358 358 356 355 357 359 360 360 360 358 354 351 350 346
330 335 334 336 336 337 339 339 341 345 345 345 345 344 344 344 333 341 347 347 346 346 348 351 355 354 355 354 356 360 358 354 354 355 357 359 361 359 357 355 353 350 345 341
333 333 334 337 339 343 340 341 340 341 345 345 345 344 344 341 346 348 350 351 351 352 351 350 353 353 352 353 354 358 360 358 357 358 359 360 359 356 354 353 349 347 343 341
339 334 337 344 343 340 338 338 339 341 342 345 346 345 345 348 348 349 349 349 350 351 352 351 352 354 359 356 357 361 359 358 358 360 357 355 352 350 349 348 346 343 343 342
336 339 343 346 341 339 337 336 337 337 338 340 341 342 347 348 350 350 351 348 346 346 345 347 350 352 354 355 354 355 356 357 356 351 349 348 347 347 342 339 342 341 340 340
331 336 346 347 339 341 336 332 332 332 332 332 335 335 336 338 340 341 344 347 347 346 345 346 347 350 353 354 354 354 355 353 352 350 348 347 346 342 338 335 332 337 335 334

GFSCGP_925_thetae_018.txt.gz
Theta_e
329 327 328 328 329 331 333 337 337 341 342 340 352 352 348 347 346 344 345 345 347 348 348 348 348 348 348 351 354 354 354 353 359 358 356 355 356 355 353 352 353 354 353 351
327 327 327 328 330 330 333 335 338 341 344 345 345 355 350 350 347 345 345 344 344 344 347 349 349 348 349 352 353 355 355 356 353 357 356 356 355 353 353 351 353 354 352 351
326 326 326 326 329 331 333 335 337 339 342 342 342 343 347 347 347 347 346 346 344 345 345 350 351 349 350 352 355 358 358 358 357 357 356 355 354 355 355 352 350 354 355 355
328 327 326 325 327 331 333 334 335 337 342 346 343 348 351 347 351 349 348 348 348 346 346 348 351 352 351 353 356 358 359 359 361 354 359 358 356 357 351 352 350 356 353 350
327 327 326 325 326 329 333 334 335 335 339 347 349 348 349 349 351 352 349 348 348 350 347 347 350 351 351 353 356 359 362 362 362 361 357 358 356 354 350 348 351 355 354 350
327 328 327 326 326 327 331 333 334 335 337 342 345 347 348 349 348 345 348 349 350 349 350 348 348 349 351 352 356 357 364 363 361 363 359 358 356 352 354 351 351 351 351 349
329 328 328 327 326 327 327 329 336 338 340 341 341 349 349 347 347 345 345 347 350 351 351 350 350 352 352 353 355 359 364 365 364 363 364 355 361 354 355 354 353 350 344 350
330 330 328 328 327 327 327 328 335 340 340 339 340 342 347 348 346 344 346 346 347 351 350 351 351 351 353 352 355 358 364 365 366 363 366 363 358 362 357 355 353 349 347 347
330 330 330 328 328 327 327 327 329 332 335 338 339 339 338 342 347 343 342 343 342 349 351 351 352 351 353 353 353 357 364 366 367 366 364 366 361 361 361 355 354 350 346 348
329 331 330 330 328 328 327 328 327 329 337 342 340 343 344 344 349 346 344 342 341 341 351 352 351 352 352 353 353 356 360 366 367 366 365 365 365 361 358 356 354 350 351 344
327 331 331 331 330 329 327 327 327 328 331 337 342 342 343 348 350 348 345 342 341 341 349 350 351 349 352 353 354 356 358 364 367 366 365 366 365 365 361 362 356 357 350 347
328 328 333 331 331 330 328 328 326 328 336 332 336 341 339 343 343 345 343 343 341 342 345 349 351 350 349 351 352 355 358 361 365 366 364 365 366 365 365 362 363 358 355 352
331 329 334 331 331 332 330 328 328 327 329 335 336 338 338 343 340 343 343 342 344 347 350 350 350 350 350 350 351 354 356 358 363 364 363 364 363 364 364 365 361 362 359 353
332 329 332 333 334 332 332 330 329 328 328 331 334 337 339 344 344 341 343 342 343 348 355 351 350 352 351 350 351 352 354 355 358 362 362 362 363 363 362 363 364 362 361 358
328 333 332 330 330 332 332 330 329 330 331 332 332 336 340 340 346 343 344 341 343 348 350 353 353 358 355 353 352 351 351 352 353 357 359 361 362 362 362 362 363 363 363 361
327 333 332 333 331 331 333 332 330 329 328 330 330 331 333 337 340 345 338 340 344 345 347 354 355 362 364 357 354 352 351 351 351 352 357 358 360 362 361 363 361 364 363 363
330 329 335 334 332 333 334 334 332 328 328 327 329 332 334 334 336 341 344 341 344 343 344 350 356 357 359 361 356 354 352 352 351 353 356 356 358 361 362 362 363 362 363 363
334 333 332 334 334 337 333 332 331 331 331 330 331 332 332 333 334 335 336 340 342 343 343 347 343 355 356 353 358 357 355 354 355 355 358 357 359 362 363 363 363 363 364 363
328 333 334 337 334 331 332 333 333 333 334 332 333 337 335 334 333 334 334 334 337 340 348 346 339 341 355 354 357 358 361 358 359 361 363 362 365 366 366 365 365 364 364 364
325 334 334 335 336 338 337 334 339 338 340 341 342 341 340 340 342 341 335 334 334 334 336 342 342 345 358 357 358 362 361 364 361 361 364 365 368 372 370 369 367 366 363 358
331 334 334 333 334 332 337 339 338 343 342 346 345 345 343 344 347 349 346 340 347 340 337 336 348 357 359 360 360 364 362 366 364 363 368 367 368 368 369 369 365 361 356 353
331 331 334 338 339 339 340 339 340 346 345 342 344 343 345 347 345 346 346 346 346 350 342 347 366 365 363 361 363 366 367 365 365 366 367 367 367 366 366 364 358 356 354 350
328 330 330 334 335 350 341 344 343 342 345 350 351 346 342 343 345 344 351 350 348 353 354 351 363 367 363 361 367 367 368 363 362 362 364 364 364 362 362 358 355 353 350 346
332 338 338 336 342 343 343 342 343 344 348 347 349 351 352 348 349 350 351 352 357 357 355 359 362 365 368 363 364 364 360 361 362 366 365 360 358 356 354 353 351 348 345 343
336 335 343 344 346 342 341 341 341 342 343 342 342 342 344 345 347 352 354 356 357 360 361 361 363 365 367 366 364 364 364 364 363 360 356 351 350 350 348 347 346 345 344 343
328 337 345 351 340 342 342 337 335 335 337 337 337 336 337 336 336 339 342 347 352 354 355 355 355 357 358 359 359 361 361 357 354 352 350 349 345 343 340 339 339 340 340 341

GFSCGP_925_thetae_021.txt.gz
Theta_e
323 324 325 324 322 325 327 328 330 331 338 347 347 345 343 339 340 340 345 345 345 346 344 347 347 348 350 350 351 353 352 355 354 353 355 355 356 353 353 351 348 352 353 353
323 325 325 326 325 325 326 328 329 331 339 345 349 347 344 339 339 340 343 344 345 345 344 346 347 347 350 352 352 350 352 356 356 354 354 355 355 354 354 352 354 354 354 352
324 326 328 326 326 327 326 327 329 332 339 343 350 351 347 339 342 342 342 343 344 344 344 346 346 347 348 352 353 352 350 353 359 356 355 355 353 352 354 355 354 352 352 349
325 326 326 326 325 325 327 328 330 331 335 343 347 355 349 342 345 345 343 341 342 344 344 345 346 347 347 352 354 353 351 351 355 358 355 356 353 355 353 354 354 352 354 354
324 326 326 325 323 323 326 329 330 331 332 342 342 342 349 347 348 347 343 342 341 341 342 345 347 347 348 352 354 355 353 353 353 355 356 354 353 352 353 354 353 355 356 349
324 324 325 325 325 324 324 327 329 330 331 337 340 342 345 348 348 346 345 345 343 341 341 344 346 348 348 352 355 358 357 356 356 356 355 357 356 356 354 352 352 354 353 350
327 326 324 326 324 322 323 321 327 330 332 333 336 341 346 344 343 347 347 345 345 344 342 341 346 347 348 353 357 359 359 359 359 358 355 356 358 356 353 355 354 354 354 350
324 327 327 326 325 322 322 321 324 329 332 332 332 341 343 342 341 346 346 343 345 345 344 342 345 346 349 351 356 360 361 360 361 360 359 355 355 358 354 353 351 351 351 350
324 326 328 327 327 325 323 321 322 321 326 330 332 332 332 342 341 343 341 341 343 341 347 345 343 345 348 350 356 357 363 362 362 363 362 359 357 357 359 353 356 351 346 344
324 327 327 328 326 325 323 324 321 322 323 328 330 332 336 336 343 342 341 341 341 340 345 346 344 345 349 350 355 357 363 363 363 360 363 362 359 356 358 361 353 355 348 348
323 324 326 327 327 325 324 323 321 320 322 325 330 331 331 337 344 343 341 340 337 342 343 347 346 346 349 350 353 357 362 363 364 363 361 363 364 361 357 359 357 353 353 346
324 323 324 325 326 327 325 324 321 323 323 325 323 326 329 330 340 342 341 339 337 337 346 347 346 346 350 351 351 356 363 363 364 365 363 362 364 364 361 358 359 354 352 352
326 325 324 325 325 326 326 325 323 322 321 323 328 327 326 327 338 339 341 341 339 339 344 347 346 348 350 351 351 355 361 364 365 365 365 364 362 364 363 359 357 358 354 352
332 326 325 326 326 328 330 327 326 323 323 323 322 322 324 335 339 334 338 338 339 341 341 344 346 347 349 351 352 353 357 362 364 366 365 364 364 363 363 363 359 358 362 357
322 328 326 325 326 328 327 330 327 325 323 324 323 323 324 326 340 338 338 338 337 341 347 344 346 345 347 349 351 353 354 356 362 364 365 363 363 364 364 363 364 360 360 361
319 329 329 328 327 326 326 329 330 327 326 326 326 326 326 328 338 339 338 337 333 336 346 346 346 345 345 346 349 351 353 355 357 362 363 363 362 363 362 363 362 364 361 361
320 323 329 328 329 330 327 326 329 330 328 327 326 325 326 327 332 338 341 336 335 336 345 346 345 350 346 347 348 350 352 354 355 357 361 361 361 361 361 361 362 363 364 362
320 322 327 327 332 334 331 330 330 331 332 328 327 327 328 329 329 331 331 330 331 339 340 347 348 347 353 350 349 350 350 352 353 354 357 359 359 360 361 361 362 362 363 363
321 321 326 330 330 330 330 329 332 332 330 333 338 335 337 339 330 328 331 330 328 327 331 333 344 349 351 354 351 350 349 351 351 351 352 356 358 359 360 361 361 362 361 363
321 322 328 328 330 330 329 330 331 338 340 345 344 343 342 340 339 337 343 340 339 333 330 331 334 343 352 351 355 351 350 350 351 350 353 355 356 358 360 361 362 362 363 364
326 333 332 329 327 328 330 327 336 340 341 344 344 344 344 344 343 341 340 339 341 339 330 331 333 339 350 352 357 355 352 351 353 353 354 358 358 359 362 362 362 364 364 364
334 330 333 332 332 333 339 337 338 339 344 346 343 342 343 343 341 340 339 340 337 346 344 335 332 347 348 354 358 359 359 356 354 362 359 368 365 367 366 366 366 365 360 357
331 333 339 335 345 341 344 345 342 348 351 352 352 351 350 351 351 351 355 350 353 352 354 362 362 363 362 359 360 361 365 365 362 364 368 370 370 370 368 367 359 355 356 351
328 333 337 339 338 339 341 340 346 344 344 343 345 347 347 344 344 345 349 352 357 358 358 361 361 364 365 368 367 368 367 366 367 366 366 364 364 362 360 356 354 351 348 346
331 331 337 339 341 339 344 344 343 342 339 339 337 337 339 340 339 340 341 347 351 353 356 361 364 364 364 365 365 364 364 365 362 359 357 355 353 351 351 350 348 348 347 346
328 334 338 342 332 334 335 336 338 337 336 334 333 333 332 331 331 332 335 337 341 350 351 351 357 359 361 363 360 360 360 358 355 350 350 346 344 343 343 342 340 344 344 344

GFSCGP_925_thetae_024.txt.gz
Theta_e
320 323 325 322 321 322 324 325 325 326 329 342 342 342 340 351 351 351 351 350 349 348 346 345 350 349 347 348 352 352 352 349 355 354 351 351 350 348 348 353 351 351 350 351
320 321 322 323 322 322 322 324 325 325 327 341 343 343 339 344 347 349 348 348 348 348 346 345 346 349 349 351 353 353 352 350 352 352 350 348 348 350 347 352 352 350 351 351
319 321 323 325 325 323 322 322 323 325 327 347 344 345 345 340 337 341 345 345 346 346 345 345 344 348 348 352 353 352 353 352 351 351 349 352 351 354 354 354 353 352 354 352
320 322 323 324 326 324 321 323 324 325 327 336 342 344 346 343 337 339 342 343 345 344 344 344 345 345 348 351 352 352 353 354 353 353 353 355 355 355 354 354 353 352 353 353
323 324 324 325 325 325 323 323 325 326 326 327 331 342 342 344 344 339 339 343 343 343 344 343 345 345 347 350 351 351 353 354 354 354 354 354 354 353 351 350 353 354 354 353
323 322 323 324 324 325 324 321 322 325 326 328 329 340 341 343 344 340 341 340 342 343 343 343 345 345 345 349 351 351 351 355 355 356 355 354 354 353 351 351 353 355 354 353
326 324 322 324 322 322 320 317 320 323 325 328 326 337 340 340 343 341 343 342 340 342 342 342 344 344 345 347 351 352 352 354 356 357 356 355 354 353 349 350 353 353 354 355
325 326 324 322 322 323 319 318 320 322 325 326 325 334 337 337 341 342 343 342 340 340 342 342 343 345 345 346 351 354 353 353 355 356 355 355 354 353 350 354 352 352 352 354
319 323 324 325 324 322 321 318 318 317 321 323 326 328 328 333 337 342 344 343 342 340 340 341 343 345 345 347 351 354 354 354 355 355 354 355 354 353 354 356 354 355 353 352
319 320 320 323 324 325 321 319 319 313 320 321 322 327 330 330 336 337 342 344 343 342 340 340 340 343 346 346 352 354 355 355 355 356 355 355 354 355 356 356 354 354 352 350
320 319 321 323 322 324 324 321 317 317 317 320 321 323 323 326 329 335 343 344 344 344 343 342 340 343 345 347 352 355 356 355 357 357 357 357 356 354 354 354 357 353 353 350
318 318 320 320 321 324 324 323 318 321 318 318 321 323 327 324 326 334 339 341 342 343 340 343 341 341 344 347 351 355 358 357 357 359 359 358 358 357 356 353 355 358 355 350
323 318 320 319 319 319 322 323 322 314 315 320 322 321 321 321 325 337 338 338 336 335 336 341 343 342 343 347 349 353 358 359 358 359 359 360 360 359 356 354 355 356 359 354
317 322 321 324 323 321 321 324 322 321 322 321 321 321 322 322 326 328 327 336 336 337 339 341 344 342 344 347 348 353 355 360 360 360 359 359 360 361 359 356 355 355 357 356
315 317 320 320 322 323 324 325 324 322 323 323 323 318 318 319 319 322 325 331 336 335 340 343 343 344 346 347 348 351 355 359 360 361 361 360 359 360 361 360 357 356 356 357
313 317 318 324 325 323 324 325 325 324 324 322 320 320 318 319 319 325 329 335 333 336 336 341 344 345 345 348 348 349 354 360 360 361 362 361 361 360 360 361 360 358 357 357
314 316 317 322 323 323 325 325 325 325 325 323 322 321 320 322 325 328 331 333 332 329 339 340 343 344 346 348 349 349 352 358 361 361 362 362 362 361 361 360 361 361 359 357
317 318 316 321 322 325 324 324 324 323 326 324 323 322 322 323 323 326 331 331 328 331 335 340 342 343 346 348 349 350 350 354 359 360 361 362 361 361 361 361 361 361 362 359
316 318 321 322 326 325 329 327 325 323 325 327 324 324 325 328 325 338 336 329 328 328 330 335 341 343 343 345 347 349 350 352 354 357 360 361 361 360 360 360 360 360 361 361
318 318 321 323 326 328 326 328 328 329 331 342 337 338 336 331 328 330 338 338 337 336 330 327 341 347 347 344 345 347 348 351 352 354 355 359 360 359 359 359 359 360 360 361
331 328 324 324 329 323 325 327 333 334 333 342 340 339 337 340 334 335 337 337 337 335 337 332 327 335 347 350 346 345 347 349 351 352 353 355 358 358 358 358 359 359 360 360
330 333 333 330 331 329 331 336 331 332 343 339 343 339 337 342 351 353 350 346 340 335 337 340 327 325 335 346 349 347 346 347 349 350 351 351 355 356 357 358 359 359 360 359
330 331 334 332 338 330 337 341 345 347 348 349 349 348 349 348 349 351 353 354 356 355 355 356 335 327 329 343 351 350 348 347 348 349 349 352 353 355 357 358 360 360 358 354
329 331 333 333 336 334 331 330 339 340 340 339 340 341 343 345 345 347 349 350 352 353 355 357 357 355 357 354 349 351 352 350 351 353 354 358 359 360 360 360 359 357 354 350
328 330 334 334 333 333 330 328 333 336 334 334 332 333 334 337 336 338 338 340 345 349 350 353 354 357 358 360 359 359 361 355 361 362 363 363 360 358 352 351 351 351 350 349
327 332 332 337 331 328 329 328 333 331 330 329 330 330 329 330 329 330 330 331 335 342 347 346 346 347 349 350 354 362 363 361 359 357 351 346 341 337 334 333 338 344 348 348

GFSCGP_925_thetae_027.txt.gz
Theta_e
321 323 322 322 319 321 324 324 324 325 329 340 340 340 354 351 350 350 354 354 354 353 349 349 348 348 348 348 349 350 350 350 350 351 350 350 352 351 350 351 350 350 350 350
319 324 323 322 321 321 322 322 323 323 328 337 338 341 342 352 352 350 350 351 352 352 349 345 348 347 348 348 349 349 350 350 349 350 350 350 352 350 350 348 351 350 350 351
322 320 320 323 323 322 320 321 323 323 324 337 340 342 341 352 352 351 350 348 348 348 346 343 345 348 347 346 348 349 350 350 349 349 349 352 352 350 349 348 350 352 351 350
317 318 321 321 323 322 321 320 322 323 324 324 338 346 342 348 354 352 350 349 348 347 346 344 345 348 347 347 348 350 350 350 350 349 352 352 351 349 349 350 350 351 351 351
318 319 319 321 322 321 324 323 322 323 323 324 328 339 336 342 348 345 346 347 347 347 346 345 343 347 348 348 349 350 351 351 351 349 351 352 350 348 347 348 352 352 352 351
321 320 319 320 322 322 323 323 320 322 320 323 325 327 328 343 342 341 338 343 345 345 345 344 344 344 347 348 350 350 350 351 351 350 350 351 351 351 350 352 352 351 352 353
320 320 321 321 321 321 321 317 321 319 321 324 321 326 327 332 340 340 339 338 342 343 343 343 342 343 344 347 350 351 351 352 352 351 351 352 352 352 351 351 351 350 351 353
323 325 321 319 321 322 319 319 317 319 320 323 322 327 327 331 335 339 339 338 338 341 342 342 342 342 344 346 349 350 350 352 353 353 353 352 353 352 351 352 352 349 351 353
321 324 322 324 320 322 320 319 318 316 319 318 322 323 325 329 333 335 338 337 338 339 341 341 342 341 343 344 347 349 350 351 354 354 353 353 353 352 352 352 352 347 349 352
317 320 318 322 322 319 321 315 319 310 321 321 318 321 323 328 329 332 339 338 339 339 340 341 341 341 342 343 345 349 350 350 352 354 354 353 353 353 353 353 351 349 351 352
316 316 320 319 320 324 322 319 316 314 313 320 319 320 319 324 327 330 334 339 340 339 339 339 340 341 342 343 344 348 350 350 350 352 353 353 353 353 353 352 351 349 353 353
317 311 320 321 319 321 322 323 316 317 317 315 320 320 322 322 324 325 327 334 337 340 339 339 338 339 341 343 344 348 350 351 350 352 352 352 353 353 354 353 352 350 354 353
320 318 316 316 317 317 319 321 321 319 315 322 319 319 317 320 323 328 328 333 334 338 340 339 338 337 340 343 344 348 350 352 351 352 353 353 353 353 353 353 354 352 354 355
314 314 317 319 318 318 318 320 321 320 321 323 321 320 320 319 319 321 326 330 333 335 336 337 337 337 338 342 344 349 351 352 352 353 354 354 355 354 354 353 353 353 352 354
312 317 316 318 319 320 320 319 320 320 322 323 323 317 317 318 318 318 319 320 327 330 334 336 340 339 338 341 344 348 351 354 353 354 355 355 355 355 355 354 354 353 353 353
310 317 315 319 319 321 322 321 321 321 322 320 321 317 316 318 317 318 318 319 325 331 334 335 339 340 339 341 344 346 350 355 355 355 356 356 356 357 357 356 355 354 353 353
312 315 316 319 318 320 323 322 322 322 322 322 321 320 317 317 317 317 318 319 324 325 332 335 339 340 340 341 344 346 350 352 356 356 356 356 356 356 358 358 357 356 354 354
312 314 315 318 318 325 322 321 323 322 322 320 320 319 319 319 320 320 319 323 326 327 328 333 334 336 341 342 344 345 348 353 356 357 357 358 357 356 356 358 358 358 356 355
311 313 317 320 321 322 323 324 322 321 322 322 322 321 320 320 325 326 327 324 326 327 327 332 335 337 340 342 345 346 348 352 356 357 357 358 359 358 357 357 357 358 358 356
311 312 318 320 322 326 323 331 332 329 324 323 323 322 322 322 322 323 333 329 327 324 323 328 337 339 340 343 346 346 347 350 356 357 357 358 359 359 359 358 358 358 358 359
316 316 319 321 324 324 330 336 337 331 326 337 329 325 326 324 323 325 333 336 333 329 329 329 334 340 339 343 345 347 347 348 352 355 357 358 359 359 359 359 358 359 358 359
323 326 324 321 327 326 334 336 343 339 340 336 334 334 333 338 345 345 343 347 347 346 347 345 323 329 342 341 342 344 346 348 349 351 353 356 357 359 358 358 358 358 358 358
321 324 326 325 328 329 331 334 331 332 338 342 341 345 350 351 352 351 352 352 353 353 353 355 351 347 353 334 344 342 344 346 348 349 351 352 355 358 358 357 357 357 358 358
319 322 326 331 333 334 335 332 331 334 333 332 336 341 346 349 348 347 348 349 351 351 352 353 355 355 353 356 357 345 347 344 345 346 349 350 351 355 356 356 357 357 358 358
320 323 324 330 332 332 334 330 331 332 330 332 331 331 333 337 335 336 337 339 342 344 343 344 345 344 342 340 342 349 353 354 346 345 346 348 349 352 354 353 356 358 358 356
321 324 327 330 330 330 330 328 328 331 330 329 330 329 328 329 329 331 332 332 336 340 343 343 344 345 339 331 328 332 338 347 350 354 349 353 350 342 336 339 338 352 352 349

GFSCGP_925_thetae_030.txt.gz
Theta_e
320 322 323 320 318 320 322 323 325 324 326 338 338 339 352 351 352 354 353 353 352 351 348 348 347 348 349 349 349 350 350 348 347 346 346 346 349 350 352 349 348 349 349 350
318 323 322 321 319 321 321 322 322 322 323 334 334 337 350 352 353 352 354 353 353 351 349 349 348 347 348 348 348 349 350 349 349 347 347 347 348 349 352 350 350 349 349 350
322 320 322 323 321 322 320 322 322 324 323 330 336 337 342 352 350 350 352 351 351 351 351 349 348 347 347 347 348 348 349 350 350 349 348 348 349 349 351 351 349 350 350 349
318 319 323 322 323 320 319 319 322 322 321 323 332 334 339 344 353 350 348 351 352 351 350 349 348 348 347 347 347 348 348 349 349 349 349 349 350 350 350 350 349 348 350 350
319 317 320 322 323 320 324 320 320 320 320 321 325 331 333 338 354 353 350 348 347 347 348 349 345 346 348 347 347 347 348 349 349 349 349 349 349 350 349 350 349 347 348 350
318 317 319 318 319 320 321 321 317 317 317 322 321 327 323 343 344 351 351 350 349 347 346 345 344 343 345 347 346 347 348 348 348 349 349 349 349 349 350 349 348 349 352 351
319 319 319 317 319 319 320 318 321 321 321 324 319 323 326 329 340 344 347 347 347 347 346 345 344 342 345 346 346 346 348 348 348 349 349 349 349 349 349 348 347 347 350 352
320 320 320 318 318 319 318 317 319 322 321 323 318 323 323 323 333 338 340 342 341 344 345 345 345 344 343 346 346 347 348 349 349 349 349 349 350 349 350 349 348 348 347 348
318 320 321 319 319 320 317 320 316 316 316 316 318 319 322 324 325 334 337 337 338 337 342 343 344 344 343 344 346 348 349 349 349 349 349 349 350 350 350 350 350 349 349 349
318 322 319 320 319 319 317 315 320 311 321 320 318 318 324 326 327 327 334 336 337 337 337 341 342 342 343 343 345 347 349 349 349 350 350 350 350 350 350 350 351 351 350 351
314 315 318 319 321 322 318 317 314 316 314 319 318 320 316 322 325 326 328 335 336 335 336 337 340 341 342 342 343 346 348 349 349 351 351 351 351 351 351 351 351 351 351 351
320 310 318 318 318 321 322 321 314 318 317 312 315 320 318 318 323 325 326 328 334 335 336 336 338 339 341 341 342 344 347 348 349 351 352 352 351 351 351 351 351 351 351 351
318 315 315 316 317 317 319 320 316 318 314 319 319 321 320 318 320 321 322 323 327 334 336 336 335 338 339 340 341 343 346 348 348 349 352 352 352 351 351 351 351 351 351 351
314 313 315 319 319 318 317 318 319 320 321 322 320 319 319 319 319 319 322 325 329 332 333 334 335 336 338 340 341 342 344 347 348 348 350 351 352 352 351 351 351 351 351 351
311 316 316 317 317 318 319 319 319 318 321 322 323 322 320 318 318 319 320 324 324 329 332 334 336 335 336 339 341 342 345 346 348 349 349 350 351 351 351 352 352 352 351 351
308 315 315 317 318 318 319 319 320 320 318 318 321 320 316 318 317 318 319 319 320 322 325 329 336 337 335 338 341 342 345 347 349 349 349 350 351 351 351 351 351 351 352 352
309 313 315 318 317 318 319 318 319 319 318 319 319 320 318 317 317 318 319 318 319 319 324 328 331 337 336 337 340 342 345 348 350 350 350 351 352 352 352 352 352 351 351 352
309 312 313 316 317 321 318 318 320 319 320 318 318 319 320 321 321 319 319 320 319 319 321 326 329 333 338 338 339 341 345 349 351 351 351 352 353 353 353 353 353 353 352 351
308 309 313 317 318 317 318 328 334 334 331 321 320 320 319 319 319 320 318 317 319 320 323 324 329 333 336 338 339 341 344 348 352 352 352 353 354 354 354 355 355 354 353 352
308 309 312 315 320 322 322 333 334 335 338 329 329 321 321 318 320 322 320 325 321 322 323 325 328 333 334 338 340 342 344 348 351 354 354 354 354 354 354 355 355 356 355 354
310 311 312 314 320 320 320 332 335 333 331 337 336 338 322 321 323 322 324 331 325 325 327 328 328 335 335 337 341 343 344 347 349 352 354 355 355 355 354 354 355 355 356 356
311 314 314 314 319 319 327 331 340 334 334 336 336 339 339 319 323 331 334 339 340 347 351 343 338 337 329 339 343 343 344 345 348 352 354 355 356 356 356 356 356 355 356 356
314 316 319 314 315 317 329 331 330 330 335 335 334 335 339 332 344 348 351 351 352 353 352 351 352 353 353 340 341 340 340 344 346 348 353 355 356 357 357 357 357 357 357 357
313 313 317 320 321 325 329 329 329 331 332 331 332 334 343 348 347 348 349 348 347 346 350 351 350 347 346 346 346 348 351 348 346 345 348 350 354 355 357 357 357 357 357 357
311 311 314 318 320 329 330 327 327 331 330 330 330 330 331 338 337 340 341 342 342 341 340 340 338 334 331 329 333 338 345 351 350 345 342 346 349 351 356 356 355 357 357 357
309 310 313 316 319 326 328 326 326 331 331 331 331 332 330 332 334 335 336 336 337 335 333 338 341 341 338 335 331 330 334 336 342 351 349 344 346 348 349 344 345 355 357 357

GFSCGP_925_thetae_033.txt.gz
Theta_e
323 323 325 324 323 322 322 324 328 328 328 337 339 341 343 352 354 355 355 353 352 351 348 347 348 349 349 350 351 351 351 350 350 349 347 346 344 344 347 349 350 350 348 349
324 323 322 322 323 323 322 323 326 327 326 329 333 339 341 351 355 355 356 355 353 351 350 348 348 349 350 351 351 352 352 352 350 349 347 345 345 346 350 353 350 348 348 349
322 322 322 323 324 324 324 322 323 326 327 328 333 333 339 348 352 353 354 353 353 352 352 351 349 349 350 351 352 352 351 352 351 349 349 349 349 350 352 353 353 350 349 349
321 322 323 323 324 325 323 323 322 324 326 330 332 336 339 341 353 354 353 355 354 353 352 351 351 350 349 351 351 351 351 352 352 350 350 350 348 348 349 351 353 353 349 350
322 323 323 324 323 325 323 323 323 323 326 328 329 333 335 342 351 354 353 353 353 352 352 353 352 351 350 350 351 351 351 351 351 351 351 351 351 350 350 352 353 351 351 349
322 320 323 325 324 325 325 324 325 325 326 328 329 330 334 335 341 347 351 351 352 353 352 352 351 351 351 350 350 350 351 351 351 350 351 351 352 351 351 352 352 352 352 352
323 321 322 323 325 325 325 325 327 327 327 328 330 330 333 333 336 336 346 351 351 351 353 353 353 352 352 352 350 350 350 351 351 350 351 351 351 352 352 352 352 352 352 352
324 324 322 322 324 324 326 325 324 326 326 326 328 330 331 330 331 336 338 344 349 351 350 350 353 353 351 350 351 350 350 351 351 351 351 351 351 352 352 352 351 352 351 351
324 323 322 321 322 324 324 327 324 323 322 324 326 328 328 329 331 334 339 340 345 349 350 350 351 350 349 349 350 350 350 351 351 351 351 351 351 352 352 351 351 352 352 352
324 326 324 322 322 323 323 324 323 325 324 325 326 327 328 333 332 332 335 338 341 343 346 348 350 350 349 348 349 350 350 350 351 351 351 351 351 351 351 352 352 351 351 351
322 323 323 324 324 324 322 324 324 324 324 324 324 324 328 332 337 336 334 336 338 340 342 343 348 349 349 348 348 350 350 351 351 351 351 351 351 352 352 352 352 351 351 350
321 321 326 325 324 324 324 324 325 325 328 325 324 324 326 328 329 333 333 335 336 340 343 342 342 345 346 348 348 348 350 351 351 351 352 352 352 352 352 353 352 351 351 350
320 323 328 326 324 322 325 325 325 325 326 328 325 325 326 325 326 329 331 333 334 336 339 341 341 343 347 347 347 347 348 350 351 351 352 353 353 353 353 353 353 352 351 351
318 320 325 328 327 323 325 324 325 325 328 327 327 325 326 327 327 329 330 331 332 335 340 342 343 346 347 345 346 346 347 348 350 351 352 353 354 354 354 354 353 352 352 352
317 321 319 319 318 319 321 322 322 325 327 329 327 328 327 327 328 329 330 332 334 334 337 342 344 349 350 347 347 346 346 348 349 351 352 354 354 354 354 354 354 353 353 352
313 316 317 317 316 318 321 321 321 322 323 323 325 327 327 326 328 331 331 333 335 331 334 337 343 346 346 348 347 346 347 347 349 351 351 353 354 355 354 354 354 354 354 353
313 314 315 316 317 318 321 321 322 322 322 323 325 324 325 325 327 328 329 332 335 333 334 335 336 341 346 344 345 346 347 347 349 351 352 352 354 355 355 355 355 355 355 354
312 317 315 313 315 319 321 321 322 325 323 323 323 323 324 327 330 331 331 331 333 334 334 336 332 337 341 340 340 344 346 348 350 351 352 352 353 354 354 355 355 355 355 355
310 311 314 313 316 317 317 319 328 334 329 334 330 324 324 325 327 331 329 329 332 333 335 334 330 331 336 340 342 344 347 349 351 352 353 353 352 353 354 355 355 355 355 355
310 310 312 314 313 316 321 322 327 336 331 338 340 339 332 325 328 327 332 330 329 328 330 333 330 333 335 339 341 345 347 350 353 353 353 353 353 354 355 356 356 356 355 355
312 311 312 312 314 314 316 323 335 337 332 340 341 343 343 343 332 333 333 332 331 333 333 330 332 340 342 342 343 347 348 352 351 353 354 355 355 355 356 356 356 357 357 356
311 314 314 312 313 312 316 318 322 335 337 336 338 341 343 343 343 343 337 333 339 345 343 333 339 340 341 345 346 350 353 350 351 353 355 357 356 356 356 357 357 357 357 358
313 312 315 314 311 314 317 322 323 330 333 335 339 340 341 342 342 344 337 350 353 357 356 355 356 351 347 347 349 351 351 350 351 353 355 357 357 358 358 357 357 357 358 359
311 314 316 315 313 316 315 318 320 332 335 337 337 339 339 341 345 343 351 359 360 355 357 356 355 355 351 350 352 353 352 350 352 354 356 357 358 358 359 359 357 358 358 358
311 312 313 314 314 315 316 317 322 326 330 334 335 335 336 344 349 352 356 354 351 347 344 341 341 340 339 339 340 343 351 355 353 351 352 354 356 357 359 359 359 358 357 359
310 312 314 313 313 317 319 319 323 331 331 335 333 336 338 342 346 349 348 346 346 347 346 346 344 343 340 338 337 339 340 346 355 356 352 350 350 353 355 359 353 358 359 359

GFSCGP_925_thetae_036.txt.gz
Theta_e
326 327 328 328 329 331 332 333 334 335 335 334 336 339 338 346 350 352 355 355 354 353 350 348 348 348 348 349 350 351 351 351 352 351 350 348 346 344 343 346 348 352 354 355
324 325 324 326 326 327 328 329 332 334 333 332 336 338 339 344 351 352 354 354 355 354 352 350 349 349 349 350 351 353 353 353 354 352 349 346 344 342 343 347 350 355 357 357
324 324 324 324 325 327 327 329 330 332 332 331 333 336 337 339 346 349 352 353 353 354 353 352 349 349 348 349 351 353 355 355 355 352 351 349 346 345 345 348 353 356 357 357
324 324 324 324 325 325 327 326 327 328 330 334 335 339 339 338 342 345 347 353 353 354 354 352 350 349 349 350 351 353 355 357 357 355 350 350 346 346 346 348 351 352 357 357
324 323 324 324 324 325 325 325 326 327 328 331 333 336 337 338 339 342 345 349 353 354 354 353 351 348 348 350 351 353 356 357 357 357 351 351 351 346 347 348 351 354 355 357
324 324 323 324 324 324 323 325 324 326 327 330 333 335 337 338 340 340 343 347 351 353 353 353 351 349 348 349 351 353 356 359 358 357 357 354 354 352 349 351 352 353 353 354
323 324 324 324 325 326 325 327 328 327 327 329 331 334 336 336 337 338 339 343 350 353 353 353 354 353 349 349 351 353 355 358 359 358 357 357 356 356 355 355 354 353 352 351
327 326 324 325 326 327 326 326 326 328 327 328 329 333 335 334 335 335 337 337 345 351 353 353 354 354 353 351 353 353 355 359 359 358 358 358 358 356 355 355 354 354 352 351
328 328 325 325 325 326 328 328 326 325 327 328 328 329 330 332 334 335 335 336 339 349 352 353 353 353 354 354 355 355 356 358 358 358 359 359 358 357 355 354 356 355 354 353
328 330 326 325 325 326 327 327 326 326 329 329 327 329 331 332 333 334 335 337 338 343 349 350 352 352 353 354 355 356 357 358 358 357 358 358 358 358 357 357 357 356 355 355
327 328 329 326 326 326 326 327 327 327 326 328 329 328 330 331 334 334 335 337 338 341 346 349 350 349 350 352 354 355 357 358 358 357 358 358 358 358 358 358 358 357 356 357
327 328 331 328 326 325 326 327 327 327 330 327 329 328 327 328 330 333 334 335 337 339 341 344 346 347 349 351 351 352 354 356 356 357 359 358 358 358 358 359 358 358 357 357
326 327 331 331 328 327 327 327 327 327 328 331 329 327 329 330 330 332 333 334 335 337 340 342 343 344 347 349 351 351 351 353 354 356 357 357 357 357 358 360 358 358 359 359
320 328 330 332 331 328 328 327 327 327 330 329 330 329 328 327 330 329 330 331 333 336 337 339 341 343 343 346 350 352 350 351 352 353 355 357 358 358 358 359 359 359 359 360
320 328 327 329 326 325 329 327 328 329 329 330 329 330 330 329 330 330 330 330 330 332 335 337 342 344 348 347 349 353 351 350 351 354 354 357 359 359 359 359 360 360 360 360
316 325 323 326 323 323 325 326 327 328 329 330 330 330 330 330 330 330 331 331 332 333 332 332 336 345 350 350 350 350 352 350 351 354 356 356 359 360 360 360 360 361 360 360
315 318 322 327 325 323 326 326 327 327 328 329 331 330 330 330 330 330 330 331 331 332 333 334 335 340 344 346 348 350 352 351 352 354 357 358 360 361 361 361 361 361 361 361
315 316 319 323 324 327 326 326 326 326 327 327 328 328 329 329 329 329 330 330 330 331 332 334 334 335 336 339 339 342 347 353 354 356 357 358 360 361 362 362 362 362 362 361
312 315 317 321 322 324 324 322 324 326 328 327 328 328 328 327 327 329 328 329 332 332 333 334 333 332 333 335 336 338 345 350 354 357 358 359 359 359 360 363 363 362 361 361
311 313 315 317 321 324 323 323 323 325 332 330 334 334 337 337 330 329 329 329 332 332 332 333 331 331 333 336 338 342 345 348 355 356 357 357 358 359 360 362 362 361 360 360
311 313 314 314 317 319 320 325 330 330 342 337 337 339 340 343 343 343 343 342 340 338 335 334 335 335 335 338 341 343 345 349 352 353 354 356 358 360 360 361 361 361 360 359
313 313 313 314 315 316 316 317 321 326 326 332 333 332 335 336 338 339 341 345 345 343 336 337 341 338 339 347 348 348 356 350 352 353 355 357 359 358 358 361 362 362 361 362
313 312 313 313 313 314 316 317 320 320 322 324 329 330 334 336 338 339 342 347 348 342 342 346 342 344 346 351 349 352 354 353 354 355 357 359 360 360 359 361 362 361 361 359
311 312 314 314 313 314 315 315 317 317 319 323 325 326 329 334 335 338 345 351 347 350 355 354 355 353 356 356 355 355 357 356 356 357 359 360 362 361 361 360 361 361 360 360
312 313 314 315 315 315 314 314 315 317 317 317 320 326 328 329 336 340 350 352 352 357 358 358 358 356 356 356 358 358 357 356 357 359 359 360 360 360 362 361 360 360 359 358
311 313 314 315 314 315 316 315 315 315 314 321 323 328 329 330 339 345 352 353 355 354 350 349 348 347 345 345 347 348 353 358 356 356 355 354 355 357 359 359 361 359 359 359

GFSCGP_925_thetae_039.txt.gz
Theta_e
334 337 341 336 341 339 335 339 339 342 339 340 340 341 341 342 347 351 355 356 355 353 349 347 348 347 347 347 349 351 351 351 352 352 351 349 347 347 346 345 346 350 353 354
335 338 334 332 333 338 339 338 340 339 338 339 340 340 339 341 348 350 353 355 355 354 352 348 348 347 346 347 349 352 353 354 354 352 351 348 347 345 345 344 347 351 355 357
330 331 330 327 331 336 336 337 337 338 338 338 338 340 341 340 345 350 351 352 353 354 354 352 349 348 347 348 351 353 355 355 355 353 352 351 348 346 344 344 347 352 355 357
327 327 326 326 327 329 331 332 333 334 337 341 337 340 340 339 343 347 351 352 352 353 354 353 351 349 348 349 351 354 357 357 357 355 352 351 348 345 344 344 345 351 355 357
329 325 326 326 326 326 328 328 331 332 334 336 338 340 339 339 340 344 345 350 351 352 353 354 353 349 347 348 350 353 358 359 357 358 354 352 351 345 345 345 346 350 356 357
329 326 326 326 326 326 327 327 328 330 331 336 336 337 339 338 340 341 342 343 348 351 352 353 352 349 347 347 349 352 358 360 360 360 357 357 352 349 347 347 348 351 352 357
327 328 327 326 327 326 326 327 327 328 332 333 334 336 338 337 337 339 340 342 344 349 353 353 354 352 349 348 350 352 358 362 362 362 360 359 356 354 357 353 350 351 351 350
328 328 327 327 326 327 326 326 327 330 329 329 331 336 336 336 337 337 339 341 343 346 351 353 354 353 352 350 352 352 358 363 364 363 362 361 359 357 355 354 352 353 351 349
329 329 328 327 326 327 329 329 327 328 329 329 329 331 332 334 336 337 338 340 341 344 350 352 353 353 354 352 353 354 357 362 364 364 363 363 363 360 356 356 356 357 354 351
330 333 330 327 327 327 329 329 327 328 333 332 330 332 332 334 335 336 337 338 339 342 349 352 353 353 354 353 353 355 357 363 365 363 364 364 365 363 360 359 359 357 357 356
330 333 333 331 328 328 328 330 329 328 329 330 333 332 332 335 335 335 337 338 338 339 346 351 352 352 354 354 354 355 357 361 364 365 364 364 365 364 364 361 361 360 359 360
329 331 334 332 329 328 329 329 331 330 333 329 331 332 331 332 333 335 335 337 338 339 343 349 350 352 352 354 355 356 357 357 362 362 364 364 364 363 364 364 362 362 362 360
330 331 335 335 331 329 329 329 330 330 330 333 331 332 332 331 331 334 335 337 339 340 341 344 348 351 350 351 354 355 357 357 358 360 362 364 364 364 363 364 364 363 363 363
324 330 334 337 335 331 330 330 329 330 333 332 332 331 332 332 333 334 335 336 337 338 340 342 344 346 347 348 353 355 354 355 356 358 360 362 364 363 363 363 365 364 364 364
324 332 332 333 333 332 331 329 329 330 331 332 331 332 333 332 333 332 333 334 335 337 338 338 340 343 349 351 354 356 353 353 354 357 359 361 363 364 364 363 364 364 365 365
322 327 331 334 332 331 331 332 330 330 330 331 331 332 332 333 332 332 332 332 332 333 333 335 338 341 345 346 349 352 357 354 353 357 359 360 362 364 365 365 365 366 365 365
320 324 331 334 332 331 332 331 332 331 330 330 332 332 332 333 333 332 332 333 333 333 333 334 335 335 341 345 348 350 354 355 355 356 360 360 362 365 366 366 366 366 367 366
317 322 325 329 331 336 331 330 330 330 331 331 331 332 333 333 333 333 333 333 333 333 333 333 333 335 339 338 338 347 349 357 357 359 358 361 362 365 366 367 367 367 367 367
314 318 323 327 330 330 329 329 330 330 331 330 331 331 330 331 331 332 331 332 332 332 333 334 333 333 335 334 336 338 344 353 360 360 361 360 364 365 367 368 367 368 368 368
313 315 318 324 327 332 329 328 326 329 332 330 330 331 331 331 332 331 334 339 343 342 341 341 335 333 334 334 334 336 338 342 358 360 362 362 363 365 367 368 369 368 368 367
313 315 317 319 323 325 326 328 327 330 342 333 332 334 336 339 342 343 341 341 341 343 345 342 341 338 339 339 337 342 344 345 348 356 359 363 364 366 366 366 368 369 368 365
317 315 316 318 320 323 322 322 328 329 330 330 334 335 335 336 337 338 339 341 342 344 346 344 343 342 341 342 341 349 353 349 352 354 358 360 364 364 363 367 368 369 368 368
313 315 317 316 318 319 320 321 321 321 323 323 324 326 329 330 332 333 337 338 340 346 350 346 342 343 344 344 348 355 356 358 356 358 361 362 364 366 363 366 369 368 368 365
313 314 314 315 316 316 316 317 318 318 319 320 320 322 323 324 327 331 332 337 340 347 351 349 350 352 353 353 354 356 356 359 359 362 364 364 366 366 365 364 364 364 363 364
313 314 314 314 314 315 316 316 317 317 317 317 318 320 319 321 325 330 332 337 341 348 352 355 357 358 357 360 360 360 361 361 360 361 362 363 363 364 365 364 362 362 362 361
313 314 316 316 315 317 317 316 317 317 317 317 318 318 318 325 328 331 333 340 344 353 355 356 355 356 354 356 358 361 363 360 361 361 362 361 361 364 363 364 364 362 361 359

GFSCGP_925_thetae_042.txt.gz
Theta_e
334 333 336 335 338 341 342 341 339 343 344 341 341 341 343 343 344 354 353 355 353 352 350 349 348 347 348 349 351 350 350 349 353 353 353 353 351 349 348 347 345 352 352 354
335 336 334 334 336 339 341 340 336 339 341 342 341 341 339 344 345 353 355 356 355 352 351 351 349 348 347 349 352 353 351 351 354 354 354 352 351 349 348 347 346 348 351 354
336 334 333 334 336 336 341 340 337 338 341 342 341 342 342 342 342 347 353 353 354 354 353 352 351 349 348 351 352 354 353 355 355 354 353 352 350 349 349 347 345 349 352 356
335 334 333 334 336 333 339 339 338 338 340 344 340 343 345 340 343 348 350 351 354 355 354 352 352 350 349 350 352 354 355 355 357 354 354 354 352 351 349 346 346 350 350 354
337 334 333 334 334 332 331 332 337 338 337 338 339 340 341 341 342 348 349 351 351 354 354 354 352 350 349 350 353 355 356 357 359 355 357 353 353 350 347 347 345 347 352 354
336 332 330 328 330 328 328 331 332 333 335 338 337 340 343 341 343 341 346 351 351 353 354 355 352 350 350 350 354 355 358 358 359 359 353 359 354 351 348 346 348 350 357 355
335 335 329 327 327 327 327 327 330 331 334 335 334 336 340 339 341 341 346 346 351 352 354 356 356 354 351 351 353 355 360 360 360 361 359 353 360 351 352 350 345 351 354 357
332 334 333 327 327 328 327 326 329 333 332 331 333 336 337 337 338 338 342 343 345 349 352 355 357 355 352 351 352 355 361 362 363 361 362 358 357 360 349 354 353 348 353 354
331 331 331 330 327 328 327 328 327 327 329 329 330 332 332 336 337 338 337 342 344 347 350 353 357 355 353 351 352 353 358 362 363 362 363 363 357 361 358 352 355 355 350 355
329 331 330 330 329 327 328 328 327 328 332 334 330 335 335 336 339 338 339 339 343 345 349 354 356 356 354 352 352 353 356 361 363 364 363 364 363 359 359 356 356 355 358 351
326 330 330 331 330 329 328 329 328 327 328 331 333 333 336 339 338 339 339 340 341 346 349 352 355 356 355 353 352 353 355 361 364 365 365 364 365 363 361 359 358 359 355 360
329 327 331 331 331 329 329 328 330 332 335 331 334 332 333 336 337 338 338 340 340 343 349 351 354 355 356 355 354 354 355 358 363 366 366 365 365 366 364 361 360 360 361 357
325 331 332 332 334 331 330 329 329 331 330 336 334 331 334 335 338 338 338 339 342 344 349 351 353 354 357 357 356 355 355 356 362 365 367 367 366 366 366 365 362 361 361 363
322 329 333 335 336 334 333 329 330 329 333 332 333 333 333 333 332 338 340 341 342 347 348 350 351 354 355 356 357 357 357 356 357 363 366 367 367 367 367 366 366 363 363 362
325 332 332 333 333 334 330 329 330 331 333 334 332 333 335 336 336 337 339 341 343 347 346 350 350 356 357 357 358 358 358 358 358 358 363 364 365 367 366 366 367 367 365 365
322 329 331 334 333 333 335 331 330 330 330 331 332 332 335 336 337 338 341 340 342 343 342 343 341 349 354 362 359 359 358 359 359 360 361 363 364 365 367 366 366 366 367 366
320 325 329 334 334 334 336 334 331 331 331 331 334 335 336 337 337 338 337 337 335 334 336 338 340 346 351 349 353 360 358 356 359 360 362 362 364 365 366 367 366 366 367 367
317 321 326 331 333 339 335 334 332 332 331 331 332 335 337 339 339 337 336 335 338 335 335 340 336 341 338 338 341 348 357 358 357 360 359 363 365 366 367 368 368 368 367 368
315 317 323 330 333 334 334 333 333 332 333 331 334 333 332 334 335 337 334 333 333 335 339 339 338 336 339 340 344 349 351 359 362 359 363 360 365 365 367 369 368 368 368 368
314 317 320 326 330 334 334 331 330 331 333 334 332 332 332 332 333 344 346 343 343 344 346 349 345 345 345 345 342 353 353 357 361 360 360 363 360 365 367 368 369 369 369 369
315 316 319 322 326 329 330 327 329 333 341 337 338 337 333 337 343 343 341 341 342 344 346 345 346 347 345 341 343 348 349 348 357 361 361 361 364 362 366 367 369 370 370 370
316 316 318 320 323 327 324 325 332 334 330 328 330 331 335 337 336 335 335 339 340 343 344 348 349 349 346 343 345 350 352 349 346 346 362 364 365 365 365 368 370 370 371 370
314 317 319 319 320 326 323 322 322 322 324 324 324 324 326 329 328 327 332 336 337 341 344 346 353 348 347 345 347 353 349 354 353 355 361 364 366 368 365 368 370 371 371 371
314 315 316 316 317 319 318 318 318 319 319 319 319 320 320 323 323 324 328 333 337 340 345 345 353 361 361 355 355 356 357 357 362 362 366 366 366 368 368 367 369 369 369 371
313 314 315 315 316 317 316 316 317 317 318 318 318 319 319 320 321 322 329 335 336 342 343 348 357 364 366 362 362 362 362 361 365 366 367 368 367 368 369 367 367 368 368 368
312 313 315 318 317 319 319 318 318 318 318 318 319 320 320 320 323 325 328 332 337 343 344 353 357 357 359 356 361 362 363 364 365 366 366 365 364 366 366 368 366 361 364 364

GFSCGP_925_thetae_045.txt.gz
Theta_e
326 326 327 324 327 331 340 343 343 341 344 343 342 339 351 347 352 356 356 351 350 349 346 350 350 348 345 345 347 345 349 349 348 349 350 350 346 348 348 347 350 351 350 352
329 330 327 328 328 329 337 342 343 340 339 341 339 339 340 348 355 354 355 352 350 349 347 347 346 347 346 349 347 348 350 350 350 349 350 351 352 348 347 346 348 351 351 353
330 332 331 331 329 330 334 338 340 340 336 336 340 341 340 348 351 347 352 353 349 349 349 347 345 346 348 351 349 349 347 351 350 350 350 349 352 352 349 347 346 354 352 351
329 331 333 333 331 331 335 336 339 340 338 342 341 344 339 341 351 353 356 356 350 349 348 347 346 346 347 351 350 348 348 348 352 351 353 352 351 351 351 349 346 345 349 349
330 333 333 333 333 332 335 334 336 338 339 338 342 342 341 337 340 353 356 353 349 350 348 348 347 347 346 350 353 351 349 350 354 353 353 353 352 352 349 350 347 345 347 348
329 333 332 332 332 332 333 333 331 336 338 340 335 342 342 340 339 354 354 352 351 352 350 347 348 348 347 351 353 354 352 353 353 354 353 352 354 352 351 348 347 346 348 349
329 330 333 332 332 331 332 330 330 330 334 337 330 333 333 337 337 340 348 351 349 351 350 349 348 347 348 351 352 355 355 354 355 355 353 356 353 352 349 349 346 347 348 354
329 331 332 333 330 330 331 330 327 332 333 333 328 331 332 331 333 337 345 349 351 350 351 349 348 348 348 349 352 355 356 355 355 357 356 352 358 353 351 349 347 345 350 351
325 327 334 334 329 326 327 326 323 323 326 326 327 327 327 329 330 331 335 348 349 349 351 350 349 348 348 349 353 354 357 355 357 357 358 355 352 360 355 349 350 356 348 353
323 322 331 333 333 327 324 323 323 322 324 326 326 328 329 327 328 330 331 340 346 349 351 352 350 349 348 349 352 354 357 357 357 358 359 359 355 353 361 356 349 348 356 348
321 322 322 327 332 332 324 324 323 321 322 325 329 329 327 328 329 329 331 332 340 347 351 353 352 350 349 349 351 353 356 359 359 359 358 360 360 357 354 361 355 347 353 356
319 323 323 323 326 330 327 324 323 324 324 323 323 326 330 331 330 330 331 332 337 344 349 353 352 351 350 349 350 352 355 359 360 361 361 360 362 361 357 357 360 350 352 352
319 322 328 325 324 325 328 325 324 323 324 325 325 325 331 330 331 330 333 332 335 342 347 352 353 352 351 350 349 351 352 357 360 361 362 362 361 363 362 359 356 359 353 353
321 322 323 329 326 327 329 328 325 324 326 325 328 327 331 332 332 333 334 336 335 342 346 350 353 352 352 351 350 350 352 353 359 361 363 363 363 363 363 363 360 356 359 358
315 319 324 329 329 330 331 328 327 325 325 329 327 330 331 337 336 337 336 337 340 340 346 349 351 352 353 352 351 351 351 353 355 362 363 364 364 364 363 363 364 363 358 360
312 319 324 333 332 331 333 332 328 327 326 326 328 326 332 333 336 336 336 336 338 340 344 342 346 350 352 354 353 353 352 353 354 358 362 364 365 365 364 365 364 365 364 361
311 316 322 331 332 334 336 334 329 328 328 327 327 328 333 335 336 333 333 333 332 331 332 337 339 343 351 354 355 355 355 354 354 355 358 363 364 365 365 365 366 365 366 366
312 313 319 328 332 337 333 333 333 329 329 327 327 334 332 334 337 335 333 331 333 336 336 333 338 336 339 353 356 356 356 357 356 356 357 357 363 364 365 365 365 366 366 366
311 313 318 327 332 333 334 329 329 333 339 336 340 335 335 338 342 344 342 342 343 343 344 344 345 345 344 342 341 358 358 358 360 359 360 359 362 363 364 364 365 365 365 365
312 314 319 324 333 338 328 326 324 328 338 330 335 341 335 340 347 345 340 340 340 341 342 346 346 345 344 343 342 350 358 358 358 360 362 363 362 364 364 365 365 366 366 365
315 316 318 320 325 331 322 322 328 337 335 326 325 330 332 332 333 332 334 337 339 340 340 342 345 349 349 344 343 346 345 351 360 358 356 359 360 363 365 365 366 366 366 366
318 319 319 319 324 330 320 320 322 327 324 323 322 322 325 324 323 323 327 333 334 338 339 341 342 345 348 352 345 344 350 344 343 355 360 359 359 360 364 366 367 368 367 367
317 315 316 317 318 318 318 318 318 318 319 319 319 318 319 321 322 322 322 330 332 333 339 340 341 347 349 357 352 348 348 354 359 345 359 359 359 359 362 363 367 369 368 368
311 312 313 314 315 314 317 316 315 315 317 317 316 317 318 319 320 320 320 329 330 334 336 339 342 347 358 362 363 363 364 360 354 355 360 364 365 365 365 363 365 369 370 369
311 311 311 312 312 312 315 313 313 314 314 317 317 318 318 319 321 323 323 325 324 325 335 335 342 344 356 357 360 360 361 362 367 359 366 368 367 367 368 366 368 369 368 369
309 310 312 312 310 310 310 310 311 311 312 313 316 318 319 320 318 323 321 321 322 321 320 334 337 343 353 354 355 355 355 358 360 368 368 370 368 367 368 366 353 358 365 367

GFSCGP_925_thetae_048.txt.gz
Theta_e
318 318 320 320 320 322 330 335 338 340 342 350 348 350 350 356 355 356 355 353 352 350 348 347 347 346 346 347 346 345 345 346 348 346 347 346 345 346 346 347 350 349 347 345
323 322 320 324 322 322 325 329 336 339 339 342 347 349 349 355 355 355 355 354 353 351 349 349 348 347 346 347 347 346 346 345 346 344 344 345 344 345 345 347 347 350 349 348
324 327 325 326 326 324 325 327 329 339 338 337 343 345 351 349 353 353 353 352 351 349 350 349 349 348 348 346 347 347 347 345 345 345 345 344 342 343 344 347 347 349 350 351
324 325 327 328 327 326 326 326 328 334 338 340 339 347 343 349 353 353 353 352 351 349 348 349 349 349 348 345 347 347 348 347 347 347 346 346 348 350 346 346 347 347 351 352
322 326 327 328 328 328 327 327 328 332 336 337 338 342 342 348 358 353 349 346 345 349 348 346 348 348 346 346 347 347 349 349 348 348 348 348 349 350 351 348 348 347 351 352
322 324 326 328 329 330 329 330 331 331 332 338 337 339 340 353 357 353 348 347 346 349 348 346 346 345 346 347 347 348 351 350 349 349 349 348 348 348 350 350 350 348 347 351
322 322 325 329 330 330 330 329 334 333 334 335 333 333 336 348 352 351 349 350 349 349 348 347 346 344 346 349 348 348 349 353 351 351 350 349 349 349 347 349 349 349 347 348
321 322 323 326 330 332 330 329 331 337 332 331 327 334 334 330 335 350 349 350 351 345 346 347 346 345 345 348 350 349 349 351 353 351 351 351 351 350 349 349 350 347 346 346
320 321 326 327 328 330 330 330 324 322 322 325 327 327 326 326 326 348 351 352 352 348 346 347 346 346 346 348 351 351 350 349 352 352 352 352 352 351 351 351 349 348 347 345
318 321 322 327 327 329 328 325 327 318 328 324 323 324 330 326 325 325 350 353 352 348 349 346 346 347 346 347 350 352 351 350 351 353 352 352 353 354 352 351 351 348 346 348
314 316 322 322 322 330 325 327 325 324 318 325 322 325 321 324 324 324 335 350 350 348 350 346 347 347 346 347 349 352 352 352 352 352 354 353 352 351 355 356 352 349 348 350
315 319 323 323 322 321 332 321 321 323 320 318 320 325 325 323 324 324 325 346 348 348 348 346 348 347 347 347 349 351 353 353 352 353 354 355 355 353 351 355 358 355 350 347
315 322 323 323 320 320 321 328 320 317 317 319 323 324 321 323 325 327 327 327 346 348 347 347 348 347 347 346 349 351 352 354 353 354 355 355 357 356 355 352 353 357 356 352
315 319 320 324 323 321 322 323 322 321 321 321 321 323 323 324 325 330 325 327 334 346 346 348 349 348 347 347 347 350 352 355 355 356 356 356 357 358 358 356 353 353 356 355
313 317 314 315 317 320 322 327 325 321 321 323 322 324 323 322 326 329 329 329 338 347 349 351 350 349 348 347 347 349 351 353 357 357 358 358 357 358 359 359 358 356 354 355
310 313 312 313 321 325 327 331 330 324 323 323 321 323 322 327 330 334 336 335 339 346 350 352 351 350 350 348 348 348 350 352 355 358 359 358 359 359 359 360 360 359 357 355
311 310 311 319 326 330 332 326 331 326 323 322 324 322 331 334 339 340 328 330 335 338 348 352 351 350 350 350 349 348 349 350 354 357 357 359 359 361 360 360 360 361 361 359
311 311 310 317 323 334 327 322 323 329 328 328 334 335 335 343 342 341 342 344 344 343 342 340 338 341 350 351 350 349 349 350 351 353 358 359 361 361 362 362 361 361 362 362
310 313 310 321 329 331 327 323 322 322 326 322 328 337 342 340 339 339 337 339 341 343 343 341 340 340 345 350 352 351 350 350 351 352 352 359 360 362 363 363 363 362 363 363
311 313 311 316 331 335 324 322 321 325 325 320 322 324 330 335 338 335 331 336 337 338 340 341 346 348 345 343 348 353 353 353 353 352 353 354 357 361 362 363 363 364 363 364
314 316 316 318 331 329 319 320 322 328 327 319 319 321 321 322 323 323 329 330 334 336 338 340 344 346 350 351 341 346 352 355 355 356 355 355 355 356 360 361 362 362 363 363
318 320 318 319 327 329 316 319 321 316 316 317 317 317 318 318 320 320 327 327 331 334 336 340 343 347 359 359 348 342 343 345 350 357 357 359 359 358 359 360 361 362 362 363
315 313 316 315 319 316 314 318 316 313 314 313 314 316 316 317 319 320 323 322 321 328 330 336 340 346 354 362 359 360 362 359 358 349 352 358 360 361 362 362 362 362 363 363
310 310 311 309 311 311 311 311 311 310 311 311 311 313 316 316 318 319 319 319 319 319 319 330 336 339 345 357 358 358 359 360 363 361 354 357 360 359 361 362 363 364 364 365
310 309 310 310 309 310 311 311 310 311 311 311 311 311 315 316 315 318 317 317 317 317 319 324 332 336 339 351 354 353 353 353 358 360 365 361 358 361 362 361 363 364 365 366
310 310 311 312 310 310 309 309 310 312 312 312 311 311 311 315 315 317 316 315 316 317 319 322 330 336 336 342 352 353 351 348 352 356 357 362 366 367 364 358 352 358 363 366

GFSCGP_925_thetae_051.txt.gz
Theta_e
315 314 316 316 320 321 327 334 337 337 338 350 351 350 362 356 355 355 352 350 350 349 346 346 346 346 345 345 342 344 344 345 345 346 347 349 347 347 348 349 350 350 351 352
316 317 316 317 319 320 321 322 328 332 335 348 350 352 358 358 356 354 353 351 351 349 347 345 347 346 345 344 343 342 343 343 345 346 348 347 345 346 346 347 349 349 350 349
320 321 318 320 320 321 320 321 323 329 336 340 342 351 350 359 356 354 352 351 349 350 348 346 346 347 345 345 344 343 343 343 343 345 347 347 346 344 346 346 347 347 349 348
320 320 321 319 322 321 320 321 323 327 332 339 337 345 351 357 359 356 354 353 351 350 348 346 346 346 346 345 345 344 344 344 344 346 347 346 345 345 344 345 346 346 349 349
321 323 322 323 323 323 324 322 324 325 328 334 334 338 345 353 361 358 355 353 352 350 349 348 346 346 346 345 346 346 345 344 345 346 346 345 345 343 343 342 343 346 347 350
318 318 322 323 325 324 325 326 325 327 327 334 332 336 336 353 353 356 354 353 352 350 349 348 347 347 347 345 346 346 346 345 344 345 346 344 346 343 342 342 341 346 347 349
321 321 320 323 324 325 326 324 327 331 332 334 329 334 336 343 345 348 352 352 350 348 348 347 348 347 348 346 346 346 346 346 346 345 346 346 346 345 344 342 343 346 347 348
321 324 321 321 325 325 326 325 328 333 333 336 328 333 334 339 342 344 347 349 348 345 343 347 345 348 348 347 345 346 347 347 347 347 347 347 347 346 346 344 344 348 349 348
321 321 317 318 322 326 327 330 326 326 320 327 330 326 328 335 342 344 346 347 346 346 344 346 346 346 345 346 345 346 347 348 348 348 348 348 348 347 347 346 345 345 348 348
317 320 317 319 321 324 328 325 329 322 329 326 323 326 334 327 329 344 347 348 346 345 345 346 346 344 343 345 346 346 347 348 349 348 348 349 348 348 348 348 347 345 348 348
315 316 319 320 321 322 325 329 327 327 324 334 324 325 320 326 326 335 341 344 346 346 347 345 344 345 344 345 347 347 346 347 349 350 349 349 349 349 349 349 348 348 347 348
315 318 322 322 321 319 319 325 320 331 328 318 328 331 321 321 321 331 341 344 346 346 348 346 343 345 345 344 347 348 347 347 347 350 350 350 350 350 350 350 349 348 347 348
316 319 319 322 318 319 319 321 325 320 318 322 331 330 320 319 320 321 324 331 342 347 348 347 344 345 345 345 346 348 349 349 348 348 350 351 350 350 351 352 352 351 350 350
314 317 318 321 319 316 318 317 317 318 325 320 323 326 320 320 320 320 321 324 336 345 347 347 346 345 345 346 345 348 350 350 349 349 350 351 352 352 350 350 350 352 351 352
313 315 315 314 314 314 315 316 316 319 320 324 323 317 318 319 320 322 328 325 326 332 345 346 346 346 345 345 345 348 349 351 350 351 351 351 352 353 353 352 351 350 351 351
310 313 312 314 313 313 315 316 318 319 324 318 318 319 317 332 339 341 338 327 325 333 344 346 346 346 345 345 345 347 349 350 352 351 351 352 352 353 354 354 354 353 351 352
311 311 313 314 314 318 323 324 325 325 322 326 321 326 332 342 342 340 341 338 330 339 344 345 345 346 345 346 346 346 348 350 353 353 353 353 353 354 355 356 356 356 354 353
311 313 314 312 313 333 323 321 322 321 320 321 326 331 341 340 336 335 336 340 343 342 342 343 344 346 346 346 346 346 348 350 352 354 355 355 356 356 355 356 357 358 357 356
310 313 316 313 319 327 325 322 321 321 319 318 320 322 332 337 336 335 331 336 339 341 343 341 342 346 347 347 347 346 347 349 351 353 355 356 357 357 357 358 357 358 358 358
310 310 315 317 325 339 325 319 318 320 322 317 317 318 322 332 337 331 326 331 333 339 340 341 345 344 348 348 347 346 346 347 349 351 354 356 356 357 358 359 359 359 359 359
314 314 314 318 322 327 320 317 318 323 320 315 315 315 316 321 319 319 322 320 326 331 336 343 351 348 343 344 348 347 347 347 348 349 350 353 356 357 359 359 360 360 360 360
316 317 319 320 327 331 316 319 320 315 314 312 311 311 314 315 318 320 319 318 319 320 331 336 347 353 347 341 347 347 349 350 352 351 350 351 352 356 358 359 360 361 361 362
315 312 314 314 318 316 312 317 311 311 312 312 310 310 310 315 315 317 316 315 316 318 321 331 336 346 353 358 359 358 358 356 351 353 354 354 353 353 353 357 359 359 360 360
310 310 311 311 310 310 310 311 311 311 311 312 311 310 310 312 315 316 314 314 315 316 320 327 332 334 341 351 352 353 355 359 361 362 359 355 357 358 358 356 357 358 359 359
310 310 309 311 310 311 312 311 311 311 311 313 313 312 312 311 314 314 314 313 314 315 323 327 330 331 332 346 351 350 349 346 347 355 358 360 364 361 358 358 360 360 360 361
308 308 310 313 313 313 311 311 311 311 312 312 314 313 312 312 313 314 314 313 315 314 324 328 329 329 328 329 343 349 350 349 348 347 348 354 354 362 363 358 351 354 360 362

GFSCGP_925_thetae_054.txt.gz
Theta_e
313 313 315 315 319 322 324 330 334 334 335 349 349 352 360 354 351 349 345 342 340 339 341 345 346 346 347 347 347 347 344 340 343 343 344 346 346 346 347 345 347 348 348 349
314 315 314 314 314 320 321 322 328 330 334 347 347 350 360 356 353 351 350 349 347 345 343 345 346 346 346 345 345 346 345 341 343 343 344 345 347 347 347 347 348 349 348 349
315 316 315 315 316 317 319 320 321 329 330 337 346 348 358 358 354 352 350 349 349 349 347 345 345 346 345 346 343 344 345 342 343 343 344 345 347 346 346 347 348 349 349 349
318 318 317 316 317 317 316 320 323 322 327 332 339 344 345 360 359 356 353 351 349 348 347 345 345 345 345 344 344 344 344 344 342 343 343 345 347 346 345 345 346 347 349 349
322 320 320 317 316 317 317 319 320 321 326 327 328 336 334 352 363 358 355 352 350 348 348 347 345 345 345 345 344 343 344 343 343 342 343 344 346 346 345 344 345 346 346 348
315 317 320 321 319 318 321 323 321 323 322 329 326 332 335 352 356 358 355 353 351 349 347 347 345 344 345 345 344 344 343 343 343 343 344 344 344 345 345 343 343 344 345 345
320 318 317 319 320 320 321 321 323 326 329 330 327 328 332 332 346 352 355 354 352 350 348 348 346 344 345 345 344 344 344 343 343 343 344 344 344 344 345 343 342 342 342 344
320 322 319 318 319 321 322 321 322 327 328 331 326 331 332 330 336 347 348 351 350 350 349 348 347 346 345 345 345 345 345 344 344 343 344 344 345 344 343 343 342 339 339 340
318 320 317 317 319 320 323 324 321 324 322 326 331 327 328 329 333 339 342 345 350 350 349 348 348 347 346 346 345 344 345 344 345 344 344 345 345 344 344 344 344 341 338 340
316 318 316 317 318 319 321 322 326 322 332 327 326 326 334 331 333 337 341 343 346 348 348 347 347 347 347 347 346 344 345 345 345 345 345 345 345 345 344 344 345 345 342 342
314 314 317 318 320 320 320 322 325 324 324 328 328 328 323 330 331 332 339 342 344 346 347 344 343 345 346 347 347 344 345 345 345 345 346 346 346 345 345 346 346 345 345 343
315 316 319 318 317 318 319 321 322 330 329 324 324 328 322 325 326 328 329 340 343 345 344 344 343 343 344 346 347 345 345 345 346 346 346 347 346 346 346 346 346 346 346 345
314 318 315 319 317 316 318 315 314 314 319 328 331 329 322 319 320 321 325 330 337 342 344 343 343 344 344 343 344 345 345 345 346 347 347 347 347 347 347 347 347 347 346 346
313 311 315 318 317 314 316 316 315 315 317 326 328 328 323 325 320 319 320 320 325 342 344 344 344 343 344 344 344 345 345 345 346 347 348 348 348 348 348 347 347 347 347 347
309 310 311 312 314 315 314 315 315 315 316 319 324 324 323 322 322 318 321 325 325 325 343 345 346 343 343 344 344 346 346 346 346 346 348 348 348 348 348 348 348 349 349 348
307 309 312 313 313 313 315 315 315 316 317 317 319 319 323 338 338 339 339 340 341 329 327 343 346 346 343 344 344 346 347 347 347 346 347 348 349 349 349 348 348 349 350 350
308 309 314 313 312 313 319 317 321 321 319 322 321 321 326 339 337 335 335 338 341 342 334 325 342 345 344 344 344 346 347 348 348 348 348 348 349 350 350 350 350 349 349 349
307 308 313 314 315 322 323 321 320 319 319 318 319 322 338 337 334 331 327 331 335 340 342 334 336 344 344 344 344 346 347 348 349 349 349 349 349 350 351 351 352 352 351 350
305 310 314 314 318 321 325 320 320 321 319 316 316 317 320 328 333 333 322 322 325 331 340 341 341 343 344 344 344 345 347 348 350 350 350 350 351 351 351 352 353 353 353 353
308 310 311 317 321 338 325 316 317 318 321 315 313 313 317 331 327 323 320 320 322 326 337 347 341 343 344 344 344 345 347 348 350 351 351 352 352 352 353 352 353 354 355 355
312 313 312 314 321 322 315 315 317 325 319 313 312 312 313 318 319 320 318 319 323 326 333 347 346 342 344 345 344 345 346 348 349 350 353 353 354 354 354 355 355 355 356 356
315 315 318 317 322 328 312 315 319 314 311 311 312 311 311 313 316 317 316 318 325 327 330 335 350 351 342 344 345 345 345 346 347 349 351 352 353 355 355 356 356 357 357 357
316 313 312 313 315 312 311 312 311 310 311 311 311 312 311 311 314 316 315 316 325 329 330 330 334 346 349 352 346 349 347 348 348 347 348 350 353 354 356 356 357 358 358 359
311 309 311 311 312 313 312 312 311 311 310 311 312 312 311 311 312 314 314 315 318 323 327 328 328 329 333 345 350 353 357 351 352 352 350 349 349 350 354 355 357 358 359 359
310 309 308 310 312 312 314 315 313 312 311 313 312 313 312 313 312 313 314 314 315 321 324 324 325 325 326 332 345 347 347 348 353 356 358 358 355 355 354 353 354 356 357 358
311 309 311 312 313 314 314 314 314 313 313 313 314 313 313 314 314 313 313 313 314 318 322 322 321 320 319 319 327 341 347 347 346 346 347 350 352 359 356 355 353 355 356 356

GFSCGP_925_thetae_057.txt.gz
Theta_e
317 318 322 319 320 322 327 330 330 342 344 347 349 349 360 355 352 352 350 349 349 347 343 344 346 347 348 349 348 347 347 344 343 344 344 345 345 346 347 345 346 346 347 347
317 317 317 317 317 320 323 328 333 333 337 346 348 349 354 358 355 352 351 349 349 346 344 345 346 347 348 348 348 348 347 345 341 344 345 347 348 348 350 347 345 347 347 348
319 318 317 316 316 318 321 324 328 333 335 337 346 348 351 358 356 354 349 347 346 345 345 346 347 347 347 348 349 348 348 347 341 344 346 345 346 346 348 349 348 347 348 348
323 321 318 318 318 317 319 320 324 327 329 342 342 353 350 354 361 357 355 351 347 345 343 343 346 347 347 348 348 348 348 347 346 341 346 346 347 348 348 350 349 347 347 348
325 322 321 320 319 318 318 318 318 323 329 330 334 347 347 350 362 360 357 354 352 349 346 345 344 345 346 347 347 347 347 347 346 345 345 347 347 348 349 348 347 347 347 348
319 322 323 322 320 318 318 321 320 319 322 332 335 337 343 347 355 358 357 355 354 352 351 349 346 345 345 346 347 346 346 346 346 345 344 345 347 348 348 348 348 349 350 349
321 320 320 323 323 321 320 320 324 325 322 329 333 336 337 339 344 350 355 356 354 353 351 351 350 348 347 347 347 347 346 346 346 346 346 344 345 345 346 348 347 347 348 350
323 319 320 321 323 324 322 323 323 327 323 320 328 335 336 334 334 341 347 351 353 354 352 351 350 349 349 348 348 347 346 347 346 345 346 345 344 347 346 347 346 347 346 347
323 323 319 319 320 322 324 325 323 323 327 326 322 329 332 334 336 336 338 349 353 354 353 352 351 349 349 348 349 348 348 347 346 346 346 347 346 346 347 346 345 347 345 346
315 314 318 319 320 321 324 324 326 325 325 327 325 327 330 336 336 337 337 345 350 352 353 352 351 350 348 348 348 348 348 348 347 346 346 347 347 346 346 346 345 345 346 343
315 313 312 316 323 324 324 325 326 327 326 326 326 327 330 332 338 338 338 340 344 349 352 352 352 350 349 348 348 348 348 348 348 347 347 347 348 348 348 348 347 345 343 344
315 313 314 315 319 319 320 324 325 329 331 330 329 326 329 333 335 336 337 340 341 345 350 351 351 350 350 350 349 348 348 348 348 348 347 347 348 348 348 348 348 347 344 344
315 315 315 310 314 319 321 320 322 324 327 333 331 328 328 330 330 334 336 336 342 347 349 351 351 352 351 351 350 349 348 348 348 348 348 348 348 348 349 348 348 348 346 344
314 314 313 313 312 314 318 318 317 320 328 330 332 331 329 329 331 332 331 331 333 341 347 350 350 352 351 351 351 351 349 348 348 348 348 349 349 349 349 349 348 349 347 345
313 311 310 309 309 310 313 314 317 318 323 327 329 331 332 333 333 332 333 332 334 333 337 348 350 353 352 351 351 351 350 349 348 349 349 350 349 349 349 350 350 350 349 347
312 310 310 310 308 312 313 313 315 316 319 321 323 326 325 332 339 339 342 343 344 345 343 338 348 350 353 351 350 350 350 349 349 350 351 351 351 351 351 351 351 350 350 350
311 311 310 308 314 315 317 316 316 319 322 321 327 328 331 335 341 337 336 336 339 342 344 346 341 348 351 350 349 349 349 349 349 350 351 352 352 352 351 351 352 352 352 352
310 310 311 310 310 319 317 321 320 323 322 322 324 327 331 341 338 333 330 330 333 335 338 342 346 343 349 347 347 348 349 350 350 350 350 351 352 352 352 352 352 352 352 353
309 311 310 310 317 321 324 322 323 325 323 318 320 321 323 328 338 337 325 323 328 332 337 343 345 346 336 348 348 349 350 351 351 351 351 351 352 353 353 353 353 352 352 352
309 311 312 310 318 325 322 317 316 320 328 316 317 319 321 334 344 333 321 321 329 335 340 346 351 347 338 348 348 350 351 352 353 352 352 352 352 352 353 354 354 354 354 354
311 311 312 311 314 317 314 312 315 328 324 316 317 317 319 323 322 320 319 323 332 336 339 351 348 347 350 349 349 351 352 353 352 353 353 353 353 353 354 354 355 356 356 356
310 312 313 312 315 318 310 312 321 317 315 315 317 317 318 318 319 319 318 322 327 329 333 343 352 349 349 348 350 352 354 352 353 354 354 354 354 354 355 355 356 356 357 358
316 314 317 317 317 311 311 312 313 314 315 314 316 317 316 315 316 318 319 319 323 323 322 329 343 346 352 351 350 352 353 353 353 355 356 356 356 356 356 358 358 358 359 358
309 309 311 310 312 312 313 314 314 315 315 313 315 316 316 316 315 316 317 320 321 323 322 320 321 328 339 348 351 354 355 352 353 354 356 357 358 358 358 358 358 359 359 360
310 309 309 311 313 311 311 314 316 317 315 315 315 315 315 317 318 317 317 318 320 321 323 321 320 320 322 328 341 347 349 357 355 354 354 354 355 356 358 358 358 359 359 360
309 312 312 313 314 315 312 311 312 315 317 316 316 316 316 317 318 317 318 317 318 319 320 323 320 319 320 322 327 333 340 349 350 353 356 354 359 355 356 356 350 356 357 358

GFSCGP_925_thetae_060.txt.gz
Theta_e
320 323 323 323 323 324 326 328 330 341 348 352 353 353 359 356 356 357 357 355 352 351 348 346 345 344 343 345 347 347 345 345 346 345 344 345 347 349 350 350 352 354 353 354
320 320 322 323 322 322 323 329 332 332 343 351 352 352 351 358 355 356 357 356 353 351 349 347 347 345 344 345 346 347 347 347 347 343 343 344 347 348 349 351 353 354 354 355
322 322 320 320 322 322 322 324 329 332 335 342 350 353 352 353 356 354 354 354 353 352 351 348 348 346 345 345 347 348 348 347 348 342 344 348 350 351 353 353 351 354 355 355
323 323 321 320 321 321 322 321 322 329 334 341 345 356 352 351 358 357 355 355 354 352 350 349 348 347 346 346 348 349 349 349 349 345 343 349 349 347 347 349 348 351 355 355
326 324 324 322 322 321 321 321 321 322 330 334 340 350 348 349 355 359 357 354 353 352 350 349 348 348 347 346 348 350 351 351 349 348 344 347 348 344 346 348 351 353 356 356
324 325 325 325 324 322 322 321 321 321 321 330 335 342 347 349 350 352 356 354 353 351 350 349 347 348 348 347 347 349 352 353 352 352 348 347 347 346 346 350 350 350 350 353
321 322 324 325 325 325 322 323 326 325 322 320 328 336 340 342 346 347 351 354 354 354 352 350 349 347 349 348 348 349 352 354 353 352 351 347 348 349 350 351 349 348 348 349
320 320 320 323 326 326 324 325 326 328 326 323 322 329 335 337 339 344 347 352 354 355 354 353 351 348 347 349 349 349 350 353 353 352 352 350 350 349 350 351 349 349 347 347
319 319 322 323 323 326 327 327 325 326 327 327 324 323 328 334 337 339 342 347 350 352 353 354 354 352 350 348 349 350 351 353 352 351 353 353 351 350 348 349 350 349 349 347
315 315 318 322 322 324 326 327 327 327 329 331 329 327 324 333 337 338 340 340 346 349 352 353 354 353 352 350 349 350 350 352 352 351 352 352 352 352 350 350 351 351 349 351
313 313 314 315 322 323 325 327 328 327 327 329 330 328 327 328 331 337 338 340 341 348 352 353 353 352 352 351 349 350 351 351 352 351 351 351 351 351 352 352 353 353 353 351
313 313 315 314 316 323 323 326 327 330 331 328 330 329 327 328 329 333 337 339 340 342 348 352 352 352 352 352 350 350 350 351 351 351 353 352 352 351 351 353 352 354 354 353
314 312 314 314 313 315 319 323 327 327 329 332 332 330 329 330 333 331 333 336 340 341 343 348 351 353 352 352 352 350 350 350 350 351 351 351 352 352 351 352 353 354 354 355
312 310 313 314 314 314 320 324 324 326 330 331 332 332 331 330 331 334 336 336 337 340 345 347 351 351 352 353 354 353 350 349 350 350 351 351 352 352 351 352 353 354 354 355
313 313 312 311 310 310 312 314 317 321 326 330 330 331 333 331 330 331 333 336 336 334 339 345 350 352 355 354 355 354 352 351 350 352 351 352 354 353 352 353 354 354 355 355
313 314 311 311 310 309 309 311 314 316 322 324 326 329 330 333 333 338 338 342 342 341 342 339 347 350 353 353 355 356 355 353 352 354 354 354 355 355 355 355 355 356 355 356
312 312 312 311 309 311 313 314 317 318 320 322 326 327 329 331 334 341 340 339 340 340 342 345 346 345 348 350 352 355 357 355 354 356 355 355 357 357 357 356 357 357 357 356
312 313 312 311 311 311 310 313 317 318 321 322 324 325 329 333 340 339 337 338 340 341 342 343 344 345 344 346 348 352 354 356 356 357 357 357 358 358 358 358 359 358 357 357
309 313 311 311 311 310 315 322 323 324 321 324 326 327 328 330 341 344 336 336 338 342 344 345 345 345 346 346 346 349 352 355 356 358 358 358 359 359 358 359 359 358 358 358
309 311 314 312 313 316 321 317 316 320 331 324 323 326 328 331 338 339 330 330 337 341 343 346 348 350 351 350 346 348 352 353 357 357 358 358 359 359 359 359 359 359 358 358
313 313 315 313 313 314 316 315 315 328 327 322 323 325 328 335 331 326 322 326 328 331 339 346 353 355 353 352 346 352 353 354 356 355 355 357 358 359 359 359 359 359 358 357
313 315 314 314 314 316 315 316 318 317 318 317 319 321 322 324 322 320 321 322 325 326 329 342 355 354 350 346 345 356 357 355 355 355 355 358 358 357 358 360 360 360 360 360
313 313 315 314 315 315 313 313 312 313 316 317 316 319 319 320 319 318 319 321 321 323 323 323 343 354 355 351 351 354 357 356 357 357 358 358 358 358 358 359 361 361 361 360
307 308 314 312 314 312 313 313 315 316 317 317 316 317 317 320 319 319 318 318 319 319 323 322 324 332 347 355 357 355 356 356 357 359 359 359 360 360 359 360 361 360 360 360
305 306 307 309 310 311 312 312 314 316 317 317 317 317 318 319 320 318 318 318 319 319 320 324 323 325 330 340 345 353 358 357 358 359 360 360 361 360 361 361 360 361 360 360
309 311 312 312 310 311 311 310 311 312 313 312 312 313 314 314 317 318 319 319 319 320 322 325 324 325 326 327 331 335 346 359 357 358 358 358 359 361 361 361 359 357 356 359

GFSCGP_925_thetae_063.txt.gz
Theta_e
327 328 326 328 329 328 327 328 331 336 351 352 353 356 362 356 355 358 358 355 354 353 349 346 345 344 343 343 344 345 345 347 347 348 348 347 348 348 349 350 353 353 354 354
324 324 325 325 326 325 325 327 329 333 341 351 352 354 354 355 355 357 358 356 354 353 351 347 346 344 343 344 345 346 346 348 348 347 346 346 347 348 348 347 353 354 353 355
327 325 324 325 325 325 325 326 328 333 334 346 351 356 354 361 355 356 356 356 352 353 353 351 347 345 344 345 346 348 348 349 348 345 345 346 347 349 348 350 352 353 354 355
325 325 324 324 324 326 327 325 325 328 335 340 345 359 360 354 357 356 357 357 355 352 352 352 350 347 345 344 346 348 349 350 350 346 344 347 348 347 347 349 348 351 354 354
326 325 325 325 324 324 326 325 324 324 326 335 339 346 357 355 361 356 356 356 355 354 351 352 351 349 347 345 346 347 351 351 349 348 345 346 349 346 346 347 351 350 354 355
324 327 325 325 325 324 325 324 325 325 324 326 335 341 349 351 351 354 355 355 355 354 353 351 349 349 349 346 346 348 352 354 353 351 344 349 348 348 344 346 352 349 353 354
319 321 324 326 326 325 325 326 327 327 326 325 325 335 341 346 349 349 353 354 354 354 354 352 351 350 350 349 348 349 354 356 355 354 349 350 350 348 351 350 349 348 346 347
319 321 321 322 326 327 326 327 329 332 329 327 326 326 334 338 344 346 347 351 353 353 353 353 352 350 351 351 351 351 354 358 357 355 353 349 350 347 347 349 348 348 346 346
317 318 322 322 322 325 328 328 327 328 329 330 328 326 326 333 338 345 347 350 351 353 353 352 352 350 351 351 352 352 354 358 358 355 356 356 351 347 345 348 349 352 348 347
316 319 321 320 322 325 326 328 328 327 332 333 330 330 327 327 332 337 342 345 348 353 353 353 353 351 350 351 351 352 353 358 358 356 357 356 355 352 349 351 355 351 350 349
315 316 318 317 321 324 324 327 329 330 329 331 333 331 331 329 329 334 338 342 345 351 351 352 353 352 350 350 351 352 353 355 356 357 357 355 355 352 351 354 354 353 353 353
316 315 317 317 317 317 319 322 322 331 333 330 330 331 331 331 329 332 337 339 340 343 348 350 351 353 353 353 351 351 351 352 355 356 357 356 356 353 352 353 354 355 356 355
315 316 318 317 316 317 317 322 325 326 327 333 331 331 331 330 330 330 331 334 340 342 346 349 350 353 353 354 354 352 351 351 352 355 355 356 356 356 353 355 354 355 356 357
313 316 318 317 317 317 318 317 322 325 328 328 331 331 331 331 332 333 333 334 337 342 346 345 349 351 352 354 357 356 352 351 351 352 353 354 356 356 355 354 356 356 357 358
313 314 314 314 314 315 315 317 321 323 328 331 329 331 332 332 331 333 335 336 337 339 341 343 344 351 361 358 359 357 353 353 351 352 352 354 357 356 356 354 356 356 358 358
312 313 314 317 315 314 314 314 315 320 324 326 328 331 331 331 333 332 334 337 342 342 339 340 345 349 352 355 360 359 357 355 353 354 353 353 356 357 357 356 356 358 359 359
315 318 315 316 314 314 314 313 313 315 318 321 325 328 329 331 333 338 337 341 341 341 342 344 345 346 349 352 355 358 359 356 355 357 355 355 356 358 358 357 358 359 360 360
315 316 317 319 315 317 314 313 315 316 316 319 321 323 327 328 330 333 341 342 342 342 343 344 344 344 345 348 351 355 357 359 358 357 360 357 359 360 360 360 360 361 361 361
311 312 317 316 314 313 313 321 324 325 325 318 321 322 325 326 327 331 340 339 340 343 346 346 345 345 345 345 346 351 355 360 360 362 359 361 360 362 362 362 362 362 363 363
311 312 315 313 314 315 315 320 318 322 327 328 323 324 327 328 331 331 334 334 337 338 340 344 347 349 349 349 348 347 352 356 362 363 362 362 361 363 364 364 364 364 364 364
317 317 317 315 315 314 313 317 316 326 326 323 324 326 329 331 333 330 330 332 333 335 336 334 343 355 356 354 351 351 351 356 359 361 362 363 363 364 365 365 365 365 365 361
315 318 317 317 316 315 318 317 317 321 319 320 321 323 323 324 325 324 327 327 327 331 333 332 337 348 362 357 355 358 355 356 358 360 361 363 364 363 364 365 366 366 366 365
314 315 317 315 314 316 316 316 316 316 317 316 320 318 320 321 322 321 322 323 323 325 328 328 329 335 340 354 356 360 356 360 359 361 362 362 364 365 363 365 366 365 365 362
313 309 314 314 313 313 310 313 312 314 317 315 318 318 319 320 321 319 319 320 321 322 325 326 327 329 330 332 342 351 361 359 362 362 364 363 364 364 363 364 364 363 362 363
307 304 308 312 310 308 309 310 310 312 315 316 316 316 317 318 319 319 320 321 322 323 324 323 324 326 327 327 330 334 343 358 360 362 362 363 362 362 363 362 362 361 360 359
308 308 310 311 308 309 310 308 308 310 312 312 313 312 313 313 315 317 320 321 322 323 323 324 323 324 325 325 326 328 332 346 359 361 362 361 361 362 362 362 359 359 359 359

GFSCGP_925_thetae_066.txt.gz
Theta_e
330 332 332 332 328 330 329 328 330 332 335 344 347 357 354 351 351 350 355 357 354 352 351 349 347 343 345 344 344 344 347 350 348 350 352 350 349 348 349 350 352 353 354 354
330 332 331 326 329 329 330 330 328 329 332 346 357 356 351 349 348 349 354 354 355 352 350 350 347 344 345 345 345 347 346 350 348 352 350 348 349 348 349 350 355 352 354 355
326 326 327 327 326 327 327 327 327 328 331 343 346 359 355 348 350 354 354 351 352 354 353 352 349 346 345 346 347 348 347 351 349 350 348 348 348 351 349 354 353 354 353 354
329 328 327 325 326 327 327 327 326 327 328 334 337 356 358 356 359 351 348 353 351 353 353 352 350 348 345 347 349 348 350 353 348 348 347 348 349 349 348 354 353 351 354 354
327 327 327 327 326 326 326 327 327 326 326 328 333 338 355 358 354 355 349 353 350 352 353 352 350 349 346 348 350 350 351 353 350 347 349 348 348 349 351 347 352 354 353 354
323 325 326 326 325 325 325 325 327 327 326 327 327 333 339 359 353 348 349 353 352 350 352 353 350 349 348 348 349 352 352 352 352 346 349 348 347 351 348 347 352 356 354 354
317 320 325 327 326 325 326 325 327 329 328 328 326 326 334 342 350 347 349 354 354 353 352 354 354 352 350 348 349 351 354 354 353 352 346 353 346 347 351 350 353 351 356 353
321 321 319 323 327 327 326 326 328 331 329 328 329 328 328 330 350 351 351 352 352 355 354 353 354 353 352 350 349 350 355 355 355 356 349 348 352 347 349 352 348 351 347 351
319 318 320 321 322 325 327 329 326 327 328 330 329 329 328 329 331 352 348 350 349 352 354 354 354 352 354 352 350 351 354 356 357 355 355 349 353 352 349 349 350 348 349 349
318 318 319 320 322 323 323 325 328 328 332 334 330 333 331 331 331 335 350 353 352 351 347 352 355 353 354 353 353 351 354 357 358 356 357 355 349 352 349 345 350 350 350 346
317 317 317 318 321 322 323 325 327 328 330 331 332 332 333 337 332 333 350 349 346 348 347 351 345 353 353 353 354 353 354 358 360 359 357 356 354 350 347 349 344 352 349 355
317 316 318 317 318 319 319 324 325 330 333 332 331 331 331 333 333 332 333 347 345 348 346 344 343 349 354 354 354 355 355 357 360 361 359 358 358 355 352 347 353 356 356 351
316 317 318 318 318 318 318 318 320 322 324 333 335 331 330 332 333 334 332 334 346 350 346 349 352 355 354 353 354 355 355 355 359 361 360 359 358 358 356 351 351 356 354 356
313 314 317 320 320 319 319 318 318 319 323 324 325 330 334 333 332 334 334 335 337 347 350 352 355 354 356 354 353 354 355 355 355 360 360 360 359 359 357 356 350 355 358 356
313 314 314 314 315 315 316 317 318 319 320 326 326 326 331 335 336 334 339 341 338 338 342 346 355 351 355 358 356 355 354 354 354 356 358 360 360 359 359 356 356 354 354 357
315 314 313 313 314 315 317 317 317 317 319 320 322 326 328 332 334 335 339 345 346 347 346 350 351 356 359 359 360 358 356 355 353 354 357 358 359 359 359 358 357 358 357 358
315 318 318 318 314 313 316 316 317 316 317 319 324 325 328 329 334 334 338 341 344 345 347 348 348 349 354 354 358 361 359 356 355 355 356 356 358 358 359 359 357 359 359 359
313 313 319 317 315 319 315 315 315 316 316 316 318 320 323 325 330 330 332 336 342 346 348 349 346 347 347 349 346 361 360 358 359 356 358 356 357 359 360 359 359 357 360 360
312 313 319 318 314 314 314 315 320 324 323 317 326 326 322 320 322 330 336 340 340 340 343 344 345 347 350 351 349 349 361 360 359 361 357 359 356 359 360 361 360 359 359 361
314 313 318 317 315 315 313 318 318 318 321 326 326 329 330 332 322 332 332 333 335 336 337 339 338 340 349 353 351 351 351 363 361 358 361 360 358 359 361 361 361 360 360 361
318 319 318 318 317 312 316 317 317 321 322 322 321 323 326 329 331 329 328 330 329 329 333 335 336 339 346 347 353 355 354 354 363 361 359 361 363 359 362 362 362 362 362 363
317 317 319 317 320 315 318 316 318 320 318 317 319 319 322 322 324 325 326 326 326 327 329 332 332 334 339 340 342 351 359 354 354 364 362 364 361 365 363 365 365 364 365 365
318 316 319 318 316 318 315 314 314 314 315 316 318 318 320 321 322 323 323 323 323 325 328 328 328 329 331 331 336 341 353 361 355 358 364 363 366 364 364 366 367 367 366 366
311 308 313 313 313 314 312 312 311 311 312 315 318 318 319 321 321 323 322 322 323 324 325 324 325 325 326 327 328 332 340 345 362 358 367 364 367 367 365 365 367 368 367 367
309 307 308 310 311 309 310 309 307 308 310 311 313 315 317 318 319 319 320 321 322 323 324 323 323 324 325 324 324 326 332 339 356 366 366 365 366 366 367 364 367 367 367 367
308 308 310 311 306 307 307 307 306 307 309 310 312 313 313 314 317 316 318 319 321 323 322 323 323 323 323 322 323 325 328 334 346 364 366 366 364 365 366 365 364 366 367 365

GFSCGP_925_thetae_069.txt.gz
Theta_e
327 327 331 330 327 326 328 329 328 327 330 334 354 360 353 347 353 360 356 352 351 351 348 347 343 342 344 345 343 344 345 349 345 346 344 349 350 348 351 353 352 351 352 351
330 329 329 330 329 329 327 328 328 328 326 343 360 361 354 348 355 355 352 353 351 351 349 347 344 342 344 346 343 345 345 348 348 348 346 349 349 348 348 349 350 351 353 353
324 329 330 330 330 326 325 326 326 327 326 340 355 359 356 352 351 353 355 351 350 350 350 348 344 344 344 345 343 342 348 348 347 350 347 348 350 349 350 350 351 352 354 355
326 325 325 328 329 326 322 324 326 325 323 323 338 358 356 351 353 356 356 349 346 349 349 349 344 344 344 344 345 342 349 348 348 347 346 349 348 352 349 350 353 352 351 352
325 326 327 327 326 323 323 325 324 325 323 323 323 324 358 351 355 355 352 348 347 346 348 347 346 343 345 345 347 343 348 349 347 351 347 347 348 348 350 351 353 353 353 353
319 320 322 324 326 325 324 323 322 322 322 324 321 322 358 356 355 349 348 346 349 347 347 348 347 346 346 347 346 348 347 350 347 346 349 346 347 347 351 353 353 351 354 354
317 315 317 320 324 323 323 323 322 323 323 325 323 322 320 355 352 347 347 350 349 347 350 349 347 346 345 347 348 349 350 353 349 346 349 347 346 346 350 351 350 353 352 354
316 318 316 318 322 326 324 321 322 326 325 325 323 324 323 341 351 347 347 347 349 351 348 348 347 347 346 347 349 349 350 351 352 347 345 349 346 345 348 353 354 354 353 353
317 318 318 318 319 323 325 325 322 322 323 324 325 324 324 324 347 348 345 345 354 352 349 346 349 347 347 348 348 351 351 350 353 350 345 347 348 344 345 348 353 352 352 354
316 316 316 317 317 319 321 322 321 321 325 326 326 326 328 329 333 348 345 353 346 347 349 349 349 349 348 347 349 349 352 351 353 352 349 345 349 345 343 345 349 353 349 350
315 315 315 316 316 316 318 319 321 321 323 325 325 325 324 327 328 335 348 349 343 345 348 350 348 346 346 347 348 349 353 352 353 352 353 348 346 350 346 348 346 349 349 349
314 313 314 315 315 316 315 315 315 322 324 326 328 329 326 324 325 337 346 350 345 348 350 346 349 344 341 343 349 349 351 354 354 354 354 354 348 348 350 349 344 348 348 350
313 314 315 316 314 316 316 316 315 314 317 319 323 326 327 330 332 336 340 345 346 344 347 342 340 335 337 341 345 351 350 355 355 356 353 356 355 348 350 348 346 342 345 348
314 312 313 314 314 313 316 316 315 314 313 315 318 321 322 330 331 331 332 343 344 345 345 343 338 340 339 344 347 352 351 353 356 357 357 355 355 355 348 347 345 347 344 351
312 311 311 311 312 312 313 314 316 316 315 316 317 318 319 331 330 332 337 342 345 347 345 345 345 344 348 348 351 350 353 352 356 359 359 358 357 356 356 352 350 344 353 349
314 315 314 316 315 312 312 313 315 316 316 316 316 317 319 320 328 330 332 337 342 344 347 348 347 349 351 349 342 347 350 353 353 358 360 359 358 357 357 357 355 353 347 358
313 314 316 316 315 315 315 313 313 314 315 315 315 315 316 318 319 334 341 338 341 341 340 340 343 347 347 345 346 344 346 354 354 354 359 359 359 359 358 358 356 356 352 351
310 312 314 314 316 316 313 313 314 314 314 324 326 321 327 328 328 334 336 338 337 336 337 338 337 338 345 344 341 346 351 352 354 354 356 358 359 359 359 358 358 356 356 354
311 312 314 315 315 312 312 311 320 320 321 322 323 323 324 326 328 330 328 332 332 330 332 334 336 336 340 346 348 344 339 351 349 351 355 357 358 359 359 358 358 358 357 358
313 313 316 315 317 317 317 317 317 317 319 319 318 320 321 323 330 328 325 328 327 327 328 331 333 333 335 340 339 347 338 338 341 349 357 357 357 358 358 359 358 359 357 357
315 315 316 315 318 315 316 316 316 317 319 318 316 317 318 321 322 322 322 323 323 325 327 329 328 329 330 331 332 338 343 350 351 354 359 358 357 357 358 358 359 358 358 357
317 319 316 316 316 316 315 317 318 316 313 313 315 315 316 318 319 320 322 321 321 323 326 325 325 327 327 328 328 331 334 335 340 350 360 360 360 357 359 359 359 359 359 359
314 311 312 315 318 313 312 312 311 310 310 311 311 313 316 317 318 321 321 320 321 323 324 324 323 324 325 325 324 326 327 330 335 342 354 360 362 360 359 360 360 360 360 360
311 307 310 308 311 308 309 307 308 307 308 308 310 312 314 317 319 318 319 319 320 322 323 324 323 323 323 322 322 324 325 328 332 338 350 361 362 364 360 363 362 362 362 362
309 307 308 309 308 306 307 305 306 306 307 308 309 311 313 313 316 317 317 317 319 321 323 322 323 322 321 321 321 321 324 326 329 333 346 363 363 365 364 364 365 364 364 364
307 307 308 308 307 307 306 305 306 305 306 307 309 310 310 312 312 314 315 316 318 320 321 321 319 318 317 317 318 320 323 324 326 330 343 357 364 366 365 364 361 366 366 365

GFSCGP_925_thetae_072.txt.gz
Theta_e
323 323 325 328 328 326 326 326 326 327 327 326 357 363 361 356 354 358 355 352 349 348 347 344 340 344 343 342 346 348 348 347 345 348 347 349 350 351 352 350 349 351 350 347
327 326 325 327 328 328 327 326 325 324 327 350 361 364 355 356 357 357 357 354 351 348 347 346 340 344 343 342 341 342 346 346 344 347 345 347 349 350 348 351 350 351 351 347
328 329 328 328 328 329 327 325 325 325 342 352 355 359 354 349 355 356 356 354 351 349 348 346 341 345 343 343 343 342 342 343 345 346 343 348 349 349 352 352 350 351 352 352
325 324 324 327 328 327 326 322 323 324 321 321 342 362 356 352 357 358 357 352 352 350 348 347 341 343 344 343 344 343 344 345 344 344 343 347 349 350 349 349 349 351 353 353
320 325 325 326 324 325 326 325 322 323 321 320 322 323 338 351 355 358 357 352 352 349 348 348 342 341 344 343 343 345 344 346 346 345 343 346 348 351 348 349 350 350 353 354
314 317 320 322 324 323 323 322 319 317 318 320 320 320 335 352 352 352 357 355 352 347 347 347 346 342 342 344 343 347 347 346 346 346 346 343 347 347 349 350 351 351 351 352
315 316 315 316 318 320 321 317 319 321 320 320 318 320 320 345 348 347 353 354 351 346 347 347 345 343 342 344 344 345 348 348 347 347 345 343 345 347 349 350 351 352 353 353
315 315 315 315 315 319 323 317 319 323 322 321 319 322 322 330 344 344 344 349 349 347 345 346 345 342 344 343 345 345 348 348 348 347 347 344 345 346 347 350 352 352 352 351
313 316 315 317 315 315 322 323 318 319 318 320 320 321 322 322 337 346 343 346 350 350 348 348 348 344 345 345 344 346 347 347 348 347 346 347 345 345 346 350 352 351 351 350
314 314 313 316 314 314 312 314 319 315 323 324 322 323 323 323 333 341 346 345 347 351 349 348 349 348 346 345 346 346 347 348 348 347 347 345 345 345 345 345 349 354 352 350
310 311 313 313 312 314 312 312 311 315 318 322 322 321 325 329 337 339 344 345 344 351 349 349 349 348 348 346 346 347 347 347 349 349 348 346 345 347 346 346 345 349 354 353
311 308 311 313 312 314 313 312 309 312 314 318 322 324 324 329 331 340 345 342 344 348 349 348 349 349 348 346 346 347 349 348 348 350 349 347 345 344 347 347 344 345 348 352
312 309 311 312 311 310 312 311 311 309 308 314 317 318 318 327 335 340 344 345 345 345 345 345 344 345 347 347 346 346 348 350 349 349 350 350 347 344 345 347 345 344 345 350
311 307 309 311 312 310 311 311 311 310 311 311 313 314 313 318 326 331 341 344 344 343 346 345 342 343 342 340 344 344 347 350 351 350 350 351 351 347 343 345 347 345 346 346
308 308 311 310 313 313 314 314 312 311 312 314 313 312 312 315 317 331 336 341 344 347 348 347 345 344 343 343 340 344 348 349 352 351 352 350 352 352 348 343 345 345 345 345
309 312 313 314 314 313 312 312 313 313 312 313 313 314 325 325 332 337 337 341 343 344 342 341 344 348 347 345 345 345 348 349 353 353 353 353 351 353 353 350 345 345 343 344
309 310 311 313 314 312 311 310 312 312 313 321 328 324 323 325 328 327 330 335 338 340 340 339 339 340 345 347 344 344 344 345 346 352 354 355 354 353 354 354 351 347 346 343
308 307 309 310 312 315 310 309 312 315 321 321 321 321 321 321 322 323 324 329 329 333 335 337 336 338 343 342 342 346 343 345 346 346 353 357 357 356 355 354 355 353 351 348
305 306 309 311 311 311 312 310 310 318 320 317 318 318 318 319 324 322 321 322 322 325 329 332 333 332 337 333 335 340 346 348 346 346 346 349 358 358 357 356 355 355 354 353
308 307 311 311 310 314 311 316 315 315 319 316 316 316 316 317 322 321 318 320 321 322 328 328 328 328 329 329 330 335 341 343 344 342 344 346 348 357 358 357 357 356 355 355
309 311 310 310 313 314 313 313 314 316 314 313 313 313 314 315 316 315 317 319 320 323 325 323 325 325 327 325 326 329 332 335 337 342 343 348 350 355 357 357 357 357 357 356
311 312 313 310 310 314 310 313 315 312 309 309 310 310 312 312 314 316 317 318 319 321 323 323 323 324 324 322 323 325 326 327 331 338 341 343 346 355 356 357 357 357 356 357
312 308 305 311 317 309 309 310 308 306 305 306 307 307 309 310 313 314 315 316 318 320 321 322 323 322 321 321 320 322 323 325 328 332 336 342 348 352 356 357 356 357 356 357
308 306 307 305 307 307 307 306 305 306 305 305 305 307 307 309 311 311 313 314 315 318 319 321 321 320 319 317 317 318 320 322 324 327 331 339 343 351 358 356 356 356 357 356
303 305 305 306 305 306 306 306 305 306 304 305 306 306 309 310 311 311 311 312 314 315 318 320 319 317 316 315 315 317 319 320 323 325 329 335 340 348 359 357 358 357 357 357
307 305 305 303 302 307 306 305 305 306 305 305 304 306 307 309 310 310 310 311 314 314 317 319 318 316 314 313 314 315 317 319 320 323 326 329 333 340 358 360 358 359 358 358

GFSCGP_925_thetae_075.txt.gz
Theta_e
320 321 323 324 326 328 327 326 326 325 325 325 357 359 358 356 355 356 353 351 349 348 345 340 340 342 344 345 346 345 346 347 349 349 348 347 348 348 349 349 348 348 349 348
323 324 322 325 328 328 328 327 326 324 333 338 359 362 357 358 355 356 355 351 349 347 345 339 342 343 342 345 345 346 348 347 349 348 348 348 347 348 349 349 349 348 349 348
325 328 327 327 327 328 327 326 326 326 332 353 356 364 361 355 355 355 355 353 350 347 347 340 343 343 342 344 345 347 346 346 345 347 347 348 349 349 350 351 350 350 350 347
326 326 328 326 327 326 327 324 325 324 320 321 346 364 359 352 354 354 356 355 352 347 346 343 342 343 342 342 345 347 347 346 345 345 346 346 349 350 350 349 351 351 351 350
326 322 324 323 323 324 326 324 323 322 320 319 324 327 342 351 355 356 357 355 353 351 347 346 340 343 342 341 342 346 346 346 344 341 345 344 347 348 348 349 350 349 351 352
314 315 321 323 324 322 323 323 317 314 315 319 319 319 324 352 353 351 355 355 354 349 348 346 341 343 343 342 342 342 343 343 344 343 344 343 345 348 349 348 349 349 350 353
314 315 313 313 316 318 317 316 318 320 319 319 317 319 319 341 346 346 350 354 354 348 348 347 342 341 343 342 343 344 344 344 344 343 342 343 343 347 348 349 349 349 350 351
313 315 314 314 315 316 321 316 317 322 320 320 316 320 321 319 323 339 344 348 351 350 349 347 344 340 342 343 342 345 345 345 345 344 344 343 342 343 346 346 349 349 350 350
313 315 314 315 313 314 317 318 317 315 315 319 319 320 321 328 335 338 342 346 352 352 348 348 346 341 341 343 342 345 346 345 345 345 345 344 343 343 343 345 347 351 349 350
312 314 312 314 313 312 311 312 316 314 321 324 320 320 328 331 335 340 343 343 347 350 347 345 346 342 342 342 343 343 346 346 345 345 346 345 344 343 341 344 346 349 351 351
309 309 312 311 312 312 311 311 309 311 314 319 321 323 322 329 332 343 344 344 342 347 347 346 346 344 343 342 342 343 344 346 346 346 346 346 345 344 342 343 344 345 349 352
309 306 310 312 309 311 310 309 307 310 313 312 318 322 314 315 327 339 343 343 342 346 346 346 347 347 344 344 343 343 344 345 345 345 345 346 345 343 343 342 342 344 345 346
311 308 311 310 308 308 309 309 308 306 305 311 313 315 314 318 318 331 341 344 344 345 347 346 346 345 345 344 344 345 344 345 346 346 346 345 345 344 343 341 340 342 344 345
309 304 309 311 311 309 312 313 309 308 309 311 312 312 317 325 329 335 339 341 344 345 344 343 341 342 342 341 343 345 346 345 346 347 347 347 345 345 344 343 340 338 340 343
305 308 311 310 312 312 313 312 312 310 311 312 312 311 325 325 329 329 333 338 341 341 340 342 343 343 344 344 343 341 345 346 347 346 348 348 347 346 345 344 343 340 338 339
306 311 312 311 312 311 312 310 311 311 311 312 315 319 321 321 325 325 327 332 335 338 340 338 339 343 347 346 345 342 343 346 348 348 347 348 348 348 347 345 345 343 341 338
306 307 309 311 311 310 307 309 310 311 317 316 321 322 320 320 324 323 323 323 325 328 334 335 335 336 340 340 339 343 344 345 348 350 349 349 349 350 350 348 346 344 343 343
305 306 306 309 309 312 306 308 311 321 320 319 319 319 318 318 321 320 320 321 321 323 329 330 330 329 332 331 332 337 344 343 344 346 349 351 351 350 350 352 350 348 345 345
303 304 307 309 309 308 310 312 313 316 319 316 317 316 315 314 316 321 316 318 320 321 325 326 326 326 326 327 326 333 340 346 345 346 346 350 353 353 351 351 352 352 349 347
306 304 308 307 308 313 310 313 313 313 318 315 314 314 314 313 320 321 314 314 318 321 323 323 323 324 324 324 322 328 330 334 334 339 343 345 349 355 355 354 353 353 353 352
304 309 308 307 308 311 311 310 311 314 312 311 311 310 309 312 311 311 312 315 317 319 322 323 322 323 323 321 320 323 326 326 327 330 334 338 340 343 348 352 356 355 354 354
307 310 308 311 309 311 309 311 314 309 307 307 307 306 307 307 308 309 311 314 315 316 320 321 322 322 322 320 317 319 320 321 323 325 330 333 337 340 344 351 354 356 355 355
306 306 303 308 308 310 309 309 306 305 304 304 304 304 304 305 306 307 308 310 313 315 316 318 320 321 320 318 316 316 317 319 320 323 326 329 333 339 344 348 355 356 356 356
305 306 305 305 303 305 305 304 304 304 304 305 304 303 305 306 307 307 308 310 310 312 313 316 319 320 318 318 315 314 316 317 320 321 323 326 330 334 341 346 355 355 356 356
301 307 302 301 302 303 305 305 305 304 305 305 305 304 304 304 305 306 308 309 309 310 311 314 317 318 317 316 315 313 314 315 317 318 319 324 327 330 333 339 353 355 355 356
304 304 302 303 300 302 302 303 303 305 306 306 305 306 305 304 305 306 308 308 308 309 310 312 316 317 316 315 314 313 313 314 314 314 317 321 323 327 331 337 352 357 356 355

GFSCGP_925_thetae_078.txt.gz
Theta_e
318 318 320 321 324 327 327 325 326 325 324 326 349 356 359 358 355 356 354 350 348 347 344 341 341 343 344 344 344 344 345 345 346 345 346 348 347 348 348 348 345 347 346 345
320 320 321 322 325 328 328 327 327 326 333 336 357 359 357 355 354 355 354 351 349 347 344 340 341 340 343 344 345 344 345 346 347 346 347 348 347 347 347 348 348 349 348 347
322 325 323 325 326 328 327 326 326 327 327 352 354 358 360 357 353 352 353 351 348 347 345 340 339 339 342 344 344 345 344 345 347 347 348 347 346 347 348 348 348 349 348 348
324 325 328 327 328 325 328 323 326 326 319 320 344 346 356 355 355 354 353 353 350 346 345 339 340 341 342 343 344 345 344 345 346 348 347 347 347 348 348 345 348 349 349 350
328 323 325 324 323 324 326 323 324 323 319 318 325 332 341 349 352 351 352 352 353 349 345 340 341 342 342 342 343 344 345 345 346 347 347 347 347 348 348 348 348 350 351 351
316 314 320 323 322 323 322 318 313 312 313 318 319 321 319 350 351 349 348 349 353 351 347 343 340 342 341 342 343 344 345 346 346 346 346 346 346 347 347 348 349 349 348 350
313 314 312 313 315 317 316 316 317 318 318 319 314 318 323 320 326 338 341 349 352 352 350 345 339 342 342 341 342 343 345 345 345 345 345 346 344 345 346 346 347 348 348 349
312 314 313 312 313 316 317 316 317 321 319 319 316 319 326 329 333 339 340 343 350 352 349 348 342 340 342 341 340 342 344 345 345 345 343 342 344 343 344 346 347 348 347 348
312 314 312 313 312 312 318 315 313 314 314 317 317 324 322 322 330 340 343 341 347 351 351 347 346 340 342 341 341 341 342 343 344 344 343 343 344 343 343 346 347 347 348 348
311 313 311 312 311 311 311 311 317 314 321 323 319 324 322 316 317 326 341 342 342 342 349 347 346 341 341 342 341 342 342 342 342 342 342 342 342 343 342 344 346 346 346 349
308 308 311 310 309 308 309 309 308 310 312 319 324 322 315 314 320 321 339 341 343 342 348 347 346 343 340 341 341 341 343 344 343 343 344 343 343 343 343 341 344 344 345 346
309 306 309 311 309 307 307 308 306 312 314 310 316 316 311 323 329 334 339 342 342 343 344 344 344 343 341 340 342 341 342 344 344 344 344 344 343 343 344 343 340 341 343 344
311 308 308 311 308 308 310 309 306 304 305 311 318 317 313 325 329 328 332 340 339 342 342 342 344 344 342 342 341 341 342 343 344 344 344 345 345 344 344 344 343 340 341 343
308 306 308 309 309 308 313 312 309 306 310 309 311 312 319 325 328 326 327 333 339 339 339 343 344 341 342 341 343 343 342 343 344 344 345 344 344 344 344 344 342 343 341 340
304 310 310 310 311 311 312 311 311 311 310 311 310 315 323 322 325 324 323 325 329 336 334 335 336 344 343 345 343 342 344 344 344 344 345 344 344 344 344 344 343 342 341 340
304 312 310 311 311 310 311 310 310 310 311 310 312 319 319 320 322 322 322 322 326 329 330 330 331 329 335 333 335 339 343 344 345 344 345 346 345 345 344 344 343 343 343 342
306 306 307 310 310 308 309 309 309 312 315 312 313 318 318 318 321 320 320 320 322 324 327 327 328 327 328 329 328 331 338 344 344 346 345 345 346 347 346 346 344 344 344 344
304 305 304 308 307 308 305 307 309 317 320 319 319 317 316 315 313 316 315 316 318 319 323 324 324 326 324 324 323 331 335 343 344 344 347 346 346 347 347 347 346 345 344 343
301 303 305 309 308 307 310 314 315 316 317 315 316 315 313 312 313 316 312 311 314 316 319 322 322 323 323 322 320 326 330 334 335 338 343 347 348 348 348 348 349 348 346 345
305 303 306 306 308 311 308 312 310 311 316 313 313 311 310 310 311 320 309 309 312 314 316 320 321 322 322 322 319 320 325 326 327 329 333 338 343 348 350 349 349 349 349 348
303 306 307 307 306 309 311 309 310 314 311 310 308 308 307 308 308 307 306 307 308 310 313 315 318 320 320 321 319 317 319 320 322 326 329 332 336 338 341 349 352 350 351 351
305 304 310 309 308 311 309 310 314 308 306 305 305 305 305 304 305 305 305 305 306 308 310 312 314 316 318 320 318 316 316 316 319 322 326 328 332 335 337 340 343 349 353 352
305 303 304 305 307 307 307 307 306 304 303 303 303 304 304 303 304 304 305 305 306 307 309 310 311 312 316 319 318 316 315 315 317 319 322 323 326 331 335 338 341 345 350 354
303 301 300 302 302 303 304 303 304 303 303 303 304 304 304 304 304 304 304 304 305 306 307 309 310 310 313 316 317 315 314 314 314 316 318 319 324 327 331 333 338 340 350 355
300 303 302 300 300 301 302 303 303 303 304 306 305 305 305 305 305 305 304 304 305 306 307 307 308 309 310 314 316 315 313 312 313 314 315 316 320 324 326 330 334 338 343 353
301 302 301 302 300 302 301 303 302 303 304 304 306 306 305 305 305 304 304 304 305 306 306 307 307 308 309 312 315 314 311 310 311 312 313 314 317 321 324 327 331 336 341 348

GFSCGP_925_thetae_081.txt.gz
Theta_e
318 325 328 334 333 331 331 331 332 329 333 339 342 346 354 359 354 357 353 351 350 348 347 347 346 346 344 343 342 345 348 345 345 346 347 349 350 350 350 349 348 345 345 345
319 324 326 330 328 331 332 334 332 329 342 333 354 357 355 356 356 355 355 352 352 349 348 346 346 345 344 343 344 345 347 347 344 347 348 350 350 350 351 348 347 345 347 347
320 324 326 328 329 333 333 336 332 331 328 354 355 359 359 358 356 357 356 352 350 350 350 348 345 345 345 345 344 346 344 347 346 349 348 347 347 349 349 349 350 349 348 348
323 327 329 327 330 331 337 329 331 330 328 328 350 340 360 357 359 356 357 356 353 351 349 349 346 344 344 346 345 346 346 347 346 346 348 350 349 349 350 351 351 350 349 349
327 329 333 334 332 329 332 327 330 329 328 325 337 342 333 355 357 356 353 354 353 351 349 349 347 344 343 345 346 346 347 346 347 346 348 350 350 350 351 351 348 350 349 350
320 318 325 329 327 328 325 323 322 322 324 328 328 335 340 341 342 344 346 350 351 353 350 348 347 345 345 344 345 346 348 348 344 345 346 349 350 351 351 351 351 352 353 353
317 316 315 316 324 324 325 327 328 329 327 329 322 333 342 338 339 345 346 344 345 351 353 349 347 346 346 345 345 346 348 348 348 347 347 348 351 348 349 349 351 352 352 352
323 320 316 315 316 323 327 327 327 330 329 328 322 334 334 322 326 333 343 345 346 348 351 352 347 346 347 346 346 346 347 347 348 348 348 348 347 349 349 350 350 350 351 352
319 317 315 314 314 316 321 324 320 323 320 327 325 328 328 327 334 338 345 347 347 346 351 352 349 346 346 346 345 346 347 348 348 347 348 348 347 347 348 347 346 350 347 351
315 317 314 314 314 315 319 316 324 324 328 328 330 329 327 334 340 342 343 344 347 348 345 352 351 346 345 346 345 345 346 347 347 348 348 348 347 345 346 348 344 348 349 348
313 316 316 315 314 314 317 319 319 322 322 328 331 327 326 338 339 338 339 343 345 351 346 348 351 350 345 345 345 345 345 346 347 347 347 348 347 347 345 346 346 345 346 346
313 315 316 314 312 311 312 314 316 326 326 323 326 323 330 335 336 334 336 341 341 345 349 349 349 349 346 345 345 345 345 345 345 345 346 346 346 345 346 346 343 343 346 346
314 314 317 315 315 314 315 314 313 313 318 326 326 321 329 334 335 333 334 337 337 337 336 336 345 347 347 345 345 345 344 345 346 346 345 346 346 346 346 346 345 343 341 346
312 313 316 316 317 315 315 313 313 315 321 320 320 319 326 333 334 332 334 334 334 333 331 331 331 334 336 344 346 345 345 345 345 346 346 346 346 345 344 346 347 344 343 343
313 316 315 314 313 313 313 312 312 314 315 319 318 320 327 330 330 329 330 332 332 331 330 329 329 328 330 330 333 340 345 345 345 345 346 346 347 347 346 345 346 348 347 345
312 316 315 315 313 312 313 312 312 312 312 314 315 320 324 326 326 326 326 327 328 329 328 327 327 327 326 326 326 332 336 341 346 346 346 347 347 347 347 347 345 346 346 347
313 315 316 315 313 311 312 312 311 312 315 314 313 320 322 323 323 322 323 322 323 324 325 326 325 325 325 325 323 326 331 336 344 346 347 347 348 348 348 347 347 347 347 347
312 313 314 315 312 312 311 311 313 313 318 321 322 321 319 318 316 319 316 316 318 320 322 322 323 322 323 324 323 323 328 329 334 346 347 349 349 349 349 349 349 348 347 347
309 312 315 316 313 312 311 316 317 317 317 319 320 319 317 315 315 319 314 312 312 313 316 317 318 320 321 322 323 321 322 323 325 328 334 339 344 349 350 351 350 349 348 348
311 311 314 315 316 314 313 315 313 315 316 315 316 315 314 315 319 321 312 309 309 309 310 312 314 316 318 320 321 321 319 320 320 321 325 329 334 340 344 350 352 352 352 350
316 317 316 316 317 314 312 313 314 315 317 313 312 312 311 313 312 310 308 309 308 308 308 309 311 313 314 317 319 320 320 318 318 320 321 326 330 334 339 340 347 351 352 353
316 318 317 316 317 316 312 313 316 315 311 310 309 309 308 308 308 308 308 308 307 307 307 308 309 311 311 313 316 319 319 317 316 318 318 320 325 328 333 337 339 341 345 352
314 313 317 316 316 313 312 311 310 309 309 308 308 307 307 307 307 307 307 307 306 307 306 307 308 309 310 311 313 317 317 318 316 315 318 319 319 323 329 332 336 340 340 345
310 308 313 311 310 312 311 308 307 308 307 307 306 307 306 306 306 306 307 306 306 306 306 306 307 308 309 310 311 312 316 317 317 315 315 317 318 320 324 329 332 336 341 343
311 310 311 310 307 307 308 307 307 307 306 306 306 306 306 307 307 307 307 306 306 304 306 306 307 307 308 308 309 310 314 316 316 315 315 316 316 318 321 325 328 332 336 339
308 311 313 318 312 310 310 308 307 307 307 307 307 307 307 307 307 305 305 305 305 304 305 307 308 308 308 307 308 309 314 315 313 313 314 315 315 316 318 321 325 327 329 332

GFSCGP_925_thetae_084.txt.gz
Theta_e
321 325 326 329 332 339 341 343 343 351 352 346 345 354 362 361 359 356 353 352 350 344 344 347 347 345 342 342 343 347 348 348 349 350 349 350 351 352 352 352 352 352 352 352
321 324 324 330 335 337 340 340 337 338 337 335 340 342 358 361 357 358 356 353 350 345 347 348 348 347 344 342 341 345 348 349 348 348 349 350 352 352 351 350 353 352 352 351
322 323 326 331 338 336 340 340 336 338 335 341 346 351 352 355 355 354 353 354 351 347 347 350 349 347 346 341 344 345 348 349 350 349 351 354 354 354 354 353 353 352 353 352
322 326 327 331 335 335 338 339 335 333 333 346 345 363 359 355 358 357 356 355 354 352 348 348 349 348 347 344 343 346 349 349 350 352 351 352 350 349 350 351 351 354 354 353
325 326 331 333 333 333 334 335 336 334 334 332 337 344 356 357 358 359 355 356 355 352 351 350 349 348 347 347 345 344 349 351 350 352 352 352 352 349 350 349 353 353 354 353
328 325 332 333 333 333 332 332 333 334 334 335 334 340 346 349 351 349 348 349 354 354 353 351 349 348 348 347 347 347 349 352 352 353 354 353 351 351 350 351 352 351 352 353
325 328 324 325 336 333 331 331 334 338 335 334 333 337 347 340 337 344 349 348 346 354 353 353 352 349 348 347 347 348 349 353 353 352 353 354 354 354 352 351 349 350 351 351
324 323 322 320 327 333 331 330 331 337 335 333 331 340 336 335 340 345 348 349 348 349 353 353 350 350 349 348 348 349 349 352 353 352 352 353 354 352 352 350 347 350 350 351
327 322 318 318 320 322 330 332 328 329 332 332 332 335 333 337 342 345 349 349 352 350 349 353 351 350 349 349 349 350 351 353 353 353 353 354 354 353 350 348 351 350 349 351
323 322 319 317 318 321 327 328 329 328 333 334 332 339 338 341 344 345 347 348 350 352 350 352 353 352 350 349 349 350 351 352 353 352 352 353 353 354 353 351 351 350 348 351
320 322 320 319 321 323 324 327 327 328 329 332 336 334 334 342 341 343 344 343 345 347 352 352 353 352 351 350 350 350 351 352 353 352 351 351 352 352 353 352 351 351 351 352
319 322 322 321 317 317 320 325 327 330 331 330 331 332 334 339 339 340 343 339 338 340 345 341 342 349 352 350 350 350 350 350 351 352 352 352 352 352 351 352 350 350 351 351
319 321 323 320 318 318 321 320 322 325 328 330 329 332 334 338 340 340 341 339 334 333 335 333 337 338 341 345 349 350 350 349 349 350 351 351 352 352 352 350 351 350 351 351
317 319 323 323 323 321 320 319 319 323 328 330 329 334 336 337 338 340 338 338 335 331 330 331 330 330 329 335 341 343 349 349 349 350 350 350 349 350 350 349 349 351 351 351
319 322 320 319 318 318 317 316 317 322 324 328 328 331 334 334 334 335 336 335 336 335 332 329 329 328 328 328 328 335 340 345 349 349 350 350 351 351 350 349 348 349 351 352
317 321 319 319 316 316 316 316 315 316 319 322 325 330 329 330 331 331 331 331 332 332 332 331 329 327 327 326 326 326 332 334 339 348 350 350 351 351 352 352 352 350 350 352
319 319 320 319 316 315 315 316 315 316 316 319 323 328 327 328 327 327 327 327 327 328 328 328 328 327 327 327 326 326 326 325 331 337 348 350 351 351 352 352 353 353 352 351
318 319 318 318 317 315 317 315 314 315 319 319 321 322 322 323 322 323 321 321 320 319 320 322 322 323 324 325 326 326 325 324 322 325 330 335 343 349 351 352 352 352 353 353
316 317 317 319 316 316 315 315 316 316 320 320 322 321 320 320 320 323 318 317 317 316 316 315 316 317 320 321 322 325 326 325 324 323 322 325 329 336 343 351 353 353 353 353
314 317 318 316 320 317 318 317 316 316 319 320 320 320 320 320 320 325 317 315 315 314 314 314 314 314 316 317 318 321 324 324 324 323 324 323 324 329 332 342 350 351 353 353
318 317 318 318 319 317 317 316 317 317 323 318 318 318 318 318 319 316 314 314 313 312 312 312 313 314 315 315 316 317 320 322 323 322 322 324 323 322 327 332 339 348 353 354
320 321 320 320 320 321 317 316 318 320 317 316 315 315 314 314 313 313 313 313 312 312 312 312 312 312 313 314 315 316 318 320 320 321 322 322 322 325 325 328 332 336 344 350
319 318 321 319 321 319 316 317 317 314 313 314 312 312 312 312 312 311 312 311 311 311 311 310 311 311 312 312 314 315 316 316 319 320 321 322 320 321 323 325 330 333 337 344
314 314 316 317 316 317 314 311 311 311 312 311 310 310 310 310 311 311 311 310 310 310 310 309 310 311 311 311 312 313 313 314 316 319 319 319 320 318 320 323 325 330 335 339
318 315 317 317 314 313 314 312 311 311 310 310 309 309 309 310 310 310 310 309 308 307 308 307 308 310 311 312 312 312 312 313 314 317 318 317 318 320 318 319 322 325 327 329
314 317 319 322 315 314 313 312 311 311 311 311 310 309 309 309 310 309 308 307 307 306 306 307 307 307 308 309 311 313 313 312 313 316 316 316 316 317 318 319 319 321 322 324

GFSCGP_925_thetae_087.txt.gz
Theta_e
323 326 328 330 332 338 340 343 347 356 351 353 355 358 364 357 357 356 355 351 349 347 344 342 343 342 340 343 347 348 348 348 349 349 348 351 351 351 351 350 353 352 352 352
323 325 327 327 330 335 341 342 343 350 349 347 350 356 361 359 357 357 355 352 351 348 343 344 345 342 340 341 344 348 349 350 351 349 349 348 350 351 350 352 352 352 352 352
325 325 326 326 330 337 342 343 343 343 341 339 342 357 363 359 358 356 355 353 351 348 344 349 347 345 342 342 342 347 349 351 350 348 350 351 353 354 350 351 351 351 352 352
325 326 326 327 334 336 340 339 338 340 343 346 345 354 358 362 360 359 355 355 353 350 346 349 348 348 344 340 342 346 350 350 350 351 350 352 349 349 350 350 351 353 352 353
325 326 326 329 334 333 334 339 338 337 339 342 346 359 361 360 364 361 360 357 354 351 347 349 348 348 346 342 344 347 351 351 350 351 354 352 352 350 349 350 353 354 355 353
326 325 328 329 331 331 335 337 339 337 337 339 338 347 364 357 356 354 355 356 356 354 350 349 348 349 349 344 344 346 351 353 352 353 354 355 353 351 352 351 350 350 351 353
330 327 330 332 333 332 335 337 341 341 339 338 334 343 355 347 348 349 350 351 353 355 353 352 350 350 350 345 344 346 349 354 354 354 355 355 355 353 354 354 351 352 350 351
329 330 331 332 335 334 335 335 337 339 338 334 334 347 345 343 347 348 350 351 349 350 353 353 352 350 351 348 345 347 350 353 356 355 355 356 356 353 350 352 350 347 350 350
327 327 325 326 330 330 335 334 330 331 334 333 339 342 343 345 347 350 349 352 358 350 354 354 353 350 350 350 347 347 350 353 356 356 355 356 356 356 350 349 351 350 350 351
328 327 323 322 324 327 329 332 333 331 335 335 341 344 345 346 349 348 348 351 354 355 351 355 353 350 351 350 349 348 350 353 356 357 356 356 356 357 355 352 351 350 351 350
325 327 324 322 324 328 329 331 332 331 332 335 342 344 343 347 347 348 345 343 345 352 354 356 353 351 351 351 351 351 351 352 355 357 356 355 355 356 357 355 354 352 352 353
325 325 326 324 324 323 325 329 331 333 333 331 335 343 342 342 345 345 342 339 342 343 345 343 345 345 349 350 349 350 352 352 353 355 356 355 354 355 355 356 355 354 353 352
322 324 327 325 323 323 324 326 328 329 330 334 333 344 341 340 343 344 341 339 337 339 341 338 338 337 337 342 347 346 348 350 352 353 354 355 355 355 354 354 355 354 353 353
321 323 326 326 326 324 325 325 325 328 331 332 335 344 343 342 344 341 340 337 335 334 336 336 335 333 333 333 335 340 341 345 349 350 352 353 355 355 355 355 355 354 354 354
320 322 323 323 320 323 325 324 323 326 328 330 339 342 341 339 341 340 337 337 337 336 334 332 332 331 330 330 330 332 335 339 343 350 352 351 354 354 354 355 355 354 353 354
321 323 322 322 319 319 320 319 319 323 325 328 334 339 335 335 335 336 336 335 334 334 333 333 332 331 330 330 328 326 328 330 335 340 342 348 351 351 354 356 355 355 353 353
323 322 324 321 320 318 319 320 320 320 322 326 334 336 334 334 332 332 332 331 330 330 330 330 329 328 329 329 330 329 326 324 324 329 330 337 341 346 350 351 353 356 356 355
323 324 323 322 323 322 320 319 319 319 320 325 331 332 332 330 328 325 325 325 324 324 323 323 322 322 324 325 326 328 330 328 325 325 326 325 332 336 339 346 353 353 353 355
318 322 322 322 322 320 319 319 317 319 322 322 326 326 326 324 325 324 321 322 322 321 320 320 319 320 321 321 321 322 326 328 329 328 327 327 325 327 332 338 339 348 352 353
317 320 321 321 322 320 321 319 320 318 323 322 323 323 322 321 323 328 322 319 318 318 317 317 317 318 319 319 319 320 322 324 326 327 327 328 329 328 325 327 333 338 344 352
320 320 320 321 321 321 322 319 317 318 326 322 321 322 320 321 324 321 318 318 317 316 316 315 316 316 317 317 318 319 320 322 323 323 324 326 327 327 328 327 327 333 337 342
321 322 322 321 323 323 320 318 318 324 321 320 320 319 318 318 317 316 316 316 315 315 315 315 315 315 316 316 316 318 319 320 320 321 323 324 325 326 326 327 329 331 335 337
323 321 324 321 326 324 320 320 322 320 320 318 317 316 315 315 315 315 315 315 314 314 314 314 313 314 315 315 316 316 317 317 318 319 320 322 323 323 325 325 328 328 334 338
318 318 321 321 321 321 319 318 316 314 315 314 314 313 313 314 313 314 314 313 313 312 312 312 312 313 314 313 314 315 316 316 316 317 318 319 321 321 320 324 324 325 327 331
321 319 319 319 318 319 317 315 314 313 313 313 313 312 313 312 313 313 312 312 311 310 310 310 311 310 310 310 311 313 314 315 316 316 316 317 319 319 320 320 322 323 323 324
317 320 323 325 318 318 317 317 314 314 314 313 313 312 311 312 312 312 311 311 310 310 310 310 309 309 309 308 309 310 311 313 316 316 316 316 317 318 318 318 318 319 321 321

GFSCGP_925_thetae_090.txt.gz
Theta_e
326 325 327 329 335 340 342 345 352 351 356 359 362 362 358 356 352 350 349 348 346 345 344 342 340 340 344 347 348 348 348 346 350 348 349 350 350 351 351 349 350 352 351 352
325 324 327 329 331 335 340 341 353 350 346 356 362 363 359 358 356 354 353 349 349 346 345 342 341 340 342 347 348 349 351 347 351 346 352 350 352 351 350 352 353 352 351 352
326 324 325 327 328 330 335 339 350 352 348 351 358 367 362 358 359 355 352 351 348 348 346 345 345 343 341 346 348 350 352 348 350 351 350 350 348 345 351 353 354 352 352 352
326 326 325 327 327 329 333 339 345 351 341 353 353 372 364 363 362 359 356 354 352 349 348 347 346 344 342 345 347 350 353 350 347 351 350 351 348 349 352 352 352 351 352 351
326 326 326 326 327 330 334 340 343 344 341 340 343 361 362 344 361 360 358 355 352 349 348 348 348 347 345 345 345 351 352 354 348 350 353 351 351 349 348 352 351 353 353 353
326 326 326 328 328 334 335 335 340 341 340 342 345 346 366 355 351 358 356 354 353 352 347 349 348 347 347 342 343 350 353 354 354 348 351 351 352 347 350 352 353 353 353 353
326 326 326 327 329 332 333 335 343 342 340 339 342 345 362 351 350 347 360 356 354 353 352 348 350 348 347 344 346 352 354 356 354 354 354 355 354 355 350 348 348 354 353 353
326 331 326 328 330 333 332 337 340 342 339 337 336 354 354 344 354 353 353 353 351 349 354 350 350 351 350 349 347 351 356 357 356 356 355 355 354 354 353 353 355 347 354 351
328 329 327 331 333 335 332 336 335 336 335 336 345 348 348 352 352 352 353 355 357 353 355 355 351 351 351 349 347 349 356 357 357 357 357 357 357 356 349 349 346 352 350 351
329 331 330 329 329 332 333 332 335 336 339 338 348 351 356 354 353 351 351 350 352 353 356 356 353 353 351 352 350 352 355 357 359 358 358 359 359 357 354 353 352 353 352 346
327 329 327 326 328 330 331 332 333 334 334 336 348 350 348 353 351 350 349 348 348 346 348 349 349 349 350 347 349 347 350 357 358 359 359 359 358 359 358 356 353 350 352 354
327 327 328 325 324 325 329 332 332 335 339 342 353 355 346 348 348 347 345 345 345 341 340 342 342 344 344 343 345 345 349 351 357 359 359 359 359 358 359 358 356 354 352 352
325 327 329 327 325 324 326 328 329 331 333 342 341 348 346 347 346 344 342 340 341 341 339 338 338 338 339 339 339 343 345 347 350 352 359 359 359 359 359 359 357 357 356 355
324 323 328 329 327 325 325 327 328 329 332 335 345 347 348 346 345 342 340 338 337 338 338 336 336 335 334 333 336 337 340 342 348 349 353 355 359 357 357 357 356 357 357 356
321 323 325 327 323 324 324 325 326 327 329 344 347 346 348 344 342 341 339 339 338 338 336 336 336 334 333 332 331 333 332 336 339 342 343 348 352 357 358 358 357 357 357 357
321 322 324 324 322 321 324 323 323 324 325 333 342 346 342 340 339 339 338 336 336 335 334 334 333 332 333 333 331 330 329 329 334 334 336 341 348 348 352 353 354 356 356 355
322 322 322 325 323 322 321 322 321 322 324 338 344 341 338 339 338 337 335 334 333 331 329 328 328 328 328 328 331 331 329 328 328 330 331 334 338 340 342 346 351 355 355 355
324 325 325 325 323 324 323 321 321 321 322 332 338 338 336 334 332 331 329 327 327 326 325 324 323 324 325 324 324 327 331 332 330 329 329 330 331 333 336 339 342 346 352 355
320 323 324 324 324 324 322 321 319 321 322 330 335 334 332 330 327 326 324 324 323 323 322 321 320 321 323 322 322 323 326 328 328 329 330 330 331 331 331 329 333 339 341 345
318 319 324 324 324 324 324 321 320 319 322 324 330 331 329 329 330 327 322 321 320 319 319 318 319 319 320 320 320 322 323 324 325 325 326 327 329 330 331 331 328 330 337 340
319 320 321 322 323 323 322 320 318 319 324 324 326 326 325 326 327 324 322 320 319 318 318 317 317 318 318 318 319 320 321 323 323 323 323 325 326 327 328 330 331 331 331 335
322 322 322 320 322 323 322 319 319 327 325 323 324 323 325 323 322 320 319 319 317 317 317 317 316 316 317 317 318 319 319 320 320 320 321 322 324 325 325 327 327 329 333 335
324 324 327 326 328 324 322 324 323 322 322 322 322 320 320 319 318 317 317 317 316 316 316 315 315 315 316 317 317 317 317 317 319 319 319 320 321 322 325 324 324 327 327 333
321 320 323 324 325 324 321 322 321 320 321 318 317 317 316 316 316 316 316 315 315 314 313 313 313 313 313 313 313 314 315 315 317 318 319 319 319 319 320 322 323 324 325 327
324 321 321 322 321 320 320 318 316 316 316 315 314 314 314 315 314 315 315 314 312 312 312 312 312 312 312 311 311 311 312 312 314 315 318 318 318 318 319 321 321 321 321 323
320 319 324 325 320 321 320 318 316 315 314 314 314 314 313 313 314 313 313 313 312 312 311 311 311 311 311 310 310 309 309 309 309 311 313 315 316 317 317 318 320 319 318 319

GFSCGP_925_thetae_093.txt.gz
Theta_e
324 322 323 323 325 328 337 345 353 354 350 355 361 360 359 356 352 348 346 342 341 340 339 341 344 347 345 344 346 344 344 350 345 351 348 350 350 349 349 348 349 351 350 347
324 323 324 324 326 328 334 338 358 354 353 354 363 362 358 356 352 348 347 343 343 341 340 340 343 347 348 345 345 349 344 345 345 348 349 350 350 351 351 349 349 351 351 350
324 324 325 323 325 328 330 331 353 354 354 356 355 359 361 357 352 352 350 346 343 343 342 340 339 346 348 347 345 350 345 346 349 346 351 350 350 350 350 352 352 352 351 351
323 324 324 322 324 325 325 331 342 353 354 357 352 362 351 356 357 354 350 350 347 344 343 340 339 344 348 348 347 350 347 344 349 353 350 348 347 348 345 350 351 350 350 352
322 323 324 323 324 324 325 342 347 348 347 357 357 360 361 355 359 356 351 352 348 346 345 342 343 342 347 348 348 348 351 348 345 350 352 349 345 348 350 351 352 351 351 352
322 323 323 323 324 324 326 334 341 345 345 347 354 361 362 360 360 359 356 353 350 348 346 345 345 343 346 348 349 349 352 351 346 346 353 351 350 347 349 350 351 352 351 352
322 322 323 324 326 325 328 332 335 346 345 345 338 357 358 354 350 352 351 348 352 349 347 346 347 347 345 346 350 350 351 353 350 347 350 350 349 348 350 350 349 351 352 352
323 324 324 326 326 327 327 329 332 348 340 337 338 360 354 349 346 351 355 353 350 349 346 346 347 347 346 344 349 351 350 352 351 353 348 348 349 351 350 349 347 350 350 351
329 326 325 325 326 325 332 331 328 334 333 334 350 349 346 345 345 351 354 349 350 352 355 350 346 347 347 344 348 351 351 350 351 356 351 350 352 347 352 351 351 351 351 352
330 327 327 325 329 332 334 330 330 330 338 342 355 355 357 355 355 354 353 351 348 350 353 352 351 350 348 349 349 353 354 354 350 351 355 354 352 347 350 352 354 351 350 350
325 325 329 329 329 331 331 329 330 329 332 341 354 356 353 353 351 351 349 346 344 345 346 350 346 345 347 349 348 348 347 349 353 354 354 355 353 354 350 350 351 354 352 350
325 323 327 325 324 328 328 330 329 331 334 341 350 355 348 348 346 345 346 342 341 342 341 342 344 344 344 345 347 349 345 346 347 351 354 356 357 356 353 351 355 352 351 352
321 327 329 328 323 322 323 325 324 325 330 340 342 353 349 347 344 342 342 342 339 338 338 337 337 338 339 340 342 344 342 343 343 345 349 356 358 358 355 354 354 355 354 351
326 322 330 330 328 322 325 325 325 326 330 340 343 353 349 346 342 340 339 339 338 336 336 335 332 332 335 335 336 338 340 341 345 343 345 348 351 355 357 358 356 355 355 355
321 324 323 325 326 321 321 323 324 327 338 338 343 352 348 345 341 339 338 337 336 337 335 334 334 332 332 332 331 333 337 339 341 341 344 338 347 350 349 349 355 355 355 357
320 323 321 324 323 321 321 323 324 324 340 339 343 350 343 341 338 339 337 336 336 334 333 333 333 333 331 331 330 330 332 334 336 339 341 343 344 345 341 335 351 355 355 356
322 323 322 321 324 323 321 321 321 321 336 342 347 344 341 339 337 336 334 332 329 327 327 326 326 325 325 331 330 329 329 329 329 330 331 336 338 341 341 342 346 350 352 354
323 324 324 325 325 325 322 319 320 321 334 341 342 342 340 339 334 329 326 326 326 324 322 322 324 324 324 322 324 332 332 331 331 331 331 331 331 331 331 331 336 340 343 348
317 322 324 323 322 323 324 321 320 323 340 339 340 339 331 327 325 326 323 322 322 320 320 320 323 321 321 321 322 323 327 325 324 325 327 329 329 328 331 330 329 329 333 339
316 320 319 323 330 326 323 320 319 320 339 333 331 329 328 326 328 324 321 319 319 318 318 318 320 319 318 319 320 321 323 322 322 322 322 325 326 326 330 328 327 327 330 331
317 319 320 320 325 325 322 318 317 321 327 332 330 328 326 325 324 320 319 318 318 318 317 317 318 317 318 318 319 320 320 320 319 319 319 321 322 324 325 325 326 324 326 330
324 321 322 321 323 327 323 320 326 327 323 324 324 324 323 321 320 319 318 316 317 317 317 316 316 318 316 316 317 316 316 316 316 318 319 318 318 318 320 323 325 322 324 326
325 324 326 327 328 324 324 323 321 320 321 320 320 320 320 319 318 316 315 315 315 315 315 314 314 314 313 313 312 313 313 313 314 315 317 319 320 318 317 318 319 321 324 326
323 321 322 324 325 324 323 321 320 319 318 317 316 315 316 316 315 315 314 313 313 313 312 313 313 312 313 311 311 310 310 309 309 310 312 314 316 316 318 319 320 322 323 321
324 323 321 322 323 322 321 319 317 318 317 316 314 314 315 315 315 313 312 312 312 312 312 312 311 311 310 310 310 309 308 308 308 308 309 309 311 311 312 315 316 318 319 319
322 322 323 324 321 321 322 317 316 315 315 314 314 314 314 315 313 314 313 312 311 311 311 311 310 310 310 308 308 308 307 307 307 307 308 307 307 309 311 312 313 314 315 316

GFSCGP_925_thetae_096.txt.gz
Theta_e
324 320 321 322 321 323 325 329 357 356 357 355 359 361 359 354 354 352 345 340 341 344 342 344 346 346 346 344 344 343 345 347 350 349 349 348 348 347 349 349 349 349 349 346
321 321 321 322 323 324 326 334 359 356 353 357 355 362 357 355 353 352 346 340 339 341 341 345 346 346 346 346 343 343 346 346 347 349 348 349 348 349 348 348 348 350 346 346
321 323 323 324 324 323 322 325 355 358 349 347 352 359 358 356 353 348 347 342 339 339 339 344 346 345 345 345 344 347 347 348 345 349 348 349 350 349 349 348 349 351 349 349
321 322 324 324 324 321 320 324 346 358 355 363 350 361 352 351 355 352 351 349 342 340 338 344 346 346 344 347 345 344 345 346 346 346 350 348 349 349 349 349 349 350 351 351
321 322 322 323 322 320 321 325 345 352 349 355 355 352 354 348 357 354 353 350 346 342 339 340 344 346 346 345 348 346 344 344 348 348 350 349 347 348 344 349 350 351 350 351
320 320 320 321 322 321 322 342 343 347 344 351 352 358 362 356 356 355 351 349 349 346 344 340 342 346 347 347 349 347 345 345 348 350 351 349 348 347 348 349 349 350 350 351
324 322 320 320 321 321 324 325 335 349 348 345 349 358 353 352 353 353 352 350 348 350 347 345 342 346 347 348 350 349 347 346 345 347 349 350 350 347 348 350 350 351 350 352
325 326 321 322 321 323 325 325 330 347 341 340 348 357 350 352 353 350 353 353 350 349 347 347 345 345 346 348 349 351 349 348 348 345 347 351 350 348 346 350 350 349 349 351
326 323 323 324 324 322 324 329 324 331 330 340 352 350 347 349 351 355 353 348 349 351 349 347 346 346 345 346 349 350 350 349 348 348 347 349 349 348 349 349 348 346 349 351
325 326 323 325 324 328 324 327 329 325 335 346 354 353 353 348 354 354 351 349 350 350 353 352 349 348 346 345 349 350 351 352 351 350 350 346 348 347 343 348 350 351 350 350
323 322 324 324 326 328 328 328 326 325 327 348 356 357 354 353 354 353 349 347 347 346 348 347 347 348 348 347 347 348 349 350 351 351 352 349 348 348 345 345 353 352 351 350
320 319 323 325 321 326 326 327 324 328 331 341 344 358 350 348 348 345 346 344 342 342 343 344 345 345 346 347 347 345 346 347 349 350 351 351 350 348 350 347 350 351 352 349
317 319 325 325 319 318 321 324 320 321 328 335 344 356 348 345 345 344 343 341 341 339 337 337 337 339 341 344 345 346 345 344 344 345 347 349 350 350 350 350 349 350 353 351
323 316 325 326 321 321 319 320 323 321 334 338 345 353 350 346 345 342 340 339 337 336 333 333 333 334 335 339 341 342 343 344 344 344 342 343 345 349 352 353 351 350 352 353
319 319 320 320 321 322 319 319 324 333 332 333 351 351 343 343 342 340 338 337 336 336 333 330 330 330 330 333 336 338 340 343 343 343 341 341 341 345 339 338 344 351 352 352
314 322 318 323 320 322 319 320 327 334 338 345 347 350 341 339 337 337 337 337 336 335 335 333 330 330 330 330 332 334 335 338 341 341 341 341 341 339 342 340 340 348 350 353
318 316 321 323 322 320 318 318 318 330 338 346 349 346 341 341 339 338 335 332 329 327 326 325 325 326 330 329 330 330 331 331 332 333 336 339 340 340 339 341 340 344 347 349
317 318 317 321 322 323 317 316 321 340 342 341 343 342 339 338 335 330 327 326 325 323 322 321 322 321 322 330 331 331 329 329 330 331 331 330 331 332 335 335 333 335 337 340
312 314 318 318 322 323 323 319 318 331 341 341 341 338 335 328 326 326 323 320 318 316 319 320 319 319 321 325 325 323 322 322 322 322 325 326 326 328 331 327 326 326 331 334
311 312 315 318 323 322 323 320 317 327 343 339 338 333 328 327 328 325 320 318 316 317 320 318 318 318 319 320 320 319 318 319 319 319 319 321 322 324 325 325 326 327 325 329
312 314 316 317 321 322 320 318 319 322 327 330 328 326 326 326 323 318 316 316 316 316 317 318 317 317 317 318 317 316 315 315 317 319 319 319 317 317 318 321 323 324 321 324
320 315 316 316 318 320 322 322 326 322 321 327 326 322 322 321 318 317 315 314 314 315 315 315 314 313 313 314 314 312 311 312 314 316 317 317 318 319 318 318 318 319 322 324
321 319 322 322 322 319 318 319 317 318 320 319 321 321 320 319 317 315 314 312 312 313 313 313 312 312 312 311 311 310 309 309 309 311 313 313 314 315 315 316 317 318 318 318
318 316 319 320 320 321 317 316 316 315 315 316 317 317 317 315 314 312 311 310 311 312 312 312 312 310 310 310 309 308 308 307 307 308 308 308 309 310 311 312 313 314 314 314
318 317 316 317 320 319 318 315 315 314 313 312 313 314 313 313 312 311 309 309 310 311 311 311 311 310 309 308 308 307 306 307 306 306 306 305 306 307 308 308 309 311 312 311
317 317 316 315 316 316 317 314 313 313 312 311 312 312 313 312 310 310 309 310 311 311 310 310 310 309 308 307 307 306 306 305 305 305 306 306 305 305 305 305 305 305 306 307

GFSCGP_925_thetae_099.txt.gz
Theta_e
322 322 322 322 321 323 325 328 359 358 359 357 359 359 353 352 352 346 342 343 346 346 347 347 346 348 347 347 348 347 348 350 347 348 347 345 346 346 347 349 348 348 347 346
319 322 319 321 322 324 326 343 359 355 353 356 358 360 356 354 352 347 345 342 344 345 345 346 345 347 345 347 347 347 346 349 347 346 347 347 347 346 347 348 348 348 348 346
323 322 321 323 323 323 322 325 357 359 353 351 355 358 360 356 354 353 346 339 343 343 344 346 345 346 345 344 346 345 345 348 348 348 348 348 347 348 348 348 347 347 347 346
321 321 323 323 324 321 321 324 341 355 350 355 348 359 353 354 354 354 349 341 343 342 344 345 344 344 345 343 344 344 345 344 347 348 347 348 348 347 347 348 347 349 349 349
321 322 322 323 322 319 321 325 345 350 352 347 350 352 352 347 351 354 350 348 338 341 344 345 344 343 344 344 343 343 346 346 345 346 348 348 348 348 347 347 348 349 350 350
319 319 319 320 321 319 323 341 344 342 345 352 348 351 357 352 352 354 352 350 344 340 343 345 344 344 344 346 344 345 347 346 345 345 347 348 348 345 347 346 348 348 350 349
321 322 320 319 320 318 321 338 347 350 350 348 345 354 349 351 349 352 352 350 346 342 342 342 344 345 344 347 346 345 346 345 347 347 347 350 347 347 347 348 348 348 349 350
323 324 321 319 319 319 319 328 337 346 345 345 348 354 351 350 348 349 349 350 351 347 347 343 343 345 345 346 349 346 345 345 347 349 349 348 348 348 347 348 349 348 349 349
323 324 322 320 320 320 323 324 323 332 328 341 350 348 348 352 354 352 351 351 351 349 349 347 344 345 345 346 348 348 346 345 345 345 348 348 348 349 348 347 349 350 349 348
320 324 323 323 322 324 321 322 327 323 333 343 352 353 351 356 358 352 349 349 349 350 351 349 346 344 344 346 348 350 348 347 346 347 345 346 349 348 348 348 348 348 347 348
320 320 324 322 324 327 328 326 322 322 330 339 350 352 352 346 352 351 350 347 347 347 350 349 349 347 345 346 348 349 350 348 348 348 349 348 347 348 348 346 346 350 350 350
318 318 324 324 321 319 325 325 323 325 333 338 345 352 350 350 347 346 344 345 343 344 345 344 346 347 346 346 347 347 347 347 348 349 350 351 350 348 348 348 345 348 351 350
317 318 325 324 319 318 317 319 320 320 327 340 345 354 349 347 346 345 344 343 341 340 339 339 339 341 346 346 344 345 341 345 344 345 347 349 349 350 350 351 350 348 350 349
318 316 322 322 321 321 318 318 320 321 325 336 343 354 352 349 347 343 342 339 337 336 337 337 336 336 339 344 345 345 344 344 344 344 342 341 341 345 346 349 350 350 350 350
316 318 320 321 319 321 318 318 321 323 327 333 345 352 349 345 343 340 338 337 335 334 333 333 331 331 334 336 339 341 341 343 344 344 343 341 341 341 340 338 341 346 350 351
312 320 319 324 321 320 318 319 322 337 343 344 347 349 344 341 337 337 337 336 334 333 332 331 330 329 330 333 334 335 337 340 342 342 342 342 341 341 338 339 341 341 341 347
319 315 322 324 321 319 320 318 317 336 343 344 347 343 341 340 339 337 335 335 331 329 328 328 328 329 329 330 331 331 331 333 335 336 337 338 339 339 338 339 340 338 340 343
315 317 317 326 324 326 319 316 334 342 343 341 341 341 339 338 335 332 328 327 326 325 323 322 321 325 329 325 324 324 325 325 326 326 327 328 332 332 329 330 332 332 334 335
310 313 316 319 324 326 324 319 317 332 342 340 341 339 338 333 326 326 323 323 322 320 319 318 320 322 322 321 320 320 319 319 319 319 319 320 326 328 325 325 326 327 326 329
309 309 315 317 320 326 324 320 319 332 345 341 339 338 330 329 332 327 320 319 319 317 316 317 320 319 319 318 319 318 317 318 318 318 318 317 317 318 319 320 321 320 321 324
311 311 312 316 318 320 320 322 322 323 323 337 336 330 328 330 325 318 315 317 317 316 316 317 317 316 316 316 317 315 314 314 314 316 317 317 317 317 317 318 319 321 322 325
318 313 314 313 316 319 319 320 321 318 324 328 328 327 324 320 319 317 316 314 316 315 314 314 313 313 313 314 315 312 310 310 312 314 315 315 315 315 315 316 317 317 318 317
319 316 319 318 318 316 316 317 316 317 322 322 324 322 321 321 319 316 313 313 314 313 312 312 312 311 310 310 310 309 308 308 308 310 311 311 311 312 313 313 314 314 314 314
317 314 319 319 320 319 316 314 314 317 318 318 319 320 318 318 318 314 312 311 310 311 311 311 310 309 308 308 307 307 306 306 306 306 305 306 307 307 308 309 310 310 309 310
315 314 314 316 319 317 315 315 313 314 317 318 318 318 317 316 315 313 312 310 310 310 310 310 309 308 308 307 306 306 306 305 305 305 305 305 304 303 303 304 305 305 305 306
314 315 314 315 314 314 315 314 312 312 314 314 314 314 314 313 311 310 309 309 309 309 310 309 309 308 307 307 306 305 304 304 304 304 303 302 301 301 302 301 301 301 302 303

GFSCGP_925_thetae_102.txt.gz
Theta_e
320 323 326 321 320 322 324 346 359 355 357 355 357 357 351 351 348 349 346 345 344 346 345 346 346 347 347 348 348 349 348 347 346 346 345 344 345 347 347 347 346 344 346 345
319 325 322 322 321 325 330 354 360 357 353 356 356 359 352 352 348 348 345 345 346 346 345 346 346 346 348 348 349 348 347 347 346 346 345 344 345 346 347 347 347 347 347 345
322 324 320 321 322 322 324 335 356 358 356 354 356 360 356 354 350 346 345 342 343 345 346 344 345 346 347 347 347 347 348 348 346 347 346 345 346 346 346 347 348 347 347 345
322 322 321 322 323 323 323 324 353 354 353 358 351 360 359 355 355 353 347 341 343 345 346 344 345 345 346 346 347 347 347 349 346 346 346 346 345 346 347 347 347 346 347 348
322 320 322 322 322 319 323 324 349 352 351 347 351 351 350 355 358 354 350 347 342 342 346 344 345 345 345 345 346 346 345 348 348 347 347 346 347 346 345 347 347 347 349 349
320 318 319 320 320 319 325 344 341 342 345 352 346 348 350 353 355 354 348 344 340 342 345 344 344 344 344 344 343 344 345 347 348 347 347 347 347 347 347 347 348 347 349 348
320 321 319 318 319 318 322 333 345 351 350 351 341 351 345 349 348 352 351 348 339 342 344 345 344 344 343 344 343 343 344 345 345 345 346 347 347 347 345 346 347 347 348 348
321 323 321 318 319 318 322 326 339 346 347 345 346 352 348 348 349 348 349 348 342 342 345 345 345 343 343 345 344 343 343 346 345 345 345 346 348 346 346 347 347 348 347 348
321 324 321 318 317 318 321 328 328 331 328 346 349 347 346 352 351 351 352 351 347 343 344 343 344 344 344 344 347 345 344 346 346 346 347 348 348 347 347 346 346 348 348 348
318 322 321 322 322 323 321 319 326 322 333 343 348 349 348 357 356 352 352 351 349 350 347 346 342 344 345 345 346 348 345 345 345 347 349 348 348 347 347 348 348 348 349 348
319 319 322 321 322 325 325 325 320 321 327 339 347 347 347 350 354 352 350 349 348 348 349 348 346 344 345 345 345 347 348 346 343 345 345 345 346 347 348 348 347 347 348 349
317 317 323 324 321 319 323 324 321 325 333 335 337 346 348 350 349 349 348 347 346 346 347 348 347 345 343 345 347 349 350 346 345 347 347 347 347 347 347 347 347 346 346 348
315 317 324 324 317 319 316 317 319 320 331 340 339 343 349 346 347 345 346 345 343 343 343 342 344 346 345 346 346 345 345 345 344 346 348 349 350 350 347 347 347 347 348 348
318 316 321 323 319 318 322 316 320 319 324 334 336 350 354 347 344 345 344 341 340 340 340 339 338 340 346 346 345 336 343 342 343 343 343 341 342 342 344 345 347 348 349 348
314 319 319 319 318 320 317 317 318 323 323 335 338 348 348 345 343 342 339 337 337 337 337 336 335 335 338 342 343 343 344 344 344 343 343 342 341 340 340 340 341 341 346 349
311 319 318 324 321 318 318 324 320 337 335 343 343 349 341 342 339 340 338 336 336 334 333 332 332 333 334 334 336 338 340 342 343 343 343 342 340 340 339 338 339 341 341 341
317 317 319 324 320 321 321 318 324 323 341 343 347 342 341 341 339 338 336 333 333 332 331 331 330 330 331 330 330 331 333 336 337 337 338 339 339 338 336 336 336 336 338 340
318 317 315 323 322 326 324 317 328 342 341 340 340 342 341 339 335 335 332 329 329 327 327 328 328 324 322 322 322 322 324 324 325 327 331 332 332 332 333 329 329 330 332 333
309 315 320 322 324 325 323 318 318 331 340 339 341 340 337 332 329 328 327 325 323 321 321 323 322 320 319 319 320 320 319 319 319 318 320 321 322 325 325 324 323 322 325 328
309 309 317 316 321 329 326 321 321 329 327 339 338 337 332 333 336 329 323 320 318 319 321 319 318 318 318 317 317 317 316 316 316 317 317 317 318 319 320 320 321 323 325 330
312 310 312 316 318 318 318 320 320 323 321 337 336 334 332 333 328 318 320 317 316 318 318 317 315 315 316 316 316 314 314 313 314 314 315 315 316 316 317 318 318 319 321 324
318 313 314 312 315 318 317 319 321 317 322 333 329 328 324 321 319 318 316 315 315 314 314 314 314 312 312 313 314 310 309 310 312 313 313 313 314 314 315 316 316 316 316 316
318 315 318 317 315 314 315 316 315 314 322 325 325 323 322 320 319 319 318 315 313 311 312 312 312 311 311 311 310 308 307 308 309 309 309 309 310 311 312 312 312 312 313 313
316 312 318 318 318 318 315 315 315 317 319 320 320 321 321 319 318 318 315 312 311 310 310 310 309 308 307 307 307 306 306 306 305 305 305 305 305 305 306 307 307 308 307 307
313 313 314 315 317 316 315 314 313 317 318 319 319 319 319 317 317 316 313 311 310 310 309 309 308 307 306 306 306 305 305 305 305 304 302 301 302 302 302 302 302 303 304 304
313 313 314 317 313 313 313 312 312 315 317 318 318 318 317 316 315 314 313 312 310 309 309 308 308 307 306 306 305 304 304 304 303 301 301 301 301 301 300 300 300 299 299 300

GFSCGP_925_thetae_105.txt.gz
Theta_e
322 332 340 339 328 329 342 344 358 361 356 357 359 360 356 349 350 352 351 350 350 349 347 348 348 348 348 348 349 349 350 349 348 347 349 348 348 349 345 345 344 344 346 345
324 331 333 327 325 328 350 357 359 355 353 356 356 358 357 355 353 351 351 351 349 348 348 348 348 348 348 349 350 351 350 348 347 349 346 347 348 347 346 346 345 347 346 346
324 327 328 326 325 329 331 342 357 357 354 354 353 359 356 354 350 349 346 348 348 348 348 349 348 348 348 348 350 351 348 348 346 347 346 344 345 346 347 346 347 347 348 345
331 324 328 324 326 327 333 329 353 353 353 356 350 359 358 355 354 352 349 345 347 348 348 348 348 348 348 348 349 350 349 347 347 346 348 345 348 346 345 345 347 346 347 347
327 326 325 325 325 324 328 329 352 353 354 355 356 357 356 356 358 353 350 348 345 347 347 348 348 348 348 348 348 349 350 349 348 346 348 348 348 345 344 347 346 347 346 347
324 321 324 326 324 325 340 345 349 350 353 357 354 356 357 361 359 356 350 349 346 345 347 347 347 348 348 348 348 348 349 348 348 346 346 346 346 346 349 349 349 347 349 346
323 323 321 321 323 323 335 343 348 350 354 346 345 356 350 353 351 354 352 350 347 345 347 348 348 348 347 347 347 347 349 349 349 348 348 347 346 346 347 348 350 351 351 351
325 324 323 321 323 324 332 335 340 347 348 346 349 356 351 349 348 349 351 349 348 346 345 348 347 347 347 347 347 347 348 349 349 349 348 347 347 347 346 345 347 351 351 349
324 324 324 321 322 323 324 326 330 338 341 347 354 351 347 352 354 350 351 351 348 345 346 347 347 347 346 345 347 347 347 348 349 348 349 346 346 347 348 346 347 348 347 349
323 325 324 325 321 322 324 325 328 333 345 346 354 355 355 358 354 352 353 352 348 345 347 347 346 347 346 345 347 347 347 346 346 348 349 346 347 347 347 347 346 347 348 349
323 325 327 325 325 325 325 326 327 331 334 341 349 353 349 354 355 357 355 352 350 347 348 348 347 347 345 345 346 348 349 348 344 345 349 348 346 349 347 348 347 347 348 347
321 326 329 328 324 322 326 327 329 329 337 342 346 350 351 351 353 351 352 352 352 349 348 349 348 347 347 346 345 348 348 348 346 344 344 348 347 345 347 348 347 347 344 346
322 325 331 329 323 322 325 322 327 331 336 343 338 345 351 352 352 351 350 350 347 348 349 348 349 348 347 346 345 346 347 348 348 348 345 349 345 346 346 348 346 345 346 347
321 323 329 329 327 324 325 321 325 331 331 337 338 351 353 352 352 350 349 347 346 345 345 344 348 347 345 345 345 344 344 344 344 345 344 345 347 347 347 346 346 347 347 348
321 326 324 322 321 322 324 333 323 328 330 335 340 350 352 349 347 346 344 342 343 343 342 340 341 347 346 345 343 340 342 342 342 342 341 341 340 341 341 341 341 343 345 347
319 327 324 326 323 321 323 331 332 334 333 340 340 348 347 344 344 343 342 341 341 340 338 336 337 338 339 343 340 340 342 340 342 342 342 341 340 340 339 339 340 340 341 342
324 327 328 327 325 326 325 324 337 340 341 343 346 347 348 345 343 341 340 339 339 337 335 334 334 332 331 332 336 336 339 341 342 342 341 340 340 339 338 337 337 337 338 339
324 326 324 330 328 330 325 321 329 342 344 344 344 345 345 342 339 338 337 336 334 333 333 330 326 324 324 325 327 328 331 334 334 334 334 334 335 334 333 333 333 334 334 335
318 324 325 325 329 329 324 322 324 329 334 342 344 343 340 338 336 335 333 334 334 333 326 322 321 321 320 320 320 322 321 323 326 324 325 326 326 326 327 324 325 328 331 332
317 321 323 324 326 330 329 323 323 330 331 341 341 340 339 336 341 332 328 327 328 325 322 320 319 319 318 319 320 319 317 317 316 317 318 319 321 324 324 325 324 326 330 332
321 320 322 323 325 323 322 323 322 327 329 334 340 339 336 342 339 327 323 324 325 321 318 317 316 315 315 315 316 315 315 315 314 315 315 317 317 318 318 320 321 328 325 323
325 322 321 319 322 322 322 324 327 326 325 332 340 337 338 330 328 325 322 323 323 321 318 316 317 316 314 314 315 314 314 313 313 314 314 314 315 315 316 316 316 317 318 318
325 322 326 323 324 322 321 322 321 321 323 330 335 332 328 327 326 323 324 323 322 321 319 317 315 313 312 312 312 312 311 311 311 311 311 311 312 312 312 313 313 314 315 314
321 318 326 326 323 322 321 322 324 324 325 326 329 326 326 326 324 323 320 318 318 317 316 314 313 312 310 310 310 309 308 309 309 309 308 308 309 309 309 309 310 310 310 310
321 320 324 325 323 322 320 320 320 323 324 325 325 324 324 324 323 320 318 314 312 313 313 313 312 311 310 309 308 307 307 307 306 305 305 305 305 305 305 304 306 305 303 305
321 323 327 326 322 322 321 318 317 321 324 324 324 322 321 322 321 317 315 313 313 311 310 311 311 310 308 308 307 307 307 306 305 304 304 303 303 303 303 302 301 299 298 298

GFSCGP_925_thetae_108.txt.gz
Theta_e
321 327 343 345 338 336 348 352 359 360 358 359 361 360 356 351 352 350 350 349 348 348 347 348 347 346 348 350 350 351 351 351 350 350 348 348 348 348 349 349 350 351 353 352
323 325 333 343 336 333 343 349 360 358 356 355 354 360 351 350 350 351 349 348 347 347 348 348 348 348 347 348 349 350 351 351 352 350 348 348 348 348 348 350 349 350 352 353
323 324 336 338 333 334 347 350 355 359 356 352 352 355 360 351 350 350 349 348 347 348 348 349 349 349 348 349 351 351 351 350 348 350 351 351 350 352 352 350 348 349 350 352
324 326 332 338 334 333 339 340 351 355 356 358 351 363 358 354 351 353 351 350 349 348 348 348 348 348 349 348 351 352 352 351 350 350 350 349 349 349 347 348 349 351 352 351
327 327 333 336 337 330 334 332 344 349 349 351 352 356 353 356 357 355 352 349 348 348 347 348 349 348 348 348 350 352 353 352 350 351 351 349 347 347 348 348 352 352 351 351
328 329 331 331 331 327 332 336 342 347 348 348 351 355 356 356 359 349 350 350 347 347 347 347 347 348 348 348 349 351 353 353 352 352 350 350 350 350 350 350 350 350 350 351
327 328 328 328 331 331 335 343 349 350 350 350 346 352 349 350 352 354 348 349 348 346 347 348 348 349 349 349 349 350 352 354 352 351 351 350 349 350 349 350 350 351 350 350
326 328 327 326 328 330 334 340 344 351 350 348 348 353 352 348 350 351 352 349 349 348 346 346 348 348 350 349 350 350 352 353 353 353 351 352 351 349 349 350 351 350 351 350
325 326 325 326 325 326 332 336 337 340 342 346 349 349 350 349 351 351 353 352 350 349 347 347 347 348 349 349 350 350 351 353 352 351 353 351 351 349 350 350 350 352 352 352
325 326 324 325 324 325 327 331 337 337 342 345 351 348 346 357 355 353 352 353 352 349 349 347 347 349 349 350 350 350 350 352 351 350 351 349 350 352 350 349 348 351 353 354
325 325 327 326 325 324 326 327 328 330 334 339 345 347 349 354 353 354 352 352 353 351 349 349 349 349 350 349 348 349 351 352 351 350 350 350 350 349 352 350 349 351 351 350
327 327 329 327 326 325 326 326 327 329 334 336 339 351 353 352 353 354 355 353 352 351 348 350 349 349 348 350 350 348 350 351 352 351 350 352 350 349 348 350 349 351 350 351
327 327 329 329 329 328 327 327 327 327 328 333 336 338 353 354 354 354 355 354 353 351 350 350 349 351 351 350 350 351 351 352 352 351 350 351 351 348 349 349 351 350 351 350
322 326 329 329 330 328 329 327 327 329 331 332 333 338 355 356 356 354 354 354 354 354 353 353 354 349 349 349 346 346 343 343 349 351 351 352 351 348 350 351 352 351 349 350
325 328 327 327 327 327 328 327 327 329 329 331 330 333 340 354 354 353 350 349 350 351 348 349 352 351 348 348 345 344 344 344 345 347 349 350 351 351 351 351 352 352 353 351
324 329 329 327 326 326 327 331 330 328 329 330 332 335 347 351 350 349 349 348 348 348 346 343 344 350 349 347 345 344 344 343 343 342 342 343 344 346 347 348 349 349 350 352
326 327 330 329 327 327 328 330 335 336 337 338 333 345 349 351 348 347 347 347 345 344 343 340 335 339 347 346 342 343 344 344 344 343 342 341 341 340 339 339 344 346 347 348
326 327 327 329 331 332 328 327 330 340 341 341 344 346 349 348 346 344 343 343 342 340 336 332 330 327 334 337 339 337 339 338 338 340 341 340 340 338 337 337 338 340 343 345
324 327 326 327 329 330 328 327 329 333 337 342 345 345 346 343 342 342 340 339 339 335 331 327 324 323 324 325 326 328 329 329 330 331 333 334 336 335 336 335 335 335 336 343
321 324 326 327 328 333 331 326 325 327 337 342 344 345 344 341 348 341 339 337 334 329 323 321 321 320 321 320 322 324 323 323 323 323 325 327 328 330 330 331 332 336 333 334
323 324 324 325 327 327 326 325 325 332 334 330 340 341 341 343 343 338 335 334 330 325 322 320 318 317 317 318 318 316 317 316 316 318 320 322 326 327 328 329 333 331 326 322
326 325 323 324 325 328 327 327 332 331 330 331 339 340 338 336 335 334 332 329 326 324 322 320 317 316 317 317 318 317 316 316 317 316 316 318 320 321 323 325 326 325 323 323
325 325 328 326 328 328 326 327 328 330 331 330 338 337 336 336 334 331 331 327 323 320 320 318 317 316 317 317 318 318 317 318 319 319 319 319 319 320 321 321 322 322 323 322
324 324 327 327 327 326 325 326 326 329 332 333 334 335 334 334 330 329 330 325 323 320 318 317 317 317 316 316 317 316 316 316 316 316 316 316 317 317 316 316 317 318 319 318
325 325 325 325 327 326 325 325 326 327 329 331 331 331 332 332 329 329 329 327 324 322 320 318 317 317 316 314 313 313 313 313 313 313 313 312 313 313 312 308 310 307 304 310
323 323 324 326 328 327 327 323 323 325 328 329 330 329 329 329 328 324 323 319 317 319 318 317 317 316 315 313 312 312 312 311 310 310 309 309 309 309 307 305 300 298 298 298

GFSCGP_925_thetae_111.txt.gz
Theta_e
322 325 335 344 344 341 347 352 359 357 359 356 357 358 349 353 353 348 346 347 348 347 345 344 344 344 345 347 348 348 348 350 350 349 347 346 346 347 347 350 350 351 351 352
323 324 330 340 343 341 339 360 360 359 357 352 355 360 353 352 354 351 349 347 348 347 345 345 344 344 344 347 348 350 350 351 351 348 347 347 346 346 348 349 350 352 351 353
325 325 327 337 345 340 340 356 361 363 356 353 352 358 355 350 353 352 347 346 345 347 347 346 347 345 345 346 348 349 351 352 353 351 350 351 352 351 350 351 349 351 352 352
325 325 327 335 342 340 341 350 355 358 358 362 352 362 354 354 353 352 351 347 346 347 346 346 348 348 346 347 347 351 350 352 351 355 351 350 347 349 349 349 348 352 351 351
324 325 327 336 340 338 340 338 360 354 352 355 355 359 356 351 351 351 352 349 347 347 347 347 347 348 348 347 347 349 350 352 351 352 352 352 350 349 349 348 352 351 353 353
326 327 328 332 337 336 336 338 345 349 348 355 353 354 359 359 355 351 351 351 347 348 346 347 348 348 348 346 346 348 350 352 353 353 353 352 349 352 350 351 352 350 351 351
328 329 329 331 334 332 335 341 357 360 356 356 351 353 352 353 349 350 351 351 349 348 346 347 349 347 347 346 345 347 351 353 352 352 351 352 353 352 352 353 351 349 347 349
326 329 330 329 332 333 337 341 355 358 356 355 347 352 357 346 348 349 348 348 349 348 348 347 347 348 347 347 346 346 351 353 353 351 351 352 352 350 351 351 350 348 350 348
325 326 328 328 327 331 334 340 343 348 343 350 353 349 354 350 350 352 351 349 348 350 347 347 347 348 347 348 347 348 352 353 352 351 351 352 352 351 352 352 354 352 352 349
328 328 327 327 327 327 328 333 338 342 346 349 355 355 348 355 354 353 353 350 349 349 349 348 345 345 350 347 349 349 351 352 352 350 351 351 350 351 351 352 352 352 351 356
326 327 327 326 327 327 327 329 333 335 338 343 349 355 351 355 353 353 352 353 351 350 350 349 345 347 348 349 349 350 351 353 353 351 351 350 348 348 350 351 351 353 353 355
325 327 327 328 327 326 326 327 328 331 336 335 335 349 343 351 352 352 352 351 352 351 349 348 346 349 351 353 354 354 352 353 354 353 352 352 352 349 347 349 351 351 353 354
328 326 330 328 327 326 324 326 327 327 329 331 334 350 352 353 354 353 353 353 353 354 352 350 350 353 354 352 354 353 352 353 354 353 353 352 353 351 349 347 348 350 354 354
326 326 330 331 333 331 329 326 328 327 328 329 330 355 356 356 357 358 356 354 354 355 355 352 351 352 352 354 354 355 354 354 353 352 352 353 353 353 351 349 348 349 351 353
326 328 327 328 329 332 330 327 326 328 329 331 330 332 348 354 356 356 355 356 357 358 355 354 354 353 353 353 351 349 346 344 344 343 346 351 353 353 352 353 351 350 349 351
325 327 327 331 328 329 329 329 328 327 327 328 330 331 341 352 355 355 355 355 355 354 352 355 354 352 351 352 349 346 346 347 345 346 347 348 350 351 353 352 352 351 351 352
327 327 331 331 327 327 330 328 329 329 328 328 332 345 339 357 354 353 351 351 351 351 347 346 349 350 352 350 348 349 348 347 347 346 345 346 345 347 347 348 349 350 350 351
326 328 329 332 334 335 329 331 331 334 338 337 339 344 350 353 351 349 348 349 349 346 343 340 334 340 346 348 347 346 346 346 347 346 344 342 340 340 340 340 341 343 347 348
325 328 328 330 338 332 332 330 331 334 341 341 341 345 350 349 348 347 344 345 344 342 336 333 329 328 333 338 340 341 343 341 339 341 341 340 340 340 339 337 337 338 340 343
325 326 329 331 333 336 334 332 328 329 339 334 341 345 347 345 348 347 343 340 339 337 330 325 323 322 323 325 330 329 327 328 327 330 334 336 336 336 339 340 340 339 337 334
324 326 326 326 332 333 330 327 327 331 338 332 338 344 344 344 346 344 338 337 332 327 323 322 322 319 319 320 322 319 320 319 321 324 327 330 332 334 334 335 337 332 329 326
328 330 326 327 331 335 328 328 333 335 332 332 337 341 342 338 341 339 334 333 326 323 321 319 318 319 319 318 318 317 317 317 317 319 322 324 326 329 332 333 332 329 325 323
323 324 333 328 334 329 327 329 328 330 333 335 334 339 340 339 338 333 333 330 325 324 321 320 318 317 318 319 317 317 318 319 320 319 320 321 322 325 327 329 329 328 328 330
324 325 324 328 328 327 327 327 327 328 331 334 334 335 337 337 335 332 331 329 328 325 323 321 320 318 318 319 318 317 318 319 320 320 321 321 321 321 322 323 324 324 324 325
326 327 323 325 328 327 326 327 326 327 329 332 334 334 334 334 333 329 328 325 322 320 319 320 319 319 317 317 316 317 317 318 319 319 319 319 318 319 313 312 313 311 311 311
324 323 325 326 329 329 329 326 325 326 327 329 331 333 332 331 331 329 325 324 322 320 319 318 317 318 317 316 315 314 315 315 315 315 315 315 315 314 312 309 302 299 300 303

GFSCGP_925_thetae_117.txt.gz
Theta_e
323 323 322 323 327 330 350 358 360 358 355 354 356 352 349 347 351 352 345 340 342 342 342 342 347 345 344 347 348 344 346 346 348 348 349 347 346 348 346 349 350 349 350 351
324 323 324 325 340 345 348 357 359 356 353 353 353 352 349 350 349 352 352 344 344 343 340 347 346 345 344 347 346 347 346 345 345 347 347 347 348 349 350 351 351 350 351 348
321 322 324 324 331 347 350 354 357 359 355 351 350 353 353 350 347 348 349 349 345 345 343 346 346 345 346 350 349 348 347 348 347 349 348 348 348 348 350 351 350 350 349 352
321 323 324 323 324 337 355 354 355 358 356 361 351 360 354 350 350 347 349 350 344 344 343 343 345 347 348 348 348 349 347 348 351 350 347 348 348 348 349 349 350 349 351 351
318 321 322 324 325 345 354 351 353 351 353 356 354 359 355 351 351 349 348 350 349 344 342 342 345 348 348 348 349 349 348 346 348 347 349 346 348 349 351 350 351 351 351 350
319 321 323 324 329 342 350 354 351 352 356 360 355 358 358 354 350 348 347 348 349 346 345 344 345 348 351 349 350 349 349 350 351 350 350 349 349 349 351 351 350 349 350 351
320 320 323 325 340 342 346 348 354 358 362 364 355 358 357 350 346 345 346 347 349 347 343 345 345 346 350 351 352 350 350 349 350 349 350 350 349 348 351 351 349 350 349 350
321 321 326 327 327 341 347 346 352 356 361 361 351 362 355 345 344 342 344 343 347 347 345 345 342 348 348 352 352 353 350 348 349 348 352 349 347 345 350 351 351 350 349 348
325 325 325 327 327 331 336 334 330 350 350 355 356 352 348 345 349 342 344 346 347 346 345 346 348 346 350 348 349 353 352 350 350 350 353 351 351 352 352 352 350 347 349 350
325 328 326 327 327 327 329 329 339 346 356 356 359 352 353 350 349 348 344 346 347 348 347 346 348 347 348 348 347 354 351 352 349 349 352 350 351 351 351 349 348 349 351 351
324 326 326 327 327 326 324 324 325 334 343 353 353 357 350 349 351 351 349 344 345 348 345 345 348 347 347 348 347 353 354 352 351 352 351 351 348 350 351 352 351 352 350 349
325 324 323 324 326 325 325 325 323 323 326 339 345 346 347 346 350 349 350 348 344 347 345 342 346 348 345 344 349 356 355 352 352 353 351 350 350 351 351 351 352 353 352 344
324 327 326 326 329 330 330 328 325 322 320 324 331 348 347 348 343 339 346 350 347 344 346 345 346 348 349 351 352 354 353 355 353 354 351 352 349 350 350 351 351 350 352 350
324 324 327 328 331 330 333 330 330 329 321 324 324 349 345 344 347 346 349 349 348 347 345 348 348 348 349 349 352 349 352 352 351 352 350 349 350 349 353 351 350 349 351 352
322 324 326 324 327 328 329 330 330 331 341 333 336 344 349 350 351 347 353 349 350 350 348 350 350 346 347 348 350 348 345 341 346 341 340 349 349 347 350 351 349 350 350 351
325 328 329 330 329 331 330 333 332 339 341 342 341 354 349 349 342 344 343 355 351 353 353 354 347 345 344 344 343 348 353 347 349 344 348 347 347 349 349 349 350 350 347 350
327 329 331 330 330 331 335 333 333 336 339 340 353 348 339 340 341 339 342 354 354 349 350 351 352 349 344 344 345 350 350 349 346 345 345 345 345 345 345 345 346 348 348 348
327 331 330 330 330 332 335 330 331 335 337 342 345 349 338 336 333 334 342 350 349 346 342 339 339 345 351 351 350 348 348 347 347 349 348 346 345 345 345 345 344 346 347 345
326 327 328 334 336 333 333 332 332 332 340 336 345 344 343 344 346 347 345 343 340 336 332 331 332 335 344 350 349 349 348 349 348 346 344 343 342 342 341 341 340 335 342 338
327 325 328 329 333 336 333 331 329 329 343 337 341 338 336 340 344 348 339 335 332 330 329 327 328 330 335 338 345 345 342 344 343 344 343 343 342 341 340 338 338 336 335 335
327 327 329 328 334 336 333 330 329 334 340 334 340 339 337 337 343 336 331 329 327 325 324 324 324 324 328 332 337 334 334 333 335 339 339 340 340 340 341 339 338 335 333 331
326 328 333 331 332 336 330 332 332 331 332 333 341 339 339 339 336 332 327 325 324 324 322 321 321 321 323 327 331 327 327 328 331 333 334 335 335 335 338 337 334 333 332 329
330 327 331 331 330 331 330 330 326 327 330 329 337 337 333 337 334 331 327 324 322 321 321 321 321 320 320 321 323 323 323 325 328 329 331 332 333 332 331 331 330 329 328 325
330 328 324 330 330 331 328 328 327 327 328 330 335 335 335 334 331 328 325 323 320 319 320 321 320 320 320 320 319 319 321 322 323 324 325 326 328 328 329 327 326 326 325 325
329 329 326 325 329 329 329 326 325 327 327 329 333 336 335 331 328 326 325 324 323 321 320 320 320 319 319 319 320 319 318 318 320 321 321 320 317 317 318 317 315 313 313 316
326 330 327 333 332 331 330 327 325 325 325 327 334 334 332 330 328 326 324 322 322 322 322 321 319 318 318 318 318 319 320 319 321 321 319 320 318 315 314 313 306 307 307 307

GFSCGP_925_thetae_120.txt.gz
Theta_e
319 320 320 321 321 331 353 356 357 355 353 352 354 356 352 346 348 351 350 339 342 342 343 348 347 346 344 343 346 343 344 344 346 346 347 345 345 347 348 347 346 347 347 345
320 321 320 321 323 334 352 354 357 355 352 353 354 354 351 348 349 350 351 349 341 340 345 345 344 346 347 346 346 342 346 346 345 347 348 345 346 346 349 349 350 348 349 347
320 322 323 324 323 342 349 351 355 357 354 350 352 353 351 348 349 347 348 348 342 343 346 344 344 345 348 347 345 345 343 345 347 347 348 347 347 347 348 348 349 348 349 349
319 321 322 324 324 344 354 351 353 356 356 360 350 359 352 350 351 349 348 348 348 344 346 344 343 346 348 346 345 345 344 346 348 348 347 348 348 348 347 349 347 349 349 347
316 318 320 322 322 344 353 350 353 353 352 354 353 357 351 351 352 350 349 349 348 345 346 344 343 346 349 347 346 346 346 348 348 347 347 347 347 347 347 350 349 348 349 350
316 317 318 323 334 343 348 349 350 351 351 355 354 356 354 352 350 349 348 348 347 346 345 344 344 346 348 348 348 347 347 349 347 348 348 347 346 348 349 350 350 350 350 351
317 318 328 347 350 348 348 347 354 357 358 358 354 358 353 350 346 346 347 347 346 345 344 344 345 346 348 349 349 348 347 347 346 346 349 347 348 348 349 350 351 350 350 350
320 318 324 336 344 344 345 340 346 350 358 358 352 357 350 346 341 343 343 346 346 348 345 344 346 347 348 348 349 350 349 348 350 348 349 348 349 347 349 350 350 348 347 348
321 324 324 325 332 338 341 344 338 344 347 352 355 352 349 345 347 344 344 346 346 349 346 345 345 348 349 348 349 349 349 351 351 350 349 348 347 344 348 349 349 349 349 349
323 325 324 324 326 335 331 330 338 342 351 353 357 352 352 345 349 343 344 344 342 345 345 343 343 347 347 350 350 349 348 348 348 349 349 350 347 350 351 351 351 349 349 350
320 321 323 322 324 323 322 322 321 331 339 350 357 355 346 345 348 346 343 343 340 342 344 344 344 345 347 350 351 351 349 348 346 348 352 351 349 350 352 350 350 343 350 351
322 319 323 322 321 326 321 322 317 319 322 338 341 344 342 341 348 346 345 341 339 341 345 344 345 345 345 347 347 353 352 350 348 348 350 351 349 351 350 351 352 350 351 349
321 321 324 323 324 325 329 328 326 318 315 321 333 327 344 342 346 346 346 346 342 342 345 345 346 345 345 346 345 353 352 351 350 349 350 351 350 348 350 349 350 351 351 350
321 317 323 323 325 326 327 328 329 327 336 335 325 326 349 346 346 345 345 347 346 342 345 342 345 345 345 345 347 349 353 352 350 349 352 351 349 349 350 349 351 351 350 350
318 321 325 325 328 331 332 334 337 339 340 345 346 347 345 346 347 348 348 350 348 347 346 342 345 348 347 348 348 351 351 351 350 348 351 352 352 351 349 351 350 352 350 351
319 321 326 328 328 331 333 334 338 338 341 342 348 348 340 341 341 346 350 350 352 349 346 348 346 348 348 349 349 350 349 346 346 343 345 348 349 348 348 347 348 349 349 349
321 321 324 327 327 328 334 332 337 338 344 345 351 348 337 334 338 338 344 344 348 347 347 346 346 346 345 346 348 347 342 345 345 341 342 343 344 343 346 346 347 347 348 347
320 323 322 325 322 331 331 328 331 337 339 343 342 345 342 338 345 345 344 343 342 340 340 337 336 344 344 343 348 348 346 347 346 345 346 345 345 346 344 344 344 344 346 346
318 321 323 329 328 331 333 330 332 335 338 342 341 339 337 334 341 342 338 336 335 334 332 330 332 335 347 347 346 345 347 346 346 346 346 345 344 343 343 343 342 341 339 342
319 319 325 323 330 331 330 329 328 329 337 336 338 336 337 333 337 342 332 329 328 327 326 327 329 329 333 346 347 346 344 345 344 345 343 342 342 341 340 338 336 334 332 324
319 320 324 328 331 333 330 329 327 331 330 331 338 337 335 337 339 333 328 324 324 324 324 325 326 326 327 331 341 339 338 339 341 343 342 342 340 340 338 338 336 335 334 331
319 322 326 324 328 329 328 330 331 327 327 330 339 338 339 336 332 327 323 323 324 323 322 324 324 323 326 329 330 329 329 333 337 338 337 338 339 340 338 337 333 331 328 323
324 321 325 324 323 323 327 327 324 324 327 335 335 335 335 334 332 326 323 322 322 322 322 322 322 322 324 325 327 326 326 330 332 334 334 335 336 334 333 331 329 327 325 321
326 319 324 323 324 327 328 327 324 324 329 333 332 328 331 330 327 323 321 319 320 321 321 321 321 321 321 323 324 324 325 328 330 328 328 328 329 329 328 328 327 326 324 323
324 323 320 323 325 325 327 326 325 325 331 334 333 333 331 326 324 320 319 320 320 319 320 320 320 320 320 320 321 321 322 324 323 320 320 322 322 320 318 316 315 319 320 323
321 321 320 325 322 324 324 322 322 324 328 333 333 331 328 326 323 322 321 321 321 320 320 318 318 319 319 319 319 319 318 320 321 320 319 319 319 318 317 318 315 316 314 312